[[[{"header":{"parameterUnit":"kt","parameterCategory":2,"dx":1,"dy":1,"la1":29.587661999999998,"la2":31.0,"lo1":-88.76705300000003,"lo2":-86.6583820000003,"nx":115,"ny":88,"refTime":"2022-09-29T12:00:00:Z","depth":0,"parameterNumber":1,"parameterNumberName":"U-component_of_WINDS"},"data":[2.3007,2.3665,2.3916,2.4013,2.399,2.3941,2.3918,2.3905,2.399,2.4026,2.4241,2.4705,2.5666,2.6671,2.7099,2.745,2.7731,2.7555,2.738,2.731,2.7255,2.7515,2.8095,2.907,3.0365,3.1867,3.3335,3.4123,3.4654,3.4886,3.5004,3.5004,3.5004,3.5004,3.499,3.5061,3.5156,3.5275,3.573,3.6253,3.6443,3.7183,3.8056,3.928,4.0564,4.1237,4.1889,4.2584,4.3329,4.456,4.6378,4.8154,4.9374,5.0206,5.0603,5.0839,5.093,5.1075,5.1151,5.1319,5.1352,5.1443,5.1443,5.1486,5.1486,5.1486,5.1486,5.1486,5.1486,5.1486,5.1486,5.1486,5.1486,5.1486,5.1486,5.1486,5.1486,5.1486,5.1486,5.1486,5.1486,5.1486,5.1486,5.1486,5.1486,5.1486,5.1486,5.1486,5.1486,5.1486,5.1486,5.1486,5.1486,5.1486,5.1486,5.1486,5.1486,5.1486,5.1486,5.1486,5.1486,5.1486,5.1486,5.1486,5.1477,5.1443,5.1477,5.1319,5.1319,5.1285,5.1419,5.1419,5.1276,5.1007,5.0603,2.3794,2.4191,2.4376,2.4419,2.4384,2.4049,2.3954,2.399,2.4276,2.4419,2.4763,2.6571,2.7541,2.8274,2.8846,2.9089,2.9262,2.9262,2.9227,2.9158,2.9089,2.9297,2.9797,3.0416,3.134,3.2562,3.3704,3.437,3.4853,3.4938,3.5004,3.5004,3.5004,3.5004,3.5004,3.5004,3.5004,3.5047,3.5332,3.5761,3.6497,3.7254,3.8439,3.9818,4.1287,4.2734,4.3855,4.4784,4.5538,4.6656,4.7759,4.9202,5.024,5.0906,5.1242,5.1309,5.1343,5.141,5.151,5.1486,5.1486,5.1486,5.1486,5.1486,5.1486,5.1486,5.1486,5.1486,5.1486,5.1486,5.1486,5.1486,5.1486,5.1486,5.1486,5.1486,5.1486,5.1486,5.1486,5.1486,5.1486,5.1486,5.1486,5.1486,5.1486,5.1486,5.1486,5.1486,5.1486,5.1486,5.1486,5.1486,5.1486,5.1486,5.1486,5.1486,5.1486,5.1486,5.1486,5.1486,5.1486,5.1486,5.1486,5.1486,5.1486,5.1486,5.1486,5.1486,5.1486,5.1419,5.1443,5.1276,5.1181,5.0964,5.0621,2.466,2.4838,2.4819,2.4924,2.5034,2.4719,2.4527,2.4598,2.4955,2.5687,2.6874,2.8467,2.9592,2.9955,3.0726,3.1153,3.1374,3.117,3.1016,3.0931,3.0897,3.105,3.1374,3.18,3.2512,3.3186,3.4104,3.4602,3.4919,3.5004,3.5004,3.5004,3.5004,3.5004,3.5004,3.5004,3.5004,3.5037,3.5269,3.6016,3.7119,3.8046,3.9126,4.0309,4.1809,4.3277,4.4575,4.5637,4.6617,4.7809,4.8593,4.9808,5.0704,5.13,5.1452,5.1486,5.1486,5.1486,5.1486,5.1486,5.1486,5.1486,5.1486,5.1486,5.1486,5.1486,5.1486,5.1486,5.1486,5.1486,5.1486,5.1486,5.1486,5.1486,5.1486,5.1486,5.1486,5.1486,5.1486,5.1486,5.1486,5.1486,5.1486,5.1486,5.1486,5.1486,5.1486,5.1486,5.1486,5.1486,5.1486,5.1486,5.1486,5.1486,5.1486,5.1486,5.1486,5.1486,5.1486,5.1486,5.1486,5.1486,5.1486,5.1486,5.1486,5.1486,5.1486,5.1486,5.1486,5.1535,5.1392,5.1263,5.1017,5.0867,5.0511,2.5856,2.5822,2.5864,2.5967,2.6119,2.568,2.5488,2.5573,2.6409,2.775,2.9092,3.0452,3.1357,3.1664,3.2308,3.2697,3.2934,3.2647,3.2697,3.2528,3.2375,3.2443,3.2748,3.3018,3.3454,3.4056,3.4441,3.4754,3.4971,3.5004,3.5004,3.5004,3.5004,3.5004,3.5004,3.5004,3.5103,3.5249,3.5789,3.684,3.7978,3.8979,4.008,4.1262,4.26,4.4129,4.5152,4.6287,4.763,4.8564,4.9163,5.0002,5.0863,5.1276,5.1452,5.1486,5.1486,5.1486,5.1486,5.1486,5.1486,5.1486,5.1486,5.1486,5.1486,5.1486,5.1486,5.1486,5.1486,5.1486,5.1486,5.1486,5.1486,5.1486,5.1486,5.1486,5.1486,5.1486,5.1486,5.1486,5.1486,5.1486,5.1486,5.1486,5.1486,5.1486,5.1486,5.1486,5.1486,5.1486,5.1486,5.1486,5.1486,5.1486,5.1486,5.1486,5.1486,5.1486,5.1486,5.1486,5.1486,5.1486,5.1486,5.1486,5.151,5.1486,5.1486,5.1559,5.1632,5.1574,5.1538,5.1787,5.156,5.1475,5.0902,2.741,2.7394,2.7924,2.7874,2.757,2.6979,2.6818,2.6994,2.9177,3.0537,3.0965,3.2156,3.2831,3.3067,3.3488,3.3841,3.3841,3.3807,3.374,3.3859,3.3622,3.3622,3.3841,3.4123,3.4204,3.4403,3.4687,3.4905,3.4971,3.5004,3.5004,3.5004,3.5004,3.5004,3.5037,3.5037,3.5367,3.5776,3.6715,3.7823,3.9,4.0193,4.1383,4.2468,4.3727,4.5088,4.5967,4.7211,4.8648,4.9185,4.983,5.0646,5.1065,5.1309,5.1452,5.1486,5.1486,5.1486,5.1486,5.1486,5.1486,5.1486,5.1486,5.1486,5.1486,5.1486,5.1486,5.1486,5.1486,5.1486,5.1486,5.1486,5.1486,5.1486,5.1486,5.1486,5.1486,5.1486,5.1486,5.1486,5.1486,5.1486,5.1486,5.1486,5.1486,5.1486,5.1486,5.1486,5.1486,5.1486,5.1486,5.1486,5.1486,5.1486,5.1486,5.1486,5.1486,5.151,5.1486,5.1486,5.1486,5.1486,5.1486,5.1632,5.1779,5.1657,5.1803,5.2072,5.2243,5.22,5.237,5.2421,5.2398,5.2401,5.1777,2.8398,2.8306,2.9187,2.9096,2.8468,2.847,2.9177,3.0246,3.146,3.219,3.2611,3.3403,3.3852,3.4037,3.4356,3.4574,3.4574,3.4559,3.4559,3.454,3.454,3.4559,3.4574,3.4687,3.4702,3.4787,3.4886,3.5004,3.5004,3.5004,3.5004,3.5004,3.5004,3.5004,3.5103,3.5301,3.5743,3.6637,3.7651,3.8874,4.0131,4.1368,4.2428,4.3449,4.4088,4.5273,4.63,4.7484,4.8676,4.95,5.0559,5.1252,5.1309,5.1352,5.1486,5.1486,5.1486,5.1486,5.1486,5.1486,5.1486,5.1486,5.1486,5.1486,5.1486,5.1486,5.1486,5.1486,5.1486,5.1486,5.1486,5.1486,5.1486,5.1486,5.1486,5.1486,5.1486,5.1486,5.1486,5.1486,5.1486,5.1486,5.1486,5.1486,5.1486,5.1486,5.1486,5.1486,5.1486,5.1486,5.1486,5.1486,5.1486,5.1486,5.1486,5.1486,5.1559,5.1632,5.1681,5.1706,5.1486,5.1583,5.1901,5.2023,5.2121,5.2365,5.26,5.283,5.3064,5.3413,5.3638,5.3614,5.3525,5.3225,5.2193,2.9196,2.9017,3.0247,3.0273,2.9617,3.051,3.163,3.2713,3.3152,3.3436,3.3737,3.4337,3.4503,3.4602,3.482,3.4938,3.4971,3.5004,3.5004,3.4971,3.4872,3.4971,3.4971,3.4938,3.4971,3.4971,3.4971,3.5004,3.5004,3.5004,3.5004,3.5004,3.5004,3.5004,3.5203,3.5598,3.6507,3.749,3.8673,3.9975,4.1307,4.2481,4.3265,4.3975,4.4533,4.5012,4.5973,4.705,4.8128,4.9134,5.0353,5.129,5.1364,5.1486,5.1486,5.1486,5.1486,5.1486,5.1486,5.1486,5.1486,5.1486,5.1486,5.1486,5.1486,5.1486,5.1486,5.1486,5.1486,5.1486,5.1486,5.1486,5.1486,5.1486,5.1486,5.1486,5.1486,5.1486,5.1486,5.1486,5.1486,5.1486,5.1486,5.1486,5.1486,5.1486,5.1486,5.1486,5.1486,5.1486,5.1486,5.1486,5.1486,5.1486,5.1486,5.1803,5.1803,5.1901,5.2121,5.2243,5.2429,5.2624,5.2453,5.2698,5.3211,5.3455,5.3552,5.3723,5.3932,5.4363,5.4564,5.462,5.4421,5.3536,5.2553,2.9719,2.979,3.1175,3.1412,3.1281,3.295,3.3934,3.4008,3.4237,3.4351,3.4418,3.482,3.4971,3.4971,3.4971,3.5004,3.5004,3.5004,3.5004,3.5004,3.507,3.5004,3.5004,3.5037,3.507,3.5037,3.5004,3.5004,3.5004,3.5004,3.5004,3.5004,3.5004,3.5136,3.5513,3.6136,3.7188,3.845,3.9652,4.0999,4.2223,4.3408,4.4004,4.4389,4.4683,4.5005,4.5478,4.6343,4.7392,4.8393,4.9401,5.0435,5.1119,5.1461,5.1486,5.1486,5.1486,5.1486,5.1486,5.1486,5.1486,5.1486,5.1486,5.1486,5.1486,5.1486,5.1486,5.1486,5.1486,5.1486,5.1486,5.1486,5.1486,5.1486,5.1486,5.1486,5.1486,5.1486,5.1486,5.1486,5.1486,5.1486,5.1486,5.1486,5.1486,5.1681,5.2023,5.2072,5.2463,5.2341,5.2365,5.2316,5.2145,5.1852,5.1852,5.2209,5.2405,5.2991,5.3064,5.3162,5.3835,5.4177,5.3762,5.3664,5.4274,5.4616,5.4653,5.4751,5.491,5.4927,5.5082,5.4975,5.412,5.3357,5.1963,2.9889,2.9964,3.1556,3.2006,3.1864,3.3331,3.4446,3.5046,3.5282,3.5395,3.5414,3.5348,3.5381,3.5282,3.5117,3.5004,3.5004,3.5004,3.5004,3.5037,3.5216,3.5216,3.5236,3.5301,3.5334,3.5037,3.5004,3.5037,3.507,3.5004,3.5037,3.507,3.5004,3.54,3.607,3.6844,3.7887,3.9306,4.0588,4.1934,4.3025,4.3885,4.4501,4.4713,4.483,4.4893,4.5264,4.6044,4.7173,4.8222,4.9247,5.0305,5.1119,5.1486,5.1486,5.1486,5.1486,5.1486,5.1486,5.1486,5.1486,5.1486,5.1486,5.1486,5.1486,5.1486,5.1486,5.1486,5.1486,5.1486,5.1486,5.1486,5.1486,5.1486,5.1486,5.1486,5.1486,5.1486,5.1486,5.1486,5.1486,5.1486,5.1486,5.1583,5.1926,5.2292,5.2659,5.3235,5.3748,5.3797,5.387,5.3786,5.3664,5.343,5.3284,5.3127,5.3406,5.4016,5.4103,5.4103,5.4738,5.5275,5.4884,5.464,5.4957,5.5239,5.5544,5.5861,5.6054,5.6072,5.5557,5.458,5.3811,5.2464,5.094,2.9974,3.0088,3.1463,3.208,3.2273,3.3422,3.4632,3.5632,3.6024,3.6221,3.6234,3.6038,3.5907,3.5776,3.5565,3.5367,3.5367,3.5334,3.5466,3.5565,3.5795,3.5729,3.5808,3.5959,3.5861,3.5598,3.5367,3.5367,3.5334,3.54,3.5354,3.5334,3.5447,3.5893,3.6702,3.7715,3.8821,4.0224,4.1483,4.2663,4.3766,4.433,4.4713,4.4864,4.4893,4.4893,4.4991,4.543,4.6727,4.8093,4.8581,4.9914,5.1217,5.1486,5.1486,5.1486,5.1486,5.1486,5.1486,5.1486,5.1486,5.1486,5.1486,5.1486,5.1486,5.1486,5.1486,5.1486,5.1486,5.1486,5.1486,5.1486,5.1486,5.1486,5.1486,5.1486,5.1486,5.1486,5.1608,5.1632,5.1559,5.1583,5.2219,5.2673,5.3088,5.3479,5.365,5.4152,5.4494,5.4713,5.4909,5.4933,5.4933,5.4811,5.4591,5.4128,5.4225,5.4909,5.5177,5.5275,5.5592,5.6104,5.6007,5.6056,5.5958,5.5909,5.6434,5.6883,5.7129,5.6463,5.5077,5.3968,5.2923,5.1526,4.9947,2.9983,3.0069,3.0962,3.1818,3.2605,3.373,3.4941,3.6077,3.6527,3.6897,3.7253,3.68,3.6657,3.6527,3.6201,3.6024,3.6024,3.6038,3.6201,3.6494,3.669,3.6832,3.6864,3.682,3.6755,3.6547,3.6266,3.607,3.6024,3.6024,3.5992,3.5972,3.6312,3.6755,3.7285,3.8482,3.9965,4.1483,4.2535,4.3438,4.4241,4.4654,4.483,4.4893,4.4893,4.4893,4.4893,4.5186,4.6307,4.78,4.8386,4.9515,5.1168,5.1461,5.1486,5.1486,5.1486,5.1486,5.1486,5.1486,5.1486,5.1486,5.1486,5.1486,5.1486,5.1486,5.1486,5.1486,5.1486,5.1486,5.1486,5.1486,5.1486,5.1486,5.1486,5.1486,5.1486,5.1486,5.1803,5.195,5.1886,5.1974,5.2966,5.3762,5.4152,5.4591,5.4665,5.4835,5.5104,5.5323,5.5543,5.5616,5.5665,5.5665,5.5714,5.5201,5.5201,5.5848,5.6336,5.6617,5.6934,5.6983,5.7227,5.7617,5.7373,5.691,5.7373,5.7824,5.7271,5.6578,5.4924,5.3341,5.1949,5.0578,4.9006,3.0521,3.0447,3.1234,3.2188,3.3172,3.3811,3.5202,3.6922,3.7651,3.8259,3.8842,3.8195,3.78,3.7478,3.7079,3.6852,3.6897,3.7006,3.7115,3.7426,3.7788,3.7896,3.7896,3.7864,3.7832,3.7265,3.7071,3.6974,3.6917,3.6787,3.6897,3.7188,3.7671,3.8291,3.9063,4.0184,4.1276,4.2307,4.3258,4.4111,4.4443,4.4771,4.4893,4.4893,4.4893,4.4893,4.4893,4.5015,4.6088,4.7386,4.8435,4.9418,5.0622,5.1486,5.1486,5.1486,5.1486,5.1486,5.1486,5.1486,5.1486,5.1486,5.1486,5.1486,5.1486,5.1486,5.1486,5.1486,5.1486,5.1486,5.1486,5.1486,5.1486,5.1486,5.1486,5.1486,5.1486,5.1779,5.2048,5.239,5.2781,5.3015,5.3859,5.4469,5.5177,5.6153,5.6226,5.6324,5.6324,5.63,5.6422,5.6397,5.6446,5.6641,5.6837,5.6592,5.647,5.7081,5.7154,5.7569,5.7642,5.7691,5.7813,5.7886,5.7886,5.7886,5.7848,5.7811,5.7271,5.6563,5.4962,5.3301,5.1748,4.956,4.7973,3.1055,3.0897,3.1699,3.2909,3.4213,3.4603,3.6117,3.8241,3.9127,3.9818,4.0317,3.9755,3.9243,3.8821,3.8312,3.8099,3.8131,3.827,3.8525,3.8831,3.9137,3.9327,3.9358,3.9358,3.9232,3.881,3.8461,3.8238,3.8067,3.8003,3.8099,3.8736,3.9516,4.0059,4.0526,4.1268,4.2269,4.3138,4.3909,4.4383,4.4649,4.483,4.4893,4.4893,4.4893,4.4893,4.4893,4.4893,4.5966,4.7166,4.7947,4.9125,5.037,5.1217,5.1437,5.1486,5.1486,5.1486,5.1486,5.1486,5.1486,5.1486,5.1486,5.1486,5.1486,5.1486,5.1486,5.1486,5.1486,5.1486,5.1486,5.1486,5.1486,5.1486,5.1486,5.1486,5.1681,5.2145,5.2488,5.2869,5.3357,5.4054,5.4665,5.519,5.6446,5.752,5.7739,5.7813,5.7593,5.7495,5.7373,5.7325,5.73,5.7422,5.7422,5.7617,5.7813,5.7813,5.7764,5.7813,5.7788,5.7886,5.7886,5.7886,5.7886,5.7886,5.7848,5.7773,5.7258,5.6411,5.5001,5.32,5.0859,4.8573,4.7286,3.1712,3.1636,3.2506,3.3859,3.5537,3.5971,3.7525,3.9796,4.0752,4.136,4.1636,4.1329,4.0836,4.0277,3.9943,3.9787,3.9787,3.9849,4.0193,4.0526,4.0818,4.0973,4.1035,4.0973,4.0796,4.0557,4.0162,3.9881,3.9693,3.962,4.033,4.1128,4.1189,4.1444,4.1812,4.2208,4.2958,4.385,4.4354,4.4654,4.4801,4.4864,4.4893,4.4893,4.4893,4.4893,4.4893,4.4893,4.5605,4.6758,4.7678,4.8873,5.0003,5.0973,5.1461,5.1486,5.1486,5.1486,5.1486,5.1486,5.1486,5.1486,5.1486,5.1486,5.1486,5.1486,5.1486,5.1486,5.1486,5.1486,5.1486,5.1486,5.1486,5.1486,5.1486,5.1632,5.2097,5.2536,5.2942,5.3347,5.4152,5.5153,5.5848,5.6275,5.73,5.7666,5.7886,5.7886,5.7886,5.7886,5.7886,5.7886,5.7886,5.7886,5.7886,5.7886,5.7886,5.7886,5.7886,5.7886,5.7886,5.7886,5.7886,5.7886,5.7886,5.7886,5.7848,5.7295,5.674,5.6104,5.4807,5.2742,5.0495,4.8366,4.693,3.3745,3.4239,3.4256,3.5274,3.683,3.7462,3.901,4.1148,4.217,4.28,4.2958,4.2928,4.2542,4.198,4.156,4.1368,4.1377,4.1683,4.1949,4.2155,4.2383,4.2528,4.2528,4.2528,4.2322,4.2064,4.1606,4.1391,4.1422,4.1689,4.2079,4.2619,4.2558,4.277,4.3011,4.3198,4.3522,4.4408,4.4654,4.483,4.4889,4.4893,4.4893,4.4893,4.4893,4.4893,4.4893,4.4893,4.5459,4.6563,4.7581,4.863,4.9637,5.0744,5.1437,5.1486,5.1486,5.1486,5.1486,5.1486,5.1486,5.1486,5.1486,5.1486,5.1486,5.1486,5.1486,5.1486,5.1486,5.1486,5.1486,5.1486,5.1486,5.1486,5.151,5.2048,5.2561,5.3001,5.3406,5.4274,5.5361,5.6336,5.6812,5.7251,5.7544,5.7813,5.7886,5.7886,5.7886,5.7886,5.7886,5.7886,5.7886,5.7886,5.7886,5.7886,5.7886,5.7886,5.7886,5.7886,5.7886,5.7886,5.7848,5.7848,5.7886,5.7698,5.7258,5.6702,5.6104,5.4962,5.3673,5.1905,5.0192,4.8387,4.6782,3.5692,3.6084,3.5714,3.6701,3.8413,3.8895,4.0352,4.2265,4.3372,4.3844,4.3969,4.3969,4.3766,4.3355,4.2881,4.267,4.27,4.2821,4.3055,4.3258,4.3425,4.3515,4.3575,4.3545,4.3515,4.3192,4.2958,4.2686,4.2988,4.3342,4.3569,4.3545,4.3599,4.3701,4.3909,4.3945,4.4265,4.459,4.483,4.4893,4.4893,4.4893,4.4893,4.4893,4.4893,4.4893,4.4893,4.4918,4.5308,4.5923,4.7508,4.8476,4.9271,5.0557,5.1486,5.1486,5.1486,5.1486,5.1486,5.1486,5.1486,5.1486,5.1486,5.1486,5.1486,5.1486,5.1486,5.1486,5.1486,5.1486,5.1486,5.1486,5.1486,5.1486,5.1486,5.2072,5.2698,5.3259,5.4236,5.547,5.6604,5.7056,5.7495,5.7666,5.7739,5.7886,5.7886,5.7886,5.7886,5.7886,5.7886,5.7886,5.7886,5.7886,5.7886,5.7886,5.7886,5.7886,5.7886,5.7886,5.7886,5.7811,5.7673,5.7673,5.7522,5.7106,5.6649,5.5821,5.4651,5.3555,5.2406,5.0698,4.8944,4.7328,4.632,3.7422,3.7395,3.6903,3.8016,3.9913,4.016,4.1534,4.3559,4.4236,4.4585,4.4531,4.4555,4.4531,4.433,4.3856,4.3731,4.3731,4.3737,4.3856,4.4088,4.4171,4.4147,4.42,4.423,4.4147,4.4058,4.376,4.4028,4.4182,4.4147,4.423,4.423,4.423,4.4295,4.4448,4.4448,4.4654,4.4859,4.4893,4.4893,4.4893,4.4893,4.4893,4.4893,4.4893,4.4893,4.4893,4.4918,4.4967,4.5313,4.7038,4.8117,4.8556,5.028,5.1266,5.1486,5.1486,5.1486,5.1486,5.1486,5.1486,5.1486,5.1486,5.1486,5.1486,5.1486,5.1486,5.1486,5.1486,5.1486,5.1486,5.1486,5.1486,5.1486,5.1535,5.2097,5.3162,5.4041,5.5006,5.619,5.7129,5.7642,5.7899,5.7886,5.7886,5.7886,5.7886,5.7886,5.7886,5.7886,5.7886,5.7886,5.7886,5.7886,5.7886,5.7886,5.7886,5.7886,5.7886,5.7886,5.7886,5.7848,5.7673,5.7309,5.6906,5.6563,5.5566,5.4401,5.3222,5.1967,5.0617,4.9149,4.7704,4.6765,4.5771,3.7931,3.7905,3.7599,3.8706,4.0524,4.0987,4.2349,4.4095,4.4654,4.4801,4.483,4.4854,4.4854,4.4801,4.4683,4.4595,4.4624,4.4595,4.4595,4.4683,4.4683,4.4713,4.4766,4.4766,4.4683,4.4595,4.4389,4.4501,4.4742,4.4713,4.4713,4.4678,4.4713,4.4801,4.4771,4.4801,4.483,4.4918,4.4893,4.4893,4.4893,4.4893,4.4893,4.4893,4.4893,4.4893,4.4893,4.4893,4.4893,4.5478,4.6849,4.8239,4.8556,5.028,5.147,5.1486,5.1486,5.1486,5.1486,5.1486,5.1486,5.1486,5.1486,5.1486,5.1486,5.1486,5.1486,5.1486,5.1486,5.1486,5.1486,5.1486,5.1486,5.1486,5.1608,5.2145,5.3601,5.4591,5.5494,5.669,5.7495,5.7886,5.7886,5.7886,5.7886,5.7886,5.7886,5.7886,5.7886,5.7886,5.7886,5.7886,5.7886,5.7886,5.7886,5.7886,5.7886,5.7886,5.7886,5.7886,5.7886,5.7886,5.746,5.7096,5.6578,5.5427,5.4206,5.3086,5.1486,5.0069,4.88,4.7766,4.6974,4.607,4.5414,3.8309,3.8258,3.8158,3.9337,4.1102,4.1507,4.28,4.4567,4.483,4.4893,4.4893,4.4893,4.4893,4.4893,4.4893,4.4893,4.4864,4.4893,4.4893,4.4893,4.4893,4.4893,4.4889,4.4918,4.4893,4.4889,4.4801,4.4796,4.4889,4.4893,4.4864,4.4893,4.4893,4.4893,4.4893,4.4893,4.4918,4.4918,4.4893,4.4893,4.4893,4.4893,4.4893,4.4893,4.4893,4.4893,4.4893,4.4893,4.4893,4.5308,4.6989,4.7971,4.8825,5.0085,5.1486,5.1486,5.1486,5.1486,5.1486,5.1486,5.1486,5.1486,5.1486,5.1486,5.1486,5.1486,5.1486,5.1486,5.1486,5.1486,5.1486,5.1486,5.1486,5.1486,5.151,5.2502,5.3932,5.4494,5.586,5.7422,5.7788,5.7886,5.7886,5.7886,5.7886,5.7886,5.7886,5.7886,5.7886,5.7886,5.7886,5.7886,5.7886,5.7886,5.7886,5.7886,5.7886,5.7886,5.7886,5.7886,5.7886,5.7886,5.756,5.683,5.5481,5.4316,5.3042,5.1507,4.9702,4.8035,4.737,4.6743,4.6132,4.5668,4.5267,3.861,3.8609,3.8585,3.9883,4.1719,4.1918,4.3115,4.4844,4.5093,4.5039,4.5039,4.5039,4.5093,4.5084,4.5059,4.5035,4.5005,4.4947,4.4893,4.4893,4.5035,4.4976,4.4976,4.5005,4.5176,4.5118,4.5059,4.503,4.5005,4.4947,4.4893,4.4893,4.4893,4.4893,4.4893,4.4893,4.4893,4.4893,4.4893,4.4893,4.4893,4.4893,4.4893,4.4893,4.4893,4.4893,4.4893,4.4893,4.4893,4.5113,4.7069,4.802,4.863,5.0003,5.1119,5.1412,5.1486,5.1486,5.1486,5.1486,5.1486,5.1486,5.1486,5.1486,5.1486,5.1486,5.1486,5.1486,5.1486,5.1486,5.1486,5.1486,5.1486,5.1486,5.1657,5.239,5.403,5.4727,5.5434,5.7081,5.7642,5.7886,5.7886,5.7886,5.7886,5.7886,5.7886,5.7886,5.7886,5.7886,5.7886,5.7886,5.7886,5.7886,5.7886,5.7886,5.7886,5.7886,5.7886,5.7886,5.7886,5.7886,5.7258,5.6234,5.5017,5.3572,5.1825,5.005,4.8408,4.6826,4.6155,4.5583,4.5456,4.5371,4.497,3.9131,3.9181,3.9131,4.0422,4.2285,4.2483,4.3725,4.5529,4.5703,4.5591,4.5451,4.5645,4.5579,4.5478,4.5632,4.5583,4.538,4.5176,4.5093,4.5122,4.5322,4.5326,4.5268,4.5442,4.581,4.6152,4.5753,4.5409,4.5322,4.5118,4.4976,4.4893,4.4893,4.4893,4.4893,4.4893,4.4893,4.4893,4.4893,4.4893,4.4893,4.4893,4.4893,4.4893,4.4893,4.4893,4.4893,4.4893,4.4918,4.5015,4.702,4.802,4.8508,4.9418,5.0378,5.1412,5.1495,5.1486,5.1486,5.1486,5.1486,5.1486,5.1486,5.1486,5.1486,5.1486,5.1486,5.1486,5.1486,5.1486,5.1486,5.1486,5.1486,5.1486,5.1486,5.2512,5.403,5.4665,5.5044,5.6287,5.7056,5.7471,5.7642,5.7837,5.7886,5.7886,5.7886,5.7886,5.7886,5.7886,5.7886,5.7886,5.7886,5.7886,5.7886,5.7886,5.7886,5.7886,5.7886,5.7886,5.7886,5.756,5.6892,5.5774,5.4434,5.298,5.1365,4.9355,4.7495,4.5775,4.5055,4.5202,4.5117,4.4989,4.4947,3.9892,3.9892,3.9868,4.1207,4.308,4.3175,4.4331,4.609,4.6421,4.625,4.6106,4.6307,4.6242,4.6029,4.6271,4.6246,4.5984,4.581,4.5753,4.5757,4.5897,4.5987,4.5995,4.6592,4.6845,4.6763,4.6393,4.5987,4.567,4.538,4.5093,4.4893,4.4893,4.4947,4.4893,4.4893,4.4893,4.4893,4.4893,4.4893,4.4893,4.4893,4.4893,4.4893,4.4893,4.4893,4.4893,4.4893,4.4893,4.5283,4.6435,4.7392,4.7587,4.8881,4.9914,5.0655,5.107,5.1486,5.1486,5.1486,5.1486,5.1486,5.1486,5.1486,5.1486,5.1486,5.1486,5.1486,5.1486,5.1486,5.1486,5.1486,5.1486,5.1486,5.1486,5.217,5.3381,5.3786,5.4177,5.525,5.6348,5.6837,5.73,5.7642,5.7739,5.7739,5.7739,5.7886,5.7886,5.7886,5.7886,5.7886,5.7886,5.7886,5.7886,5.7886,5.7886,5.7886,5.7886,5.7886,5.7811,5.722,5.6525,5.5156,5.3791,5.2388,5.0719,4.8697,4.674,4.5583,4.4928,4.4928,4.4904,4.4947,4.4947,4.0854,4.083,4.0854,4.2202,4.4095,4.4198,4.5304,4.7279,4.7304,4.7187,4.693,4.7131,4.7128,4.6867,4.7131,4.7074,4.6873,4.6757,4.6728,4.6703,4.6785,4.7071,4.7722,4.8194,4.8249,4.7754,4.7361,4.6822,4.6221,4.5901,4.5496,4.5151,4.5151,4.5035,4.5035,4.4976,4.4893,4.4893,4.4893,4.4893,4.4893,4.4893,4.4893,4.4893,4.4893,4.4893,4.4893,4.4893,4.4893,4.5113,4.5776,4.6435,4.6929,4.8149,4.9027,4.9548,5.0427,5.107,5.1168,5.129,5.1486,5.1486,5.1486,5.1486,5.1486,5.1486,5.1486,5.1486,5.1486,5.1486,5.1486,5.1486,5.1486,5.1486,5.151,5.1852,5.2551,5.2976,5.3479,5.425,5.5166,5.5848,5.5897,5.6788,5.7349,5.7544,5.7666,5.7861,5.7886,5.7886,5.7886,5.7886,5.7886,5.7886,5.7886,5.7886,5.7886,5.7886,5.7886,5.7886,5.7698,5.722,5.6181,5.483,5.3262,5.1566,4.9967,4.8035,4.6446,4.5668,4.4904,4.4904,4.4904,4.4904,4.4904,4.2204,4.2204,4.2204,4.3517,4.5413,4.5682,4.6729,4.848,4.869,4.8442,4.8165,4.8277,4.8248,4.808,4.8277,4.8275,4.7998,4.775,4.7584,4.7612,4.7917,4.8688,4.9638,4.9799,4.9531,4.9099,4.8387,4.7804,4.719,4.6617,4.6185,4.5847,4.5583,4.5492,4.5409,4.5118,4.4947,4.4976,4.4947,4.4893,4.4893,4.4893,4.4893,4.4893,4.4893,4.4893,4.4893,4.4893,4.4893,4.4893,4.4986,4.5625,4.6514,4.6709,4.7441,4.8368,4.932,4.9979,5.0109,5.0924,5.1412,5.1486,5.1486,5.1486,5.1486,5.1486,5.1486,5.1486,5.1486,5.1486,5.1486,5.1486,5.1486,5.1544,5.1519,5.1568,5.1828,5.2536,5.3113,5.3274,5.4152,5.4689,5.5019,5.5605,5.6385,5.6434,5.7105,5.7325,5.7495,5.7739,5.7886,5.7886,5.7886,5.7886,5.7886,5.7886,5.7886,5.7886,5.7886,5.7848,5.766,5.6992,5.5936,5.4496,5.2724,5.0981,4.9354,4.7849,4.6281,4.5371,4.4989,4.4904,4.4904,4.4904,4.4904,4.3407,4.3384,4.3407,4.4356,4.5851,4.6522,4.7581,4.8821,4.9608,4.9719,4.9369,4.9504,4.945,4.926,4.9504,4.9477,4.9233,4.9017,4.8827,4.8745,4.9044,4.9959,5.0909,5.1172,5.0857,5.0356,4.9746,4.9016,4.8277,4.7692,4.7213,4.6737,4.6421,4.6164,4.607,4.5525,4.5234,4.5234,4.5005,4.4893,4.4893,4.4893,4.4893,4.4893,4.4893,4.4893,4.4893,4.4893,4.4893,4.4918,4.4918,4.5113,4.5654,4.624,4.6855,4.727,4.832,4.9174,4.9686,5.0182,5.0801,5.1315,5.1486,5.1486,5.1486,5.1486,5.1486,5.1519,5.1486,5.1486,5.1486,5.1486,5.1486,5.1577,5.1843,5.201,5.1777,5.2194,5.229,5.2448,5.3015,5.3748,5.3772,5.4665,5.5117,5.5458,5.6214,5.6702,5.7105,5.7617,5.7886,5.7886,5.7886,5.7886,5.7886,5.7886,5.7886,5.7886,5.7886,5.7886,5.7547,5.6892,5.5643,5.4066,5.2225,5.0495,4.9006,4.7536,4.6155,4.531,4.5055,4.4904,4.4904,4.4904,4.4904,4.4428,4.4422,4.445,4.5116,4.6217,4.738,4.8394,4.9368,5.0646,5.0912,5.0597,5.0675,5.065,5.049,5.0649,5.0676,5.049,5.0385,5.0225,5.0145,5.049,5.1327,5.1996,5.2177,5.1919,5.1429,5.0858,5.0226,4.9423,4.8934,4.8387,4.7781,4.7526,4.7187,4.6817,4.6246,4.5814,4.567,4.5322,4.5064,4.5064,4.4976,4.4893,4.4893,4.4893,4.4893,4.4893,4.4893,4.5005,4.5263,4.5297,4.5263,4.524,4.5881,4.6238,4.6367,4.7166,4.8173,4.8783,4.9174,4.9857,5.0875,5.1047,5.1301,5.1537,5.171,5.1777,5.1744,5.1677,5.1677,5.1744,5.171,5.1686,5.181,5.2481,5.2776,5.2423,5.2192,5.1952,5.1726,5.2228,5.261,5.2903,5.3528,5.4201,5.4372,5.5044,5.5836,5.6409,5.6946,5.7495,5.7593,5.7886,5.7886,5.7886,5.7886,5.7886,5.7886,5.7886,5.7886,5.7547,5.6968,5.5605,5.3774,5.2087,5.013,4.8594,4.7306,4.6239,4.5098,4.4928,4.4904,4.4904,4.4904,4.4904,4.5243,4.5243,4.5243,4.5837,4.6971,4.8337,4.9348,5.0435,5.1743,5.2078,5.1817,5.174,5.1765,5.1791,5.1712,5.174,5.1765,5.1534,5.148,5.1842,5.2225,5.2585,5.2757,5.2782,5.2607,5.2281,5.174,5.1198,5.0623,5.012,4.9638,4.9235,4.8772,4.8358,4.7998,4.719,4.6678,4.6357,4.581,4.5467,4.5409,4.5122,4.4947,4.4952,4.5005,4.5005,4.501,4.5127,4.5471,4.6239,4.6328,4.6099,4.5632,4.5512,4.5543,4.5299,4.6148,4.6794,4.7106,4.7925,4.8822,4.9872,5.0368,5.0793,5.1713,5.2175,5.2407,5.2407,5.2117,5.2076,5.2307,5.2175,5.2217,5.2505,5.3501,5.3856,5.3436,5.2857,5.239,5.2018,5.171,5.1608,5.1803,5.2551,5.304,5.3357,5.403,5.4982,5.5605,5.6214,5.6775,5.7325,5.7764,5.7837,5.7886,5.7886,5.7886,5.7886,5.7886,5.7886,5.7735,5.7196,5.6157,5.4026,5.2007,4.9988,4.8263,4.7119,4.6028,4.5225,4.4928,4.4928,4.4904,4.4904,4.4904,4.5902,4.5923,4.5894,4.6079,4.6516,4.8597,4.9638,5.0094,5.2018,5.2786,5.2531,5.2506,5.2531,5.2506,5.2506,5.2531,5.2477,5.243,5.2607,5.3032,5.3305,5.3355,5.3355,5.3355,5.3206,5.294,5.2556,5.2177,5.1824,5.1353,5.104,5.0672,5.0199,4.9746,4.926,4.8441,4.7582,4.6936,4.6564,4.6189,4.5814,4.5583,4.5529,4.5525,4.55,4.55,4.5558,4.6081,4.6652,4.7077,4.7215,4.6907,4.6421,4.6214,4.5926,4.5686,4.5974,4.6493,4.7105,4.7494,4.8185,4.9322,5.0343,5.1132,5.1596,5.2573,5.3045,5.3071,5.2842,5.2743,5.3031,5.2834,5.3339,5.4536,5.5264,5.539,5.4986,5.4126,5.3248,5.2431,5.1985,5.1744,5.1577,5.1974,5.2072,5.2209,5.2991,5.3908,5.4299,5.5336,5.6044,5.6678,5.7325,5.7691,5.7837,5.7886,5.7886,5.7886,5.7886,5.7886,5.7811,5.7309,5.664,5.4457,5.2388,5.0435,4.8098,4.6952,4.5986,4.5479,4.4885,4.4904,4.4904,4.4904,4.4904,4.6423,4.6435,4.6402,4.6249,4.6424,4.844,4.9503,4.9886,5.1916,5.2958,5.3103,5.3136,5.3136,5.3082,5.3107,5.3107,5.3107,5.3107,5.328,5.3576,5.3625,5.3596,5.3625,5.3621,5.3576,5.3383,5.3111,5.2861,5.2664,5.2354,5.2151,5.1893,5.1512,5.1018,5.0438,4.9692,4.8799,4.7948,4.7526,4.6992,4.6507,4.6278,4.6192,4.6192,4.6164,4.645,4.6848,4.7638,4.8114,4.8361,4.8361,4.8057,4.747,4.7156,4.6763,4.6339,4.6221,4.6539,4.7161,4.7286,4.7737,4.8859,4.9994,5.0944,5.1918,5.3043,5.381,5.4222,5.3985,5.3888,5.4017,5.3921,5.4695,5.6576,5.7001,5.7032,5.6672,5.5833,5.4567,5.3255,5.2431,5.196,5.1719,5.1568,5.1608,5.1681,5.2145,5.2795,5.3186,5.4323,5.5239,5.6117,5.6751,5.7325,5.7666,5.7886,5.7886,5.7886,5.7886,5.7886,5.7735,5.7333,5.6587,5.5102,5.3064,5.0902,4.847,4.691,4.5986,4.5329,4.4989,4.4904,4.4904,4.4904,4.4904,4.6752,4.6845,4.6691,4.6679,4.6845,4.8144,4.9231,5.0131,5.1542,5.2682,5.331,5.3601,5.3552,5.3572,5.3552,5.3596,5.3625,5.3625,5.3703,5.3723,5.3699,5.3699,5.3699,5.3723,5.3728,5.3674,5.3379,5.326,5.3214,5.2986,5.2833,5.2786,5.2538,5.2052,5.1478,5.0911,5.0226,4.9369,4.8607,4.8028,4.7612,4.719,4.6964,4.6882,4.7049,4.7666,4.8934,4.9558,4.9853,4.9933,4.9906,4.9531,4.8771,4.8386,4.7943,4.7332,4.6995,4.6907,4.6955,4.7063,4.7627,4.8497,4.9158,5.0716,5.2559,5.3677,5.4593,5.5382,5.5425,5.5395,5.5484,5.5552,5.636,5.809,5.8448,5.8478,5.8272,5.7847,5.6656,5.4599,5.3183,5.2398,5.196,5.1719,5.1519,5.1519,5.1632,5.1974,5.2747,5.3259,5.4152,5.5446,5.6263,5.6837,5.7398,5.7861,5.7837,5.7886,5.7861,5.7886,5.7735,5.7447,5.6678,5.5797,5.3752,5.1927,4.9538,4.737,4.6384,4.5414,4.5117,4.4904,4.4904,4.4904,4.4904,4.7609,4.754,4.746,4.733,4.7237,4.8446,4.9072,4.9427,5.1343,5.2362,5.27,5.332,5.3621,5.3621,5.3621,5.3821,5.4171,5.4142,5.4166,5.4171,5.4166,5.4142,5.4142,5.4166,5.4195,5.4147,5.3928,5.3679,5.3502,5.3429,5.3379,5.3355,5.3111,5.2811,5.2405,5.1924,5.1173,5.0385,4.9907,4.9261,4.8607,4.8359,4.8221,4.8194,4.8963,4.9879,5.0647,5.0883,5.1066,5.1249,5.1301,5.1067,5.0595,4.9986,4.9288,4.8552,4.8306,4.8221,4.8083,4.8194,4.8434,4.8827,5.007,5.1268,5.2329,5.3535,5.4714,5.5609,5.5696,5.5978,5.6815,5.7793,5.8685,5.9272,5.968,5.9738,5.9447,5.8831,5.785,5.6449,5.4764,5.3288,5.2464,5.2051,5.1719,5.1486,5.1486,5.1583,5.2048,5.2551,5.342,5.4006,5.5201,5.6117,5.6409,5.6666,5.6739,5.7447,5.7666,5.7837,5.7773,5.7398,5.6806,5.5966,5.455,5.2799,5.0717,4.8408,4.6888,4.5752,4.5286,4.5032,4.4904,4.4904,4.4904,4.8468,4.8236,4.8159,4.7994,4.7809,4.8605,4.9014,4.9292,5.0711,5.1659,5.2356,5.2936,5.3484,5.3918,5.3685,5.4024,5.476,5.476,5.4783,5.4789,5.4724,5.4724,5.4766,5.4724,5.4724,5.4742,5.4449,5.4166,5.385,5.3699,5.3621,5.3601,5.3482,5.3285,5.3015,5.266,5.2129,5.1409,5.1069,5.0571,4.9826,4.9665,4.9692,4.9826,5.0807,5.1485,5.1845,5.1945,5.2098,5.2253,5.2225,5.2174,5.1942,5.1433,5.0729,4.9986,4.9719,4.9531,4.9423,4.9531,4.9611,4.9719,5.0881,5.1887,5.2708,5.3673,5.47,5.5755,5.614,5.6558,5.7317,5.8064,5.8716,5.8886,5.9455,5.9712,5.9543,5.9454,5.9067,5.8025,5.6537,5.4637,5.3475,5.2357,5.1827,5.1686,5.1577,5.1544,5.1632,5.2023,5.2624,5.3186,5.4177,5.5079,5.5044,5.5348,5.5982,5.6812,5.7373,5.7398,5.7837,5.7574,5.7133,5.6334,5.545,5.383,5.2145,4.9845,4.7869,4.6659,4.5541,4.5244,4.4904,4.4904,4.4904,4.928,4.9032,4.8925,4.8804,4.8645,4.8706,4.909,4.9645,4.9742,5.0693,5.2225,5.244,5.3103,5.4184,5.3613,5.4111,5.5249,5.531,5.5393,5.5544,5.5425,5.5348,5.5474,5.5348,5.5402,5.5474,5.5131,5.467,5.4136,5.3845,5.3703,5.3645,5.365,5.3531,5.3313,5.3214,5.2965,5.2465,5.2075,5.1688,5.1196,5.0937,5.1225,5.1817,5.2335,5.249,5.2566,5.2761,5.2883,5.2883,5.2883,5.2911,5.2858,5.2639,5.2208,5.1611,5.1095,5.0835,5.0755,5.0781,5.0835,5.0887,5.1361,5.2245,5.3437,5.3902,5.4602,5.5821,5.6816,5.7152,5.6657,5.6905,5.7068,5.7285,5.8202,5.8778,5.8864,5.9281,5.9599,5.8812,5.772,5.6261,5.4414,5.2857,5.2126,5.1885,5.1652,5.1486,5.151,5.151,5.1999,5.2649,5.3064,5.3172,5.3211,5.3957,5.4982,5.5824,5.6385,5.6604,5.7325,5.7811,5.7333,5.6702,5.5859,5.4713,5.3239,5.1424,4.9354,4.7703,4.6533,4.5414,4.497,4.4928,4.4904,5.0471,5.0365,5.0044,4.9767,4.9441,4.9454,4.938,4.9407,4.9906,5.0273,5.0637,5.125,5.2113,5.3053,5.3005,5.376,5.5123,5.5246,5.5782,5.673,5.6756,5.6778,5.6791,5.6756,5.6666,5.6434,5.6057,5.5521,5.5007,5.4353,5.3894,5.3869,5.3748,5.3601,5.3527,5.3363,5.3164,5.3015,5.2761,5.2459,5.218,5.2408,5.2632,5.2886,5.299,5.314,5.3305,5.3404,5.3429,5.3429,5.3429,5.3429,5.3429,5.3161,5.299,5.2761,5.231,5.1873,5.1639,5.1847,5.2004,5.2029,5.2278,5.2775,5.3291,5.3478,5.4049,5.5115,5.5842,5.6174,5.5986,5.6707,5.7255,5.7392,5.7625,5.7913,5.7888,5.7794,5.8022,5.8122,5.7405,5.6507,5.574,5.4062,5.2554,5.206,5.1719,5.1486,5.1486,5.151,5.1559,5.1901,5.2634,5.2966,5.3088,5.3357,5.3919,5.4787,5.5678,5.6117,5.6531,5.7495,5.7598,5.6731,5.6225,5.5311,5.4206,5.2826,5.0983,4.9067,4.7119,4.5583,4.5098,4.4928,4.4904,5.1179,5.1112,5.0801,5.0521,5.0259,5.0241,5.0021,4.9683,5.0029,5.0238,5.0365,5.063,5.1453,5.2509,5.2607,5.3509,5.4915,5.4978,5.5449,5.6225,5.6739,5.7011,5.7169,5.7598,5.7837,5.7633,5.7145,5.6582,5.6003,5.5318,5.4664,5.4214,5.3947,5.3748,5.3621,5.3507,5.3433,5.3408,5.3285,5.3107,5.3015,5.326,5.3408,5.3379,5.3433,5.3507,5.3596,5.3621,5.3621,5.3621,5.3621,5.3621,5.3621,5.3507,5.3408,5.3408,5.3136,5.2811,5.2452,5.2689,5.2818,5.2764,5.3065,5.3285,5.3379,5.3408,5.3694,5.4335,5.466,5.4789,5.4822,5.5484,5.5949,5.6011,5.6448,5.6738,5.6742,5.6992,5.725,5.7425,5.6878,5.6394,5.6092,5.4772,5.3415,5.2537,5.1952,5.1652,5.1519,5.1486,5.1486,5.1583,5.1999,5.238,5.2439,5.2463,5.2893,5.3737,5.4543,5.5166,5.5507,5.6495,5.7054,5.6546,5.6456,5.6134,5.5172,5.3814,5.2446,5.0638,4.8511,4.6636,4.5456,4.5074,4.4928,5.155,5.1501,5.1282,5.1097,5.0959,5.0974,5.0749,5.0397,5.0201,5.046,5.1005,5.0628,5.1109,5.2101,5.2389,5.3199,5.4428,5.453,5.4639,5.494,5.5807,5.6433,5.6732,5.7942,5.8563,5.8501,5.8147,5.7657,5.7066,5.6524,5.5743,5.4646,5.4238,5.3996,5.3723,5.3699,5.3674,5.365,5.3674,5.3674,5.365,5.3621,5.3621,5.3621,5.3621,5.3621,5.3621,5.3621,5.3621,5.3621,5.3621,5.3621,5.3621,5.3621,5.3621,5.3596,5.3625,5.3552,5.3309,5.326,5.3289,5.3313,5.3478,5.3625,5.3625,5.3621,5.3621,5.3683,5.3654,5.3737,5.365,5.3762,5.3912,5.4057,5.4818,5.5433,5.552,5.6477,5.7099,5.6788,5.6257,5.6034,5.5826,5.5212,5.4284,5.3229,5.2445,5.1885,5.1652,5.1577,5.1486,5.1519,5.1544,5.1559,5.1583,5.1535,5.1999,5.2698,5.304,5.3626,5.4421,5.5288,5.5934,5.5726,5.6024,5.6165,5.5382,5.4606,5.3407,5.1835,5.0252,4.849,4.6553,4.5498,4.5074,5.1834,5.1801,5.1636,5.1551,5.1518,5.1417,5.1197,5.0974,5.0769,5.0875,5.1067,5.1017,5.1104,5.1377,5.1444,5.2306,5.3592,5.3721,5.4337,5.5322,5.5673,5.5803,5.5983,5.711,5.7744,5.7865,5.8401,5.845,5.7999,5.7463,5.6747,5.5805,5.502,5.4407,5.3918,5.3947,5.3845,5.3674,5.3874,5.3874,5.3645,5.3621,5.3621,5.3621,5.365,5.3621,5.3621,5.3621,5.3621,5.3621,5.3621,5.3621,5.3621,5.3621,5.3621,5.3621,5.3621,5.3625,5.3576,5.3581,5.3552,5.3576,5.3625,5.3621,5.3621,5.3621,5.3621,5.3621,5.3621,5.3621,5.3621,5.3621,5.3621,5.365,5.3941,5.4149,5.4091,5.4319,5.4718,5.5368,5.5178,5.5083,5.5312,5.5345,5.4798,5.3648,5.2846,5.2241,5.1885,5.1644,5.1519,5.1486,5.1486,5.1486,5.1486,5.1486,5.1608,5.1779,5.2478,5.3015,5.343,5.4274,5.4813,5.4887,5.4842,5.4998,5.5364,5.4634,5.3721,5.2992,5.1515,4.9884,4.8098,4.6659,4.5583,5.1916,5.1916,5.1851,5.1801,5.1785,5.1751,5.1569,5.1401,5.1368,5.1386,5.1503,5.147,5.1503,5.1486,5.147,5.196,5.2747,5.273,5.3137,5.3921,5.4589,5.4883,5.5014,5.6254,5.6899,5.6875,5.7341,5.7388,5.7044,5.7121,5.6791,5.6006,5.5752,5.5208,5.4425,5.4407,5.4214,5.3821,5.4214,5.4287,5.405,5.3996,5.402,5.4025,5.3899,5.3821,5.385,5.3723,5.3461,5.2979,5.2945,5.2706,5.2274,5.2092,5.2074,5.2045,5.2021,5.2289,5.2747,5.2873,5.3106,5.3591,5.3621,5.3388,5.281,5.2776,5.3038,5.3562,5.3621,5.3621,5.3621,5.3621,5.3621,5.3621,5.3621,5.3621,5.3621,5.3621,5.3838,5.4273,5.417,5.4223,5.4868,5.4671,5.4214,5.3874,5.3347,5.2795,5.2224,5.2084,5.1894,5.1719,5.161,5.1519,5.1486,5.1486,5.1486,5.1486,5.1999,5.2316,5.2405,5.3176,5.3786,5.3873,5.4195,5.4467,5.4674,5.4209,5.3671,5.3222,5.2073,5.0873,4.9578,4.8056,4.6855,5.1356,5.1372,5.1356,5.1356,5.1324,5.1324,5.1375,5.144,5.1342,5.1324,5.1324,5.1275,5.1308,5.1275,5.1554,5.1587,5.1604,5.1785,5.1916,5.1949,5.3182,5.3756,5.3822,5.5119,5.5705,5.5727,5.5789,5.5689,5.5553,5.6235,5.6251,5.5753,5.6247,5.5925,5.4938,5.4937,5.4789,5.4425,5.4807,5.4831,5.458,5.4586,5.4538,5.449,5.4292,5.4117,5.4069,5.3694,5.3086,5.2222,5.1987,5.147,5.0622,5.0383,5.0205,5.0205,5.0205,5.0612,5.1473,5.1753,5.2274,5.3125,5.3145,5.2708,5.163,5.149,5.1927,5.2975,5.3184,5.3388,5.3388,5.3533,5.3562,5.3412,5.3383,5.3242,5.298,5.2951,5.3067,5.3334,5.3197,5.3391,5.416,5.3936,5.3724,5.3724,5.3601,5.3418,5.2796,5.2505,5.2228,5.1821,5.163,5.1577,5.1486,5.1486,5.1486,5.1486,5.1535,5.1632,5.1632,5.2341,5.2795,5.282,5.342,5.3962,5.4068,5.3615,5.3346,5.3311,5.2247,5.11,5.0227,4.9297,4.8139,4.8715,4.8715,4.873,4.8607,4.852,4.8535,4.9117,5.0045,4.8968,0.0,0.0,4.8396,4.8378,4.8462,4.9615,5.0125,5.0239,5.1357,5.1916,5.1916,5.2179,5.2278,5.2294,5.2551,5.3285,5.4378,5.4826,5.5325,5.5859,5.5831,5.548,5.4983,5.5809,5.5881,5.5215,5.5471,5.5752,5.6095,5.5981,5.5682,5.5242,5.5091,5.4961,5.4742,5.4718,5.4604,5.4364,5.3262,5.2615,5.2426,5.1395,5.0717,5.0556,5.0482,5.0459,5.0459,5.0489,5.0548,5.0738,5.0761,5.0901,5.1062,5.0879,5.0769,5.0774,5.0557,5.0531,5.0736,5.1589,5.2054,5.2078,5.3009,5.3213,5.2141,5.2025,5.1594,5.0634,5.046,5.0954,5.185,5.2064,5.238,5.3358,5.396,5.4183,5.3583,5.3587,5.3662,5.337,5.2608,5.1821,5.1248,5.1351,5.1654,5.1528,5.1412,5.1486,5.1412,5.1461,5.1486,5.151,5.1657,5.1779,5.1877,5.1867,5.2551,5.3399,5.3099,5.298,5.3673,5.2609,5.1148,5.0161,4.9651,4.8864,4.8129,4.8111,4.8183,4.8158,0.0,4.7994,4.8009,4.7953,4.7242,4.7255,4.7818,4.7743,4.7714,4.7747,4.8378,4.8677,4.8742,4.94,4.9745,4.9778,5.0485,5.0831,5.0864,5.1555,5.2276,5.2919,5.3245,5.3522,5.3915,5.4444,5.4485,5.4049,5.5049,5.5682,5.5891,5.581,5.566,5.5297,5.5023,5.4617,5.4053,5.393,5.3858,5.3627,5.3381,0.0,0.0,0.0,0.0,0.0,0.0,0.0,0.0,4.9097,0.0,4.913,4.916,4.9429,5.0056,5.0167,5.0401,5.0888,5.0616,5.0113,4.9199,4.9342,4.9738,5.0402,5.0833,5.1046,5.0977,5.149,5.156,5.0832,5.075,5.0518,4.9907,4.9762,5.0052,5.0663,5.1274,5.1861,5.2443,5.333,5.3645,5.3163,5.3358,5.3341,5.284,5.2288,5.1821,5.1399,5.1024,5.0428,5.0156,5.0305,5.063,5.0728,5.1119,5.1437,5.1486,5.1486,5.1486,5.1486,5.1486,5.1681,5.239,5.2268,5.2255,5.2946,5.2385,5.1268,5.0067,4.9702,4.911,4.7554,4.7596,4.7674,4.7646,4.7534,4.766,4.7038,4.601,4.5878,4.6377,4.728,4.7184,4.7145,4.7102,4.7275,4.7285,4.7256,4.7537,4.7651,4.7702,4.8872,4.94,4.9466,5.0567,5.1094,5.1094,5.1373,5.1505,5.1538,5.2834,5.3368,5.3158,5.4232,5.52,5.5883,0.0,0.0,0.0,5.409,5.3603,5.3058,5.2976,5.2853,5.2657,5.225,0.0,5.1861,5.135,5.0641,4.9783,4.9532,0.0,0.0,0.0,0.0,0.0,0.0,0.0,0.0,0.0,0.0,0.0,4.9939,4.8961,4.745,4.7921,4.8864,5.0056,5.0235,5.0164,4.9915,5.0089,5.0066,4.9629,4.9526,4.9438,4.9176,4.9124,4.9225,4.9406,5.0337,5.1099,5.1652,5.2443,5.295,5.2969,5.3078,5.2853,5.2213,5.197,5.186,5.1804,5.0533,4.9281,4.8797,4.9208,4.9563,4.9564,5.0305,5.0777,5.0744,5.0801,5.085,5.0801,5.0866,5.085,5.0875,5.1037,5.1407,5.2272,5.1973,5.1122,4.9693,4.9321,4.8819,4.5029,4.513,4.5167,4.5155,4.5167,4.5653,4.554,4.508,4.4945,4.4835,4.4775,4.4666,4.4522,4.4529,4.5701,4.6175,4.6001,4.7198,4.7806,4.7806,4.7974,4.8073,4.8073,4.8253,4.8307,4.8213,4.945,4.9994,5.0092,5.1456,5.2097,5.1978,5.3316,5.3906,5.3725,5.3962,5.4517,5.5354,5.5013,5.4614,5.422,5.398,5.3683,5.3353,5.3303,5.2997,5.2554,5.1427,5.0659,5.0406,4.9342,4.8656,4.8491,4.7299,4.6674,0.0,4.5604,0.0,0.0,0.0,0.0,0.0,0.0,0.0,0.0,4.6189,4.7178,4.8102,4.8878,4.925,4.8967,5.0011,5.0158,4.8935,4.8758,4.8294,4.7204,4.686,4.7152,4.8309,4.8367,4.9245,5.1245,5.1797,5.2264,5.295,5.2976,5.2813,5.2686,5.2098,5.1734,5.1888,5.0817,4.9716,4.9155,4.8871,4.8637,4.8442,4.8686,4.8605,4.8783,4.8727,4.8678,4.8703,4.88,4.8678,4.863,4.9369,5.0345,5.1498,5.1283,5.0314,4.8586,4.8213,4.7731,4.4928,4.5047,4.5118,4.5328,4.5577,4.573,4.5664,4.543,4.5316,4.506,4.476,4.4699,4.4514,4.4296,4.4878,4.4929,4.4728,4.5364,4.5622,4.5571,4.638,4.6744,4.6777,4.7542,4.7862,4.7865,4.8493,4.8763,4.8753,5.0103,5.0765,5.067,5.2064,5.2718,5.2517,5.2686,5.2997,5.3516,5.332,5.3003,5.2594,5.2489,5.2289,5.2062,5.1153,5.0521,5.0193,4.8729,4.7865,4.7701,4.716,4.6867,4.6867,4.6276,4.607,0.0,0.0,0.0,0.0,0.0,0.0,0.0,0.0,0.0,0.0,0.0,4.5988,4.6201,4.7087,4.7911,4.8408,4.8989,4.8983,4.8258,4.8096,4.7825,4.7258,4.6834,4.6824,4.7297,4.7767,4.8396,4.9442,5.0785,5.189,5.2322,5.2288,5.2427,5.2888,5.266,5.2114,5.1733,5.0746,4.9749,4.8772,4.8142,4.762,4.7447,4.7825,4.8239,4.8239,4.8239,4.8239,4.8239,4.8239,4.7874,4.6673,4.7703,4.9491,5.0769,5.0384,4.9064,4.788,4.7474,4.6939,4.5305,4.5431,4.5611,4.5916,4.6339,4.5852,4.5609,4.5467,4.5315,4.5077,4.48,4.5133,4.5107,4.4822,4.465,4.4368,4.4122,4.4084,4.3993,4.393,4.5036,4.5536,4.5589,4.6647,4.7151,4.7156,4.746,4.7507,4.7476,4.9214,4.9997,4.9908,5.1321,5.2062,5.2047,5.2047,5.1866,5.1552,5.1358,5.0982,5.0343,5.0277,5.0193,5.001,4.8761,4.8,4.7882,4.663,4.5877,4.5726,4.5709,4.5741,4.5709,4.541,0.0,0.0,0.0,0.0,0.0,0.0,0.0,0.0,0.0,4.1346,4.237,0.0,4.4503,0.0,4.5417,4.6576,4.74,4.7759,0.0,0.0,4.7812,4.7946,4.7917,4.745,4.7118,4.6905,4.7461,4.7898,4.7937,4.9632,5.0849,5.078,5.1303,5.1982,5.2776,5.2909,5.2657,5.1899,5.0912,4.9799,4.8629,4.7697,4.6908,4.6335,4.6874,4.7404,4.7435,4.7459,4.7459,4.7404,4.7459,4.6794,4.5259,4.6508,4.8344,4.945,4.8417,4.6952,4.6676,4.6596,4.6204,4.5747,4.5845,4.6058,4.6335,4.6473,4.5028,4.4351,4.4245,4.4129,4.401,4.396,4.5235,4.5786,4.5731,4.5396,0.0,4.4662,4.4539,4.4401,4.4288,4.4503,4.4587,4.4599,4.4755,4.4726,4.4666,4.5844,4.6359,4.6355,4.9092,5.034,4.9982,5.1732,5.2542,5.245,5.2434,5.1804,5.0511,5.0226,4.9425,4.8127,4.7869,4.7621,4.7402,4.7224,4.7098,4.6941,4.6796,4.6637,4.6381,4.6365,4.6365,4.6333,0.0,0.0,0.0,0.0,0.0,0.0,0.0,0.0,0.0,0.0,0.0,0.0,0.0,0.0,0.0,4.4191,0.0,4.5378,4.656,0.0,0.0,0.0,4.8818,4.8728,4.8333,4.7925,4.76,0.0,0.0,4.8059,4.8389,4.8367,4.814,5.0227,5.1739,5.1827,5.2602,5.304,5.2376,5.1586,5.0515,4.9179,4.7965,4.6794,4.5489,4.5088,4.5283,4.5308,4.5283,4.521,4.5278,4.5186,4.5088,4.4937,4.5801,4.6514,4.5679,4.4581,4.3801,4.3914,4.4982,4.5642,4.4114,4.356,4.3707,4.3863,4.39,4.3358,4.3065,4.2932,4.286,4.2751,4.2619,4.315,4.389,4.4696,4.445,0.0,0.0,0.0,4.4808,4.4686,4.4701,4.4796,4.488,4.4858,4.4892,4.4916,4.5362,4.5447,4.5299,4.8203,4.9487,4.9468,0.0,5.2041,5.2647,5.188,5.113,5.0563,4.9469,4.8558,4.7939,4.778,4.7567,4.7363,4.6562,4.6029,4.5913,4.5069,4.4478,4.4251,4.4236,4.3801,0.0,0.0,0.0,0.0,0.0,0.0,0.0,0.0,0.0,0.0,0.0,3.5005,3.5768,0.0,0.0,0.0,4.1342,4.3014,4.448,4.5913,0.0,0.0,0.0,0.0,0.0,0.0,0.0,4.8189,4.7639,4.7316,4.7284,4.7343,4.7574,4.8031,4.8788,4.9674,5.0431,0.0,5.2129,5.162,5.144,5.0961,4.9746,4.8388,4.7133,4.5987,4.5351,4.4947,4.4893,4.4893,4.4893,4.4845,4.4382,4.4167,4.4767,4.4191,4.3536,4.3122,4.2682,4.2441,4.2414,4.3354,4.3988,4.2419,0.0,0.0,0.0,0.0,4.1831,4.1609,4.1498,4.1507,4.1422,4.1249,4.1691,0.0,0.0,0.0,0.0,0.0,0.0,4.393,4.3805,4.4285,4.4525,4.4685,4.5121,4.5442,4.551,4.5396,4.52,4.5043,4.7534,4.8671,4.8594,0.0,0.0,0.0,0.0,5.0788,5.0316,4.8696,4.7548,4.6966,4.6739,4.6581,4.6462,4.5435,4.4838,4.4724,4.3746,4.3101,4.2934,4.2542,0.0,0.0,0.0,0.0,0.0,0.0,0.0,0.0,0.0,0.0,0.0,0.0,0.0,0.0,0.0,0.0,0.0,0.0,0.0,4.2482,4.4306,4.5397,0.0,0.0,0.0,0.0,0.0,0.0,0.0,0.0,0.0,4.6621,4.6789,4.7119,0.0,0.0,4.8176,4.9077,5.0291,5.1017,5.0568,5.058,0.0,4.9268,4.7952,4.6736,4.5821,4.4927,4.4331,4.4245,4.422,4.4192,4.411,4.3499,4.3013,4.3188,4.1934,4.0952,4.0903,4.1174,4.1343,4.1391,4.2033,4.2506,0.0,0.0,0.0,0.0,4.207,0.0,0.0,0.0,3.9854,3.9818,0.0,4.1304,0.0,0.0,0.0,0.0,4.1515,4.1452,0.0,0.0,4.2875,4.3587,4.3713,4.5229,4.6002,4.6047,4.5895,4.5664,4.5522,4.7283,0.0,0.0,0.0,0.0,0.0,0.0,5.0978,4.9572,4.7781,4.6094,4.4536,4.4116,4.3838,4.3756,4.3521,4.3453,4.3406,4.3406,4.3327,4.3294,4.202,0.0,0.0,0.0,0.0,0.0,0.0,0.0,0.0,0.0,0.0,0.0,0.0,0.0,0.0,0.0,0.0,0.0,0.0,0.0,0.0,4.1183,0.0,0.0,0.0,0.0,0.0,0.0,0.0,0.0,0.0,4.8053,4.6349,4.6777,4.7006,4.6449,0.0,0.0,0.0,0.0,4.9706,4.9453,4.9023,4.8372,4.7328,4.6268,4.518,4.4066,0.0,0.0,4.2711,4.2657,4.2626,4.2338,4.2311,4.1649,3.9851,3.9154,3.873,3.8704,3.9584,4.0247,4.0343,4.1072,4.1668,0.0,0.0,0.0,0.0,0.0,0.0,0.0,0.0,0.0,3.5248,3.5334,3.5876,0.0,0.0,0.0,0.0,0.0,0.0,0.0,0.0,4.2005,4.2327,4.2429,4.3003,4.387,4.488,4.4781,4.4205,0.0,0.0,0.0,0.0,0.0,0.0,0.0,0.0,4.9037,4.8507,4.6854,4.556,4.4711,4.4326,4.4019,4.3804,4.3565,4.3436,4.3373,4.3373,4.3373,0.0,0.0,0.0,0.0,0.0,0.0,0.0,0.0,0.0,0.0,0.0,0.0,0.0,0.0,0.0,0.0,0.0,0.0,0.0,0.0,0.0,0.0,0.0,3.9214,0.0,0.0,0.0,0.0,0.0,0.0,0.0,0.0,0.0,4.6935,4.6621,4.6518,4.6625,4.6722,4.674,4.6562,0.0,0.0,0.0,0.0,0.0,0.0,0.0,4.5682,4.4894,4.4328,4.3886,4.3624,4.3333,4.2989,4.2724,0.0,0.0,3.9479,3.9007,3.8684,3.8534,3.8827,3.9096,3.9071,3.9975,4.0732,0.0,0.0,0.0,0.0,0.0,0.0,0.0,0.0,0.0,3.2867,3.2867,0.0,0.0,0.0,0.0,0.0,0.0,0.0,0.0,0.0,0.0,0.0,4.0322,4.1391,0.0,0.0,0.0,0.0,0.0,0.0,0.0,0.0,0.0,0.0,0.0,0.0,4.825,4.8169,4.6574,4.5521,4.5166,4.4774,4.4427,4.4092,4.387,4.3618,4.3422,0.0,0.0,0.0,0.0,0.0,0.0,0.0,0.0,0.0,0.0,0.0,0.0,0.0,0.0,0.0,0.0,0.0,0.0,0.0,0.0,0.0,0.0,0.0,0.0,0.0,3.5871,0.0,0.0,0.0,0.0,0.0,0.0,0.0,0.0,0.0,0.0,4.5771,4.5647,4.5745,4.537,4.4988,4.4736,4.5769,4.6477,0.0,0.0,0.0,0.0,0.0,0.0,0.0,0.0,0.0,0.0,0.0,0.0,0.0,0.0,3.9777,3.8842,3.8234,3.7948,3.8388,0.0,0.0,0.0,0.0,0.0,0.0,0.0,0.0,0.0,0.0,0.0,0.0,0.0,0.0,0.0,3.2711,0.0,0.0,3.2718,0.0,0.0,0.0,0.0,0.0,0.0,0.0,0.0,0.0,0.0,0.0,0.0,0.0,0.0,0.0,0.0,0.0,0.0,0.0,0.0,0.0,0.0,4.8666,4.8712,4.6952,4.5953,4.5664,4.5305,4.488,4.4364,4.4212,4.3941,4.3598,0.0,0.0,0.0,0.0,0.0,0.0,0.0,0.0,0.0,0.0,0.0,0.0,0.0,0.0,0.0,0.0,0.0,0.0,0.0,0.0,0.0,0.0,0.0,0.0,0.0,0.0,3.4381,3.7064,3.8748,0.0,0.0,0.0,0.0,0.0,0.0,0.0,0.0,0.0,4.3723,4.3109,4.2725,4.2478,4.3385,4.416,4.4131,4.4914,4.5421,4.4921,4.4268,4.3609,0.0,0.0,0.0,0.0,0.0,0.0,0.0,0.0,0.0,0.0,0.0,0.0,0.0,0.0,0.0,0.0,0.0,0.0,0.0,0.0,0.0,0.0,0.0,0.0,0.0,0.0,0.0,0.0,0.0,0.0,0.0,0.0,0.0,0.0,0.0,0.0,0.0,0.0,0.0,0.0,0.0,0.0,0.0,0.0,0.0,0.0,0.0,0.0,0.0,0.0,0.0,0.0,0.0,0.0,4.6328,4.7422,4.6833,4.6285,4.5963,4.5764,4.543,4.5036,4.4711,4.4389,0.0,0.0,0.0,0.0,0.0,0.0,0.0,0.0,0.0,0.0,0.0,0.0,0.0,0.0,0.0,0.0,0.0,0.0,0.0,0.0,0.0,0.0,0.0,0.0,0.0,0.0,0.0,0.0,3.3295,3.5148,3.7186,0.0,0.0,0.0,0.0,0.0,0.0,0.0,0.0,0.0,0.0,4.2798,4.2458,4.2578,4.2772,4.2772,4.2775,4.2774,4.2583,4.1907,4.1558,4.2102,0.0,0.0,0.0,0.0,0.0,0.0,0.0,0.0,0.0,0.0,0.0,0.0,0.0,0.0,0.0,0.0,0.0,0.0,0.0,0.0,0.0,0.0,0.0,0.0,0.0,0.0,0.0,0.0,0.0,0.0,0.0,0.0,0.0,0.0,0.0,0.0,0.0,0.0,0.0,0.0,0.0,0.0,0.0,0.0,0.0,0.0,0.0,0.0,0.0,0.0,0.0,0.0,0.0,4.5387,4.6901,4.6796,4.6605,4.6295,4.6124,4.5838,4.5544,4.5212,4.481,0.0,0.0,0.0,0.0,0.0,0.0,0.0,0.0,0.0,0.0,0.0,0.0,0.0,0.0,0.0,0.0,0.0,0.0,0.0,0.0,0.0,0.0,0.0,0.0,0.0,0.0,0.0,0.0,3.0785,3.2351,3.4063,0.0,0.0,0.0,0.0,0.0,0.0,0.0,0.0,0.0,0.0,4.1532,4.1102,4.1293,0.0,0.0,4.1562,4.1654,4.1595,4.091,4.0614,4.1233,4.1224,0.0,0.0,0.0,0.0,0.0,0.0,0.0,0.0,0.0,0.0,0.0,0.0,0.0,0.0,0.0,0.0,0.0,0.0,0.0,0.0,0.0,0.0,0.0,0.0,0.0,0.0,0.0,0.0,0.0,0.0,0.0,0.0,0.0,0.0,0.0,0.0,0.0,0.0,0.0,0.0,0.0,0.0,0.0,0.0,0.0,0.0,0.0,0.0,0.0,0.0,0.0,0.0,4.5371,4.6985,4.6936,4.6796,4.6664,4.6441,4.6176,4.5905,4.569,4.5247,0.0,0.0,0.0,0.0,0.0,0.0,0.0,0.0,0.0,0.0,0.0,0.0,0.0,0.0,0.0,0.0,0.0,0.0,0.0,0.0,0.0,0.0,0.0,0.0,0.0,0.0,0.0,0.0,0.0,0.0,0.0,0.0,0.0,0.0,0.0,0.0,0.0,0.0,0.0,0.0,0.0,3.9455,3.8926,3.9583,4.0117,0.0,4.0916,4.1484,4.1318,4.0756,4.0323,4.0115,0.0,0.0,0.0,0.0,0.0,0.0,0.0,0.0,0.0,0.0,0.0,0.0,0.0,0.0,0.0,0.0,0.0,0.0,0.0,0.0,0.0,0.0,0.0,0.0,0.0,0.0,0.0,0.0,0.0,0.0,0.0,0.0,0.0,0.0,0.0,0.0,0.0,0.0,0.0,0.0,0.0,0.0,0.0,0.0,0.0,0.0,0.0,0.0,0.0,0.0,0.0,0.0,0.0,0.0,4.695,4.7002,4.6936,4.6815,4.6757,4.6536,4.6162,4.6037,0.0,0.0,0.0,0.0,0.0,0.0,0.0,0.0,0.0,0.0,0.0,0.0,0.0,0.0,0.0,0.0,0.0,0.0,0.0,0.0,0.0,0.0,0.0,0.0,0.0,0.0,0.0,2.6583,0.0,0.0,0.0,0.0,0.0,0.0,0.0,0.0,0.0,0.0,0.0,0.0,0.0,0.0,3.9368,3.8939,3.8822,3.8715,0.0,0.0,3.8627,3.8312,3.7854,3.7801,0.0,0.0,0.0,0.0,0.0,0.0,0.0,0.0,0.0,0.0,0.0,0.0,0.0,0.0,0.0,0.0,0.0,0.0,0.0,0.0,0.0,0.0,0.0,0.0,0.0,0.0,0.0,0.0,0.0,0.0,0.0,0.0,0.0,0.0,0.0,0.0,0.0,0.0,0.0,0.0,0.0,0.0,0.0,0.0,0.0,0.0,0.0,0.0,0.0,0.0,0.0,0.0,0.0,0.0,4.3576,4.5951,4.67,4.6993,4.6946,4.6863,4.6703,4.6441,4.6232,4.5919,0.0,0.0,0.0,0.0,0.0,0.0,0.0,0.0,0.0,0.0,0.0,0.0,0.0,0.0,0.0,0.0,0.0,0.0,0.0,0.0,0.0,0.0,0.0,0.0,0.0,0.0,0.0,0.0,0.0,0.0,0.0,0.0,0.0,0.0,0.0,0.0,0.0,0.0,0.0,0.0,0.0,0.0,3.885,3.8547,0.0,0.0,0.0,3.7492,3.7166,0.0,0.0,0.0,0.0,0.0,0.0,0.0,0.0,0.0,0.0,0.0,0.0,0.0,0.0,0.0,0.0,0.0,0.0,0.0,0.0,0.0,0.0,0.0,0.0,0.0,0.0,0.0,0.0,0.0,0.0,0.0,0.0,0.0,0.0,0.0,0.0,0.0,0.0,0.0,0.0,0.0,0.0,0.0,0.0,0.0,0.0,0.0,0.0,0.0,0.0,0.0,0.0,0.0,0.0,0.0,0.0,0.0,4.4702,4.6245,4.703,4.7057,4.6946,4.6796,4.6654,4.6365,4.5988,0.0,0.0,0.0,0.0,0.0,0.0,0.0,0.0,0.0,0.0,0.0,0.0,0.0,0.0,0.0,0.0,0.0,0.0,0.0,0.0,0.0,0.0,0.0,0.0,0.0,0.0,0.0,0.0,0.0,0.0,0.0,0.0,0.0,0.0,0.0,0.0,0.0,0.0,0.0,0.0,0.0,3.7783,3.8525,3.843,3.8221,0.0,0.0,3.7412,3.7057,3.6513,0.0,0.0,0.0,0.0,0.0,0.0,0.0,0.0,0.0,0.0,0.0,0.0,0.0,0.0,0.0,0.0,0.0,0.0,0.0,0.0,0.0,0.0,0.0,0.0,0.0,0.0,0.0,0.0,0.0,0.0,0.0,0.0,0.0,0.0,0.0,0.0,0.0,0.0,0.0,0.0,0.0,0.0,0.0,0.0,0.0,0.0,0.0,0.0,0.0,0.0,0.0,0.0,0.0,0.0,0.0,0.0,4.4683,4.6273,4.703,4.703,4.7012,4.6917,4.6654,4.6401,4.5435,0.0,0.0,0.0,0.0,0.0,0.0,0.0,0.0,0.0,0.0,0.0,0.0,0.0,0.0,0.0,0.0,0.0,0.0,0.0,0.0,0.0,0.0,0.0,0.0,0.0,0.0,0.0,0.0,0.0,0.0,0.0,0.0,0.0,0.0,0.0,0.0,0.0,0.0,0.0,0.0,0.0,3.7342,3.7327,3.7874,0.0,0.0,0.0,0.0,3.6633,3.5443,0.0,0.0,0.0,0.0,0.0,0.0,0.0,0.0,0.0,0.0,0.0,0.0,0.0,0.0,0.0,0.0,0.0,0.0,0.0,0.0,0.0,0.0,0.0,0.0,0.0,0.0,0.0,0.0,0.0,0.0,0.0,0.0,0.0,0.0,0.0,0.0,0.0,0.0,0.0,0.0,0.0,0.0,0.0,0.0,0.0,0.0,0.0,0.0,0.0,0.0,0.0,0.0,0.0,0.0,0.0,0.0,4.3653,4.5889,4.703,4.703,4.703,4.6927,4.6664,4.6376,4.5291,0.0,0.0,0.0,0.0,0.0,0.0,0.0,0.0,0.0,0.0,0.0,0.0,0.0,0.0,0.0,0.0,0.0,0.0,0.0,0.0,0.0,0.0,0.0,0.0,0.0,0.0,0.0,0.0,0.0,0.0,0.0,0.0,0.0,0.0,0.0,0.0,0.0,0.0,0.0,0.0,3.4996,3.5597,3.5969,0.0,0.0,0.0,0.0,0.0,0.0,3.4209,3.3141,0.0,0.0,0.0,0.0,0.0,0.0,0.0,0.0,0.0,0.0,0.0,0.0,0.0,0.0,0.0,0.0,0.0,0.0,0.0,0.0,0.0,0.0,0.0,0.0,0.0,0.0,0.0,0.0,0.0,0.0,0.0,0.0,0.0,0.0,0.0,0.0,0.0,0.0,0.0,0.0,0.0,0.0,0.0,0.0,0.0,0.0,0.0,0.0,0.0,0.0,0.0,0.0,0.0,0.0,0.0,4.2414,4.546,4.703,4.703,4.703,4.6936,4.6654,4.6148,4.5022,4.3042,0.0,0.0,0.0,0.0,0.0,0.0,0.0,0.0,0.0,0.0,0.0,0.0,0.0,0.0,0.0,0.0,0.0,0.0,0.0,0.0,0.0,0.0,0.0,0.0,0.0,0.0,0.0,0.0,0.0,0.0,0.0,0.0,0.0,0.0,0.0,0.0,0.0,0.0,0.0,3.3601,3.3722,0.0,0.0,0.0,0.0,0.0,0.0,0.0,0.0,3.1509,0.0,0.0,0.0,0.0,0.0,0.0,0.0,0.0,0.0,0.0,0.0,0.0,0.0,0.0,0.0,0.0,0.0,0.0,0.0,0.0,0.0,0.0,0.0,0.0,0.0,0.0,0.0,0.0,0.0,0.0,0.0,0.0,0.0,0.0,0.0,0.0,0.0,0.0,0.0,0.0,0.0,0.0,0.0,0.0,0.0,0.0,0.0,0.0,0.0,0.0,0.0,0.0,0.0,0.0,0.0,0.0,4.5486,4.7024,4.703,4.703,4.6936,4.6628,4.5247,4.3579,4.1753,0.0,0.0,0.0,0.0,0.0,0.0,0.0,0.0,0.0,0.0,0.0,0.0,0.0,0.0,0.0,0.0,0.0,0.0,0.0,0.0,0.0,0.0,0.0,0.0,0.0,0.0,0.0,0.0,0.0,0.0,0.0,0.0,0.0,0.0,0.0,0.0,0.0,0.0,3.1475,3.269,0.0,0.0,0.0,0.0,0.0,0.0,0.0,0.0,3.1206,0.0,0.0,0.0,0.0,0.0,0.0,0.0,0.0,0.0,0.0,0.0,0.0,0.0,0.0,0.0,0.0,0.0,0.0,0.0,0.0,0.0,0.0,0.0,0.0,0.0,0.0,0.0,0.0,0.0,0.0,0.0,0.0,0.0,0.0,0.0,0.0,0.0,0.0,0.0,0.0,0.0,0.0,0.0,0.0,0.0,0.0,0.0,0.0,0.0,0.0,0.0,0.0,0.0,0.0,0.0,0.0,0.0,0.0,4.6211,4.6995,4.703,4.6955,4.6661,4.4296,4.2529,0.0,0.0,0.0,0.0,0.0,0.0,0.0,0.0,0.0,0.0,0.0,0.0,0.0,0.0,0.0,0.0,0.0,0.0,0.0,0.0,0.0,0.0,0.0,0.0,0.0,0.0,0.0,0.0,0.0,0.0,0.0,0.0,0.0,0.0,0.0,0.0,0.0,0.0,0.0,0.0,0.0,0.0,0.0,0.0,0.0,0.0,0.0,0.0,0.0,0.0,0.0,0.0,0.0,0.0,0.0,0.0,0.0,0.0,0.0,0.0,0.0,0.0,0.0,0.0,0.0,0.0,0.0,0.0,0.0,0.0,0.0,0.0,0.0,0.0,0.0,0.0,0.0,0.0,0.0,0.0,0.0,0.0,0.0,0.0,0.0,0.0,0.0,0.0,0.0,0.0,0.0,0.0,0.0,0.0,0.0,0.0,0.0,0.0,0.0,0.0,0.0,0.0,0.0,0.0,0.0,0.0,0.0,0.0,4.5505,4.6995,4.703,4.6974,4.6834,4.3686,4.1895,0.0,0.0,0.0,0.0,0.0,0.0,0.0,0.0,0.0,0.0,0.0,0.0,0.0,0.0,0.0,0.0,0.0,0.0,0.0,0.0,0.0,0.0,0.0,0.0,0.0,0.0,0.0,0.0,0.0,0.0,0.0,0.0,0.0,0.0,0.0,0.0,0.0,0.0,0.0,0.0,0.0,0.0,0.0,0.0,0.0,0.0,0.0,0.0,3.0238,0.0,0.0,0.0,0.0,0.0,0.0,0.0,0.0,0.0,0.0,0.0,0.0,0.0,0.0,0.0,0.0,0.0,0.0,0.0,0.0,0.0,0.0,0.0,0.0,0.0,0.0,0.0,0.0,0.0,0.0,0.0,0.0,0.0,0.0,0.0,0.0,0.0,0.0,0.0,0.0,0.0,0.0,0.0,0.0,0.0,0.0,0.0,0.0,0.0,0.0,0.0,0.0,0.0,0.0,0.0,0.0,0.0,0.0,0.0,4.546,4.6995,4.703,4.6974,4.6763,4.3686,4.1966,0.0,0.0,0.0,0.0,0.0,0.0,0.0,0.0,0.0,0.0,0.0,0.0,0.0,0.0,0.0,0.0,0.0,0.0,0.0,0.0,0.0,0.0,0.0,0.0,0.0,0.0,0.0,0.0,0.0,0.0,0.0,0.0,0.0,0.0,0.0,0.0,0.0,0.0,0.0,0.0,0.0,0.0,0.0,0.0,0.0,0.0,0.0,0.0,0.0,0.0,0.0,0.0,0.0,0.0,0.0,0.0,0.0,0.0,0.0,0.0,0.0,0.0,0.0,0.0,0.0,0.0,0.0,0.0,0.0,0.0,0.0,0.0,0.0,0.0,0.0,0.0,0.0,0.0,0.0,0.0,0.0,0.0,0.0,0.0,0.0,0.0,0.0,0.0,0.0,0.0,0.0,0.0,0.0,0.0,0.0,0.0,0.0,0.0,0.0,0.0,0.0,0.0,0.0,0.0,0.0,0.0,0.0,0.0,4.4128,4.5665,4.6557,4.6574,4.5602,4.3332,4.122,0.0,0.0,0.0,0.0,0.0,0.0,0.0,0.0,0.0,0.0,0.0,0.0,0.0,0.0,0.0,0.0,0.0,0.0,0.0,0.0,0.0,0.0,0.0,0.0,0.0,0.0,0.0,0.0,0.0,0.0,0.0,0.0,0.0,0.0,0.0,0.0,0.0,0.0,0.0,0.0,0.0,0.0,0.0,0.0,0.0,0.0,0.0,0.0,0.0,0.0,0.0,0.0,0.0,0.0,0.0,0.0,0.0,0.0,0.0,0.0,0.0,0.0,0.0,0.0,0.0,0.0,0.0,0.0,0.0,0.0,0.0,0.0,0.0,0.0,0.0,0.0,0.0,0.0,0.0,0.0,0.0,0.0,0.0,0.0,0.0,0.0,0.0,0.0,0.0,0.0,0.0,0.0,0.0,0.0,0.0,0.0,0.0,0.0,0.0,0.0,0.0,0.0,0.0,0.0,0.0,0.0,0.0,0.0,0.0,4.4622,4.5416,4.5273,4.4122,4.2441,4.025,0.0,0.0,0.0,0.0,0.0,0.0,0.0,0.0,0.0,0.0,0.0,0.0,0.0,0.0,0.0,0.0,0.0,0.0,0.0,0.0,0.0,0.0,0.0,0.0,0.0,0.0,0.0,0.0,0.0,0.0,0.0,0.0,0.0,0.0,0.0,0.0,0.0,0.0,0.0,0.0,0.0,0.0,0.0,0.0,0.0,0.0,0.0,0.0,0.0,0.0,0.0,0.0,0.0,0.0,0.0,0.0,0.0,0.0,0.0,0.0,0.0,0.0,0.0,0.0,0.0,0.0,0.0,0.0,0.0,0.0,0.0,0.0,0.0,0.0,0.0,0.0,0.0,0.0,0.0,0.0,0.0,0.0,0.0,0.0,0.0,0.0,0.0,0.0,0.0,0.0,0.0,0.0,0.0,0.0,0.0,0.0,0.0,0.0,0.0,0.0,0.0,0.0,0.0,0.0,0.0,0.0,0.0,0.0,0.0,4.4693,4.3355,4.2587,4.2471,4.0863,3.9185,0.0,0.0,0.0,0.0,0.0,0.0,0.0,0.0,0.0,0.0,0.0,0.0,0.0,0.0,0.0,0.0,0.0,0.0,0.0,0.0,0.0,0.0,0.0,0.0,0.0,0.0,0.0,0.0,0.0,0.0,0.0,0.0,0.0,0.0,0.0,0.0,0.0,0.0,0.0,0.0,0.0,0.0,0.0,0.0,0.0,0.0,0.0,0.0,0.0,0.0,0.0,0.0,0.0,0.0,0.0,0.0,0.0,0.0,0.0,0.0,0.0,0.0,0.0,0.0,0.0,0.0,0.0,0.0,0.0,0.0,0.0,0.0,0.0,0.0,0.0,0.0,0.0,0.0,0.0,0.0,0.0,0.0,0.0,0.0,0.0,0.0,0.0,0.0,0.0,0.0,0.0,0.0,0.0,0.0,0.0,0.0,0.0,0.0,0.0,0.0,0.0,0.0,0.0,0.0,0.0,0.0,0.0,0.0,0.0,4.0143,4.0556,4.0805,4.0805,3.9228,3.7201,3.4686,0.0,0.0,0.0,0.0,0.0,0.0,0.0,0.0,0.0,0.0,0.0,0.0,0.0,0.0,0.0,0.0,0.0,0.0,0.0,0.0,0.0,0.0,0.0,0.0,0.0,0.0,0.0,0.0,0.0,0.0,0.0,0.0,0.0,0.0,0.0,0.0,0.0,0.0,0.0,0.0,0.0,0.0,0.0,0.0,0.0,0.0,0.0,0.0,0.0,0.0,0.0,0.0,0.0,0.0,0.0,0.0,0.0,0.0,0.0,0.0,0.0,0.0,0.0,0.0,0.0,0.0,0.0,0.0,0.0,0.0,0.0,0.0,0.0,0.0,0.0,0.0,0.0,0.0,0.0,0.0,0.0,0.0,0.0,0.0,0.0,0.0,0.0,0.0,0.0,0.0,0.0,0.0,0.0,0.0,0.0,0.0,0.0,0.0,0.0,0.0,0.0,0.0,0.0,0.0,0.0,0.0,0.0,0.0,3.6125,3.7139,3.768,3.7651,3.6632,3.4835,0.0,0.0,0.0,0.0,0.0,0.0,0.0,0.0,0.0,0.0,0.0,0.0,0.0,0.0,0.0,0.0,0.0,0.0,0.0,0.0,0.0,0.0,0.0,0.0,0.0,0.0,0.0,0.0,0.0,0.0,0.0,0.0,0.0,0.0,0.0,0.0,0.0,0.0,0.0,0.0,0.0,0.0,0.0,0.0,0.0,0.0,0.0,0.0,0.0,0.0,0.0,0.0,0.0,0.0,0.0,0.0,0.0,0.0,0.0,0.0,0.0,0.0,0.0,0.0,0.0,0.0,0.0,0.0,0.0,0.0,0.0,0.0,0.0,0.0,0.0,0.0,0.0,0.0,0.0,0.0,0.0,0.0,0.0,0.0,0.0,0.0,0.0,0.0,0.0,0.0,0.0,0.0,0.0,0.0,0.0,0.0,0.0,0.0,0.0,0.0,0.0,0.0,0.0,0.0,0.0,0.0,0.0,0.0,3.1828,3.3051,3.3085,3.3224,3.2974,3.3003,3.2196,0.0,0.0,0.0,0.0,0.0,0.0,0.0,0.0,0.0,0.0,0.0,0.0,0.0,0.0,0.0,0.0,0.0,0.0,0.0,0.0,0.0,0.0,0.0,0.0,0.0,0.0,0.0,0.0,0.0,0.0,0.0,0.0,0.0,0.0,0.0,0.0,0.0,0.0,0.0,0.0,0.0,0.0,0.0,0.0,0.0,0.0,0.0,0.0,0.0,0.0,0.0,0.0,0.0,0.0,0.0,0.0,0.0,0.0,0.0,0.0,0.0,0.0,0.0,0.0,0.0,0.0,0.0,0.0,0.0,0.0,0.0,0.0,0.0,0.0,0.0,0.0,0.0,0.0,0.0,0.0,0.0,0.0,0.0,0.0,0.0,0.0,0.0,0.0,0.0,0.0,0.0,0.0,0.0,0.0,0.0,0.0,0.0,0.0,0.0,0.0,0.0,0.0,0.0,0.0,0.0,0.0,0.0,0.0,0.0,3.1439,0.0,3.2867,0.0,3.1852,3.1032,0.0,0.0,0.0,0.0,0.0,0.0,0.0,0.0,0.0,0.0,0.0,0.0,0.0,0.0,0.0,0.0,0.0,0.0,0.0,0.0,0.0,0.0,0.0,0.0,0.0,0.0,0.0,0.0,0.0,0.0,0.0,0.0,0.0,0.0,0.0,0.0,0.0,0.0,0.0,0.0,0.0,0.0,0.0,0.0,0.0,0.0,0.0,0.0,0.0,0.0,0.0,0.0,0.0,0.0,0.0,0.0,0.0,0.0,0.0,0.0,0.0,0.0,0.0,0.0,0.0,0.0,0.0,0.0,0.0,0.0,0.0,0.0,0.0,0.0,0.0,0.0,0.0,0.0,0.0,0.0,0.0,0.0,0.0,0.0,0.0,0.0,0.0,0.0,0.0,0.0,0.0,0.0,0.0,0.0,0.0,0.0,0.0,0.0,0.0,0.0,0.0,0.0,0.0,0.0,0.0,0.0,0.0,0.0,0.0,2.9883,3.0771,3.1241,3.112,3.0212,2.9682,0.0,0.0,0.0,0.0,0.0,0.0,0.0,0.0,0.0,0.0,0.0,0.0,0.0,0.0,0.0,0.0,0.0,0.0,0.0,0.0,0.0,0.0,0.0,0.0,0.0,0.0,0.0,0.0,0.0,0.0,0.0,0.0,0.0,0.0,0.0,0.0,0.0,0.0,0.0,0.0,0.0,0.0,0.0,0.0,0.0,0.0,0.0,0.0,0.0,0.0,0.0,0.0,0.0,0.0,0.0,0.0,0.0,0.0,0.0,0.0,0.0,0.0,0.0,0.0,0.0,0.0,0.0,0.0,0.0,0.0,0.0,0.0,0.0,0.0,0.0,0.0,0.0,0.0,0.0,0.0,0.0,0.0,0.0,0.0,0.0,0.0,0.0,0.0,0.0,0.0,0.0,0.0,0.0,0.0,0.0,0.0,0.0,0.0,0.0,0.0,0.0,0.0,0.0,0.0,0.0,0.0,0.0,0.0,0.0,0.0,2.8432,2.8336,2.8274,2.8197,2.8197,0.0,0.0,0.0,0.0,0.0,0.0,0.0,0.0,0.0,0.0,0.0,0.0,0.0,0.0,0.0,0.0,0.0,0.0,0.0,0.0,0.0,0.0,0.0,0.0,0.0,0.0,0.0,0.0,0.0,0.0,0.0,0.0,0.0,0.0,0.0,0.0,0.0,0.0,0.0,0.0,0.0,0.0,0.0,0.0,0.0,0.0,0.0,0.0,0.0,0.0,0.0,0.0,0.0,0.0,0.0,0.0,0.0,0.0,0.0,0.0,0.0,0.0,0.0,0.0,0.0,0.0,0.0,0.0,0.0,0.0,0.0,0.0,0.0,0.0,0.0,0.0,0.0,0.0,0.0,0.0,0.0,0.0,0.0,0.0,0.0,0.0,0.0,0.0,0.0,0.0,0.0,0.0,0.0,0.0,0.0,0.0,0.0,0.0,0.0,0.0,0.0,0.0,0.0,0.0,0.0,0.0,0.0,0.0,0.0,0.0,2.8355,0.0,2.8173,2.8162,2.8192,2.8193,0.0,0.0,0.0,0.0,0.0,0.0,0.0,0.0,0.0,0.0,0.0,0.0,0.0,0.0,0.0,0.0,0.0,0.0,0.0,0.0,0.0,0.0,0.0,0.0,0.0,0.0,0.0,0.0,0.0,0.0,0.0,0.0,0.0,0.0,0.0,0.0,0.0,0.0,0.0,0.0,0.0,0.0,0.0,0.0,0.0,0.0,0.0,0.0,0.0,0.0,0.0,0.0,0.0,0.0,0.0,0.0,0.0,0.0,0.0,0.0,0.0,0.0,0.0,0.0,0.0,0.0,0.0,0.0,0.0,0.0,0.0,0.0,0.0,0.0,0.0,0.0,0.0,0.0,0.0,0.0,0.0,0.0,0.0,0.0,0.0,0.0,0.0,0.0,0.0,0.0,0.0,0.0,0.0,0.0,0.0,0.0,0.0,0.0,0.0,0.0,0.0,0.0,0.0,0.0,0.0,0.0,0.0,0.0,0.0,0.0,2.8262,2.818,2.818,2.8176,0.0,0.0,0.0,0.0,0.0,0.0,0.0,0.0,0.0,0.0,0.0,0.0,0.0,0.0,0.0,0.0,0.0,0.0,0.0,0.0,0.0,0.0,0.0,0.0,0.0,0.0,0.0,0.0,0.0,0.0,0.0,0.0,0.0,0.0,0.0,0.0,0.0,0.0,0.0,0.0,0.0,0.0,0.0,0.0,0.0,0.0,0.0,0.0,0.0,0.0,0.0,0.0,0.0,0.0,0.0,0.0,0.0,0.0,0.0,0.0,0.0,0.0,0.0,0.0,0.0,0.0,0.0,0.0,0.0,0.0,0.0,0.0,0.0,0.0,0.0,0.0,0.0,0.0,0.0,0.0,0.0,0.0,0.0,0.0,0.0,0.0,0.0,0.0,0.0,0.0,0.0,0.0,0.0,0.0,0.0,0.0,0.0,0.0,0.0,0.0,0.0,0.0,0.0,0.0,0.0,0.0,0.0,0.0,0.0,0.0,0.0,2.819,2.8182,2.8176,0.0,2.7888,0.0,0.0,0.0,0.0,0.0,0.0,0.0,0.0,0.0,0.0,0.0,0.0,0.0,0.0,0.0,0.0,0.0,0.0,0.0,0.0,0.0,0.0,0.0,0.0,0.0,0.0,0.0,0.0,0.0,0.0,0.0,0.0,0.0,0.0,0.0,0.0,0.0,0.0,0.0,0.0,0.0,0.0,0.0,0.0,0.0,0.0,0.0,0.0,0.0,0.0,0.0,0.0,0.0,0.0,0.0,0.0,0.0,0.0,0.0,0.0,0.0,0.0,0.0,0.0,0.0,0.0,0.0,0.0,0.0,0.0,0.0,0.0,0.0,0.0,0.0,0.0,0.0,0.0,0.0,0.0,0.0,0.0,0.0,0.0,0.0,0.0,0.0,0.0,0.0,0.0,0.0,0.0,0.0,0.0,0.0,0.0,0.0,0.0,0.0,0.0,0.0,0.0,0.0,0.0,0.0,0.0,0.0,0.0,0.0,0.0,0.0,0.0,2.8094,2.7971,2.7792,0.0,0.0,0.0,0.0,0.0,0.0,0.0,0.0,0.0,0.0,0.0,0.0,0.0,0.0,0.0,0.0,0.0,0.0,0.0,0.0,0.0,0.0,0.0,0.0,0.0,0.0,0.0,0.0,0.0,0.0,0.0,0.0,0.0,0.0,0.0,0.0,0.0,0.0,0.0,0.0,0.0,0.0,0.0,0.0,0.0,0.0,0.0,0.0,0.0,0.0,0.0,0.0,0.0,0.0,0.0,0.0,0.0,0.0,0.0,0.0,0.0,0.0,0.0,0.0,0.0,0.0,0.0,0.0,0.0,0.0,0.0,0.0,0.0,0.0,0.0,0.0,0.0,0.0,0.0,0.0,0.0,0.0,0.0,0.0,0.0,0.0,0.0,0.0,0.0,0.0,0.0,0.0,0.0,0.0,0.0,0.0,0.0,0.0,0.0,0.0,0.0,0.0,0.0,0.0,0.0,0.0,0.0,0.0,0.0,0.0,2.8184,2.8112,2.7965,2.781,2.7602,0.0,0.0,0.0,0.0,0.0,0.0,0.0,0.0,0.0,0.0,0.0,0.0,0.0,0.0,0.0,0.0,0.0,0.0,0.0,0.0,0.0,0.0,0.0,0.0,0.0,0.0,0.0,0.0,0.0,0.0,0.0,0.0,0.0,0.0,0.0,0.0,0.0,0.0,0.0,0.0,0.0,0.0,0.0,0.0,0.0,0.0,0.0,0.0,0.0,0.0,0.0,0.0,0.0,0.0,0.0,0.0,0.0,0.0,0.0,0.0,0.0,0.0,0.0,0.0,0.0,0.0,0.0,0.0,0.0,0.0,0.0,0.0,0.0,0.0,0.0,0.0,0.0,0.0,0.0,0.0,0.0,0.0,0.0,0.0,0.0,0.0,0.0,0.0,0.0,0.0,0.0,0.0,0.0,0.0,0.0,0.0,0.0,0.0,0.0,0.0,0.0,0.0,0.0,0.0,0.0,0.0,0.0,0.0,0.0,0.0,0.0,0.0,0.0,0.0,2.7401,0.0,0.0,0.0,0.0,0.0,0.0,0.0,0.0,0.0,0.0,0.0,0.0,0.0,0.0,0.0,0.0,0.0,0.0,0.0,0.0,0.0,0.0,0.0,0.0,0.0,0.0,0.0,0.0,0.0,0.0,0.0,0.0,0.0,0.0,0.0,0.0,0.0,0.0,0.0,0.0,0.0,0.0,0.0,0.0,0.0,0.0,0.0,0.0,0.0,0.0,0.0,0.0,0.0,0.0,0.0,0.0,0.0,0.0,0.0,0.0,0.0,0.0,0.0,0.0,0.0,0.0,0.0,0.0,0.0,0.0,0.0,0.0,0.0,0.0,0.0,0.0,0.0,0.0,0.0,0.0,0.0,0.0,0.0,0.0,0.0,0.0,0.0,0.0,0.0,0.0,0.0,0.0,0.0,0.0,0.0,0.0,0.0,0.0,0.0,0.0,0.0,0.0,0.0,0.0,0.0,0.0,0.0,0.0,0.0,0.0,0.0,0.0,0.0,0.0,0.0,0.0,0.0,0.0,0.0,0.0,0.0,0.0,0.0,0.0,0.0,0.0,0.0,0.0,0.0,0.0,0.0,0.0,0.0,0.0,0.0,0.0,0.0,0.0,0.0,0.0,0.0,0.0,0.0,0.0,0.0,0.0,0.0,0.0,0.0,0.0,0.0,0.0,0.0,0.0,0.0,0.0,0.0,0.0,0.0,0.0,0.0,0.0,0.0,0.0,0.0,0.0,0.0,0.0,0.0,0.0,0.0,0.0,0.0,0.0,0.0,0.0,0.0,0.0,0.0,0.0,0.0,0.0,0.0,0.0,0.0,0.0,0.0,0.0,0.0,0.0,0.0,0.0,0.0,0.0,0.0,0.0,0.0,0.0,0.0,0.0,0.0,0.0,0.0,0.0,0.0,0.0,0.0,0.0,0.0,0.0,0.0,0.0,0.0,0.0,0.0,0.0,0.0,0.0,0.0,0.0,0.0,0.0,0.0,0.0,0.0,0.0,0.0,0.0,0.0,0.0,0.0,0.0,0.0,0.0,0.0,0.0,0.0,0.0,0.0,0.0,0.0,0.0,0.0,0.0,0.0,0.0,0.0,0.0,0.0,0.0,0.0,0.0,0.0,0.0,0.0,0.0,0.0,0.0,0.0,0.0,0.0,0.0,0.0,0.0,0.0,0.0,0.0,0.0,0.0,0.0,0.0,0.0,0.0,0.0,0.0,0.0,0.0,0.0,0.0,0.0,0.0,0.0,0.0,0.0,0.0,0.0,0.0,0.0,0.0,0.0,0.0,0.0,0.0,0.0,0.0,0.0,0.0,0.0,0.0,0.0,0.0,0.0,0.0,0.0,0.0,0.0,0.0,0.0,0.0,0.0,0.0,0.0,0.0,0.0,0.0,0.0,0.0,0.0,0.0,0.0,0.0,0.0,0.0,0.0,0.0,0.0,0.0,0.0,0.0,0.0,0.0,0.0,0.0,0.0,0.0,0.0,0.0,0.0,0.0,0.0,0.0,0.0,0.0,0.0,0.0,0.0,0.0,0.0,0.0,0.0,0.0,0.0,0.0,0.0,0.0,0.0,0.0,0.0,0.0,0.0,0.0,0.0,0.0,0.0,0.0,0.0,0.0,0.0,0.0,0.0,0.0,0.0,0.0,0.0,0.0,0.0,0.0,0.0,0.0,0.0,0.0,0.0,0.0,0.0,0.0,0.0,0.0,0.0,0.0,0.0,0.0,0.0,0.0,0.0,0.0,0.0,0.0,0.0,0.0,0.0,0.0,0.0,0.0,0.0,0.0,0.0,0.0,0.0,0.0,0.0,0.0,0.0,0.0,0.0,0.0,0.0,0.0,0.0,0.0,0.0,0.0,0.0,0.0,0.0,0.0,0.0,0.0,0.0,0.0,0.0,0.0,0.0,0.0,0.0,0.0,0.0,0.0,0.0,0.0,0.0,0.0,0.0,0.0,0.0,0.0,0.0,0.0,0.0,0.0,0.0,0.0,0.0,0.0,0.0,0.0,0.0,0.0,0.0,0.0,0.0,0.0,0.0,0.0,0.0,0.0,0.0,0.0,0.0,0.0,0.0,0.0,0.0,0.0,0.0,0.0,0.0,0.0,0.0,0.0,0.0,0.0,0.0,0.0,0.0,0.0,0.0,0.0,0.0,0.0,0.0,0.0,0.0,0.0,0.0,0.0,0.0,0.0,0.0,0.0,0.0,0.0,0.0,0.0,0.0,0.0,0.0,0.0,0.0,0.0,0.0,0.0,0.0,0.0,0.0,0.0,0.0,0.0,0.0,0.0,0.0,0.0,0.0,0.0,0.0,0.0,0.0,0.0,0.0,0.0,0.0,0.0,0.0,0.0,0.0,0.0,0.0,0.0,0.0,0.0,0.0,0.0,0.0,0.0,0.0,0.0,0.0,0.0,0.0,0.0,0.0,0.0,0.0,0.0,0.0,0.0,0.0,0.0,0.0,0.0,0.0,0.0,0.0,0.0,0.0,0.0,0.0,0.0,0.0,0.0,0.0,0.0,0.0,0.0,0.0,0.0,0.0,0.0,0.0,0.0,0.0,0.0,0.0,0.0,0.0,0.0,0.0,0.0,0.0,0.0,0.0,0.0,0.0,0.0,0.0,0.0,0.0,0.0,0.0,0.0,0.0,0.0,0.0,0.0,0.0,0.0,0.0,0.0,0.0,0.0,0.0,0.0,0.0,0.0,0.0,0.0,0.0,0.0,0.0,0.0,0.0,0.0,0.0,0.0,0.0,0.0,0.0,0.0,0.0,0.0,0.0,0.0,0.0,0.0,0.0,0.0,0.0,0.0,0.0,0.0,0.0,0.0,0.0,0.0,0.0,0.0,0.0,0.0,0.0,0.0,0.0,0.0,0.0,0.0,0.0,0.0,0.0,0.0,0.0,0.0,0.0,0.0,0.0,0.0,0.0,0.0,0.0,0.0,0.0,0.0,0.0,0.0,0.0,0.0,0.0,0.0,0.0,0.0,0.0,0.0,0.0,0.0,0.0,0.0,0.0,0.0,0.0,0.0,0.0,0.0,0.0,0.0,0.0,0.0,0.0,0.0,0.0,0.0,0.0,0.0,0.0,0.0,0.0,0.0,0.0,0.0,0.0,0.0,0.0,0.0,0.0,0.0,0.0,0.0,0.0,0.0,0.0,0.0,0.0,0.0,0.0,0.0,0.0,0.0,0.0,0.0,0.0,0.0,0.0,0.0,0.0,0.0,0.0,0.0,0.0,0.0,0.0,0.0,0.0,0.0,0.0,0.0,0.0,0.0,0.0,0.0,0.0,0.0,0.0,0.0,0.0,0.0,0.0,0.0,0.0,0.0,0.0,0.0,0.0,0.0,0.0,0.0,0.0,0.0,0.0,0.0,0.0,0.0,0.0,0.0,0.0,0.0,0.0,0.0,0.0,0.0,0.0,0.0,0.0,0.0,0.0,0.0,0.0,0.0,0.0,0.0,0.0,0.0,0.0,0.0,0.0,0.0,0.0,0.0,0.0,0.0,0.0,0.0,0.0,0.0,0.0,0.0,0.0,0.0,0.0,0.0,0.0,0.0,0.0,0.0,0.0,0.0,0.0,0.0,0.0,0.0,0.0,0.0,0.0,0.0,0.0,0.0,0.0,0.0,0.0,0.0,0.0,0.0,0.0,0.0,0.0,0.0,0.0,0.0,0.0,0.0,0.0,0.0,0.0,0.0,0.0,0.0,0.0,0.0,0.0,0.0,0.0,0.0,0.0,0.0,0.0,0.0,0.0,0.0,0.0,0.0,0.0,0.0,0.0,0.0,0.0,0.0,0.0,0.0,0.0,0.0,0.0,0.0,0.0,0.0,0.0,0.0,0.0,0.0,0.0,0.0,0.0,0.0,0.0,0.0,0.0,0.0,0.0,0.0,0.0,0.0,0.0,0.0,0.0,0.0,0.0,0.0,0.0,0.0,0.0,0.0,0.0,0.0,0.0,0.0,0.0,0.0,0.0,0.0,0.0,0.0,0.0,0.0,0.0,0.0,0.0,0.0,0.0,0.0,0.0,0.0,0.0,0.0,0.0,0.0,0.0,0.0,0.0,0.0,0.0,0.0,0.0,0.0,0.0,0.0,0.0,0.0,0.0,0.0,0.0,0.0,0.0,0.0,0.0,0.0,0.0,0.0,0.0,0.0,0.0,0.0,0.0,0.0,0.0,0.0,0.0,0.0,0.0,0.0,0.0,0.0,0.0,0.0,0.0,0.0,0.0,0.0,0.0,0.0,0.0,0.0,0.0,0.0,0.0,0.0,0.0,0.0,0.0,0.0,0.0,0.0,0.0,0.0,0.0,0.0,0.0,0.0,0.0,0.0,0.0,0.0,0.0,0.0,0.0]}],[{"header":{"parameterUnit":"kt","parameterCategory":2,"dx":1,"dy":1,"la1":29.587661999999998,"la2":31.0,"lo1":-88.76705300000003,"lo2":-86.6583820000003,"nx":115,"ny":88,"refTime":"2022-09-29T12:00:00:Z","depth":0,"parameterNumber":2,"parameterNumberName":"V-component_of_WINDS"},"data":[5.9936,6.2773,6.4827,6.564,6.5689,6.5666,6.5715,6.568,6.5689,6.5676,6.5597,6.5423,6.5053,6.4688,6.4427,6.4279,6.4158,6.4234,6.4309,6.4338,6.4403,6.4334,6.4041,6.3604,6.2954,6.2207,6.1476,6.1086,6.0786,6.0654,6.0629,6.0629,6.0629,6.0629,6.0681,6.0728,6.0892,6.1175,6.1964,6.2714,6.2647,6.2344,6.2483,6.3245,6.4368,6.4885,6.5595,6.6683,6.6881,6.6296,6.4944,6.3686,6.2842,6.2276,6.2003,6.181,6.1784,6.1615,6.1502,6.1363,6.1335,6.1308,6.1308,6.1223,6.1223,6.1223,6.1223,6.1223,6.1223,6.1223,6.1223,6.1223,6.1223,6.1223,6.1223,6.1223,6.1223,6.1223,6.1223,6.1223,6.1223,6.1223,6.1223,6.1223,6.1223,6.1223,6.1223,6.1223,6.1223,6.1223,6.1223,6.1223,6.1223,6.1223,6.1223,6.1223,6.1223,6.1223,6.1223,6.1223,6.1223,6.1223,6.1223,6.1223,6.128,6.1308,6.128,6.1363,6.1363,6.1391,6.1279,6.1279,6.1448,6.1671,6.2003,5.8891,6.1022,6.4127,6.5531,6.5544,6.5627,6.5702,6.5689,6.5584,6.5531,6.5361,6.4647,6.4199,6.3879,6.3665,6.3554,6.3474,6.3474,6.349,6.3522,6.3554,6.3458,6.3267,6.2972,6.2517,6.189,6.1275,6.0904,6.0673,6.0667,6.0629,6.0629,6.0629,6.0629,6.0629,6.0629,6.0629,6.078,6.0966,6.1551,6.1118,6.057,6.041,6.0877,6.1863,6.2764,6.3884,6.4857,6.549,6.4885,6.403,6.2976,6.2249,6.1754,6.1476,6.142,6.1392,6.1336,6.1252,6.1223,6.1223,6.1223,6.1223,6.1223,6.1223,6.1223,6.1223,6.1223,6.1223,6.1223,6.1223,6.1223,6.1223,6.1223,6.1223,6.1223,6.1223,6.1223,6.1223,6.1223,6.1223,6.1223,6.1223,6.1223,6.1223,6.1223,6.1223,6.1223,6.1223,6.1223,6.1223,6.1223,6.1223,6.1223,6.1223,6.1223,6.1223,6.1223,6.1223,6.1223,6.1223,6.1223,6.1223,6.1223,6.1223,6.1223,6.1223,6.1223,6.1223,6.1279,6.1308,6.1448,6.1675,6.21,6.2233,5.6883,5.8871,6.2407,6.4405,6.5217,6.5459,6.5491,6.5464,6.5329,6.5003,6.4481,6.3752,6.3279,6.3067,6.2737,6.2568,6.25,6.2602,6.2636,6.2636,6.2653,6.2619,6.25,6.2327,6.1959,6.16,6.1053,6.0772,6.0634,6.0629,6.0629,6.0629,6.0629,6.0629,6.0629,6.0629,6.0629,6.061,6.0476,6.0388,5.9984,5.922,5.8695,5.8581,5.9434,6.0393,6.1564,6.267,6.3505,6.3661,6.3399,6.2547,6.1921,6.1477,6.1251,6.1223,6.1223,6.1223,6.1223,6.1223,6.1223,6.1223,6.1223,6.1223,6.1223,6.1223,6.1223,6.1223,6.1223,6.1223,6.1223,6.1223,6.1223,6.1223,6.1223,6.1223,6.1223,6.1223,6.1223,6.1223,6.1223,6.1223,6.1223,6.1223,6.1223,6.1223,6.1223,6.1223,6.1223,6.1223,6.1223,6.1223,6.1223,6.1223,6.1223,6.1223,6.1223,6.1223,6.1223,6.1223,6.1223,6.1223,6.1223,6.1223,6.1223,6.1223,6.1223,6.1223,6.1223,6.1281,6.145,6.1706,6.2302,6.2816,6.4362,5.5135,5.7157,6.0291,6.2884,6.4749,6.5088,6.5122,6.513,6.4754,6.4108,6.3469,6.287,6.2466,6.2311,6.198,6.1818,6.1778,6.1888,6.1818,6.1907,6.1944,6.1909,6.1834,6.1691,6.1455,6.1124,6.0951,6.0729,6.0648,6.0629,6.0629,6.0629,6.0629,6.0629,6.0629,6.0629,6.0572,6.0443,6.0081,5.9532,5.8902,5.8062,5.7307,5.7119,5.7505,5.8495,5.9244,6.0527,6.1793,6.251,6.2573,6.244,6.1839,6.1448,6.1251,6.1223,6.1223,6.1223,6.1223,6.1223,6.1223,6.1223,6.1223,6.1223,6.1223,6.1223,6.1223,6.1223,6.1223,6.1223,6.1223,6.1223,6.1223,6.1223,6.1223,6.1223,6.1223,6.1223,6.1223,6.1223,6.1223,6.1223,6.1223,6.1223,6.1223,6.1223,6.1223,6.1223,6.1223,6.1223,6.1223,6.1223,6.1223,6.1223,6.1223,6.1223,6.1223,6.1223,6.1223,6.1223,6.1223,6.1223,6.1223,6.1223,6.1252,6.1223,6.1223,6.131,6.1397,6.1396,6.1625,6.2405,6.3036,6.4859,6.6939,5.438,5.6167,5.7893,6.0812,6.3979,6.4437,6.4545,6.4472,6.3472,6.2871,6.2619,6.2101,6.1747,6.1621,6.1437,6.1286,6.1286,6.1305,6.1342,6.132,6.1363,6.1363,6.1286,6.1086,6.0997,6.0885,6.0767,6.0686,6.0648,6.0629,6.0629,6.0629,6.0629,6.0629,6.061,6.061,6.0418,6.0133,5.9475,5.8732,5.7956,5.7136,5.6374,5.5848,5.622,5.6938,5.7402,5.8692,6.0411,6.0807,6.1261,6.1919,6.1672,6.142,6.1251,6.1223,6.1223,6.1223,6.1223,6.1223,6.1223,6.1223,6.1223,6.1223,6.1223,6.1223,6.1223,6.1223,6.1223,6.1223,6.1223,6.1223,6.1223,6.1223,6.1223,6.1223,6.1223,6.1223,6.1223,6.1223,6.1223,6.1223,6.1223,6.1223,6.1223,6.1223,6.1223,6.1223,6.1223,6.1223,6.1223,6.1223,6.1223,6.1223,6.1223,6.1223,6.1223,6.1252,6.1223,6.1223,6.1223,6.1223,6.1223,6.1397,6.1571,6.1426,6.16,6.192,6.2123,6.2209,6.276,6.331,6.4996,6.7222,6.918,5.3268,5.4304,5.667,5.8757,6.0704,6.2835,6.3472,6.2969,6.2415,6.2084,6.182,6.144,6.115,6.109,6.0956,6.0876,6.0876,6.0928,6.0928,6.0895,6.0895,6.0928,6.0876,6.0767,6.0715,6.0711,6.0654,6.0629,6.0629,6.0629,6.0629,6.0629,6.0629,6.0629,6.0572,6.0457,6.0153,5.9568,5.8887,5.8041,5.718,5.6291,5.5544,5.4991,5.4871,5.5474,5.6104,5.7539,5.8918,5.9715,6.0859,6.1419,6.142,6.1335,6.1223,6.1223,6.1223,6.1223,6.1223,6.1223,6.1223,6.1223,6.1223,6.1223,6.1223,6.1223,6.1223,6.1223,6.1223,6.1223,6.1223,6.1223,6.1223,6.1223,6.1223,6.1223,6.1223,6.1223,6.1223,6.1223,6.1223,6.1223,6.1223,6.1223,6.1223,6.1223,6.1223,6.1223,6.1223,6.1223,6.1223,6.1223,6.1223,6.1223,6.1223,6.1223,6.131,6.1397,6.1455,6.1484,6.1223,6.1339,6.1716,6.1862,6.1978,6.2269,6.2617,6.2821,6.3169,6.3867,6.4421,6.5328,6.6915,6.9129,7.0857,5.2401,5.2891,5.5852,5.7388,5.8284,6.1277,6.2328,6.1767,6.1618,6.1422,6.1257,6.0923,6.0829,6.0772,6.0692,6.0667,6.0648,6.0629,6.0629,6.0648,6.0705,6.0648,6.0648,6.0667,6.0648,6.0648,6.0648,6.0629,6.0629,6.0629,6.0629,6.0629,6.0629,6.0629,6.0514,6.0283,5.9647,5.899,5.8221,5.7289,5.6336,5.5551,5.4943,5.4425,5.4264,5.4362,5.5093,5.6321,5.7548,5.8686,5.9942,6.099,6.1077,6.1223,6.1223,6.1223,6.1223,6.1223,6.1223,6.1223,6.1223,6.1223,6.1223,6.1223,6.1223,6.1223,6.1223,6.1223,6.1223,6.1223,6.1223,6.1223,6.1223,6.1223,6.1223,6.1223,6.1223,6.1223,6.1223,6.1223,6.1223,6.1223,6.1223,6.1223,6.1223,6.1223,6.1223,6.1223,6.1223,6.1223,6.1223,6.1223,6.1223,6.1223,6.1223,6.16,6.16,6.1716,6.1978,6.2123,6.2413,6.2646,6.2442,6.2733,6.3344,6.3634,6.3751,6.3954,6.4274,6.5003,6.5972,6.73,6.8724,7.0563,7.2333,5.2063,5.2721,5.5383,5.6816,5.7537,5.9827,6.1061,6.1194,6.0979,6.0871,6.0833,6.0692,6.0648,6.0648,6.0648,6.0629,6.0629,6.0629,6.0629,6.0629,6.0591,6.0629,6.0629,6.061,6.0591,6.061,6.0629,6.0629,6.0629,6.0629,6.0629,6.0629,6.0629,6.0553,6.0289,5.9918,5.9225,5.8368,5.7559,5.656,5.5652,5.4878,5.4401,5.4088,5.3845,5.3873,5.4319,5.5229,5.648,5.7672,5.8809,5.9973,6.0787,6.1193,6.1223,6.1223,6.1223,6.1223,6.1223,6.1223,6.1223,6.1223,6.1223,6.1223,6.1223,6.1223,6.1223,6.1223,6.1223,6.1223,6.1223,6.1223,6.1223,6.1223,6.1223,6.1223,6.1223,6.1223,6.1223,6.1223,6.1223,6.1223,6.1223,6.1223,6.1223,6.1455,6.1862,6.192,6.2385,6.2239,6.2269,6.221,6.2007,6.1658,6.1658,6.2152,6.2384,6.3082,6.3169,6.3285,6.4158,6.4565,6.4071,6.3954,6.4681,6.5089,6.5206,6.5322,6.5585,6.6263,6.7267,6.8574,7.0213,7.2026,7.3271,5.1965,5.236,5.5211,5.6571,5.7043,5.8613,5.9812,6.0473,6.0424,6.0314,6.0347,6.0385,6.0366,6.0424,6.052,6.0629,6.0629,6.0629,6.0629,6.061,6.0462,6.0462,6.0495,6.0457,6.0437,6.061,6.0629,6.061,6.0591,6.0629,6.061,6.0591,6.0629,6.0399,5.9957,5.9395,5.869,5.7796,5.6902,5.5965,5.5131,5.4497,5.4045,5.3821,5.3723,5.3621,5.4003,5.4934,5.6218,5.7469,5.869,5.9884,6.0787,6.1223,6.1223,6.1223,6.1223,6.1223,6.1223,6.1223,6.1223,6.1223,6.1223,6.1223,6.1223,6.1223,6.1223,6.1223,6.1223,6.1223,6.1223,6.1223,6.1223,6.1223,6.1223,6.1223,6.1223,6.1223,6.1223,6.1223,6.1223,6.1223,6.1223,6.1339,6.1746,6.2181,6.2617,6.3373,6.3983,6.4041,6.4129,6.41,6.3954,6.3605,6.3431,6.3314,6.3576,6.4303,6.4478,6.4478,6.5234,6.5874,6.5408,6.5118,6.5496,6.5904,6.6342,6.7017,6.7547,6.8173,6.8837,7.0096,7.1735,7.296,7.4032,5.1916,5.2114,5.4564,5.5917,5.6681,5.7816,5.9089,6.0042,6.0029,5.9911,5.9858,5.9977,6.0055,6.0133,6.0302,6.0418,6.0418,6.0437,6.036,6.0302,6.0166,6.0205,6.0114,6.0068,6.0127,6.0283,6.0418,6.0418,6.0437,6.0399,6.047,6.0437,6.0327,6.0107,5.9528,5.8846,5.8031,5.7114,5.6253,5.5412,5.4593,5.4136,5.3821,5.3645,5.3621,5.3621,5.3737,5.4261,5.5749,5.7379,5.7961,5.9419,6.0903,6.1223,6.1223,6.1223,6.1223,6.1223,6.1223,6.1223,6.1223,6.1223,6.1223,6.1223,6.1223,6.1223,6.1223,6.1223,6.1223,6.1223,6.1223,6.1223,6.1223,6.1223,6.1223,6.1223,6.1223,6.1223,6.1368,6.1397,6.131,6.1339,6.2094,6.2704,6.3198,6.3663,6.3867,6.4536,6.4943,6.5205,6.5438,6.5467,6.5467,6.5321,6.5059,6.4507,6.4623,6.5438,6.5757,6.5874,6.6252,6.6863,6.6746,6.6804,6.6688,6.663,6.733,6.8092,6.9073,6.996,7.0575,7.1617,7.2675,7.3672,7.4751,5.1867,5.2081,5.3494,5.4972,5.6403,5.7549,5.873,5.982,5.968,5.9407,5.9185,5.9467,5.96,5.968,5.9878,6.0029,6.0029,5.9977,5.9878,5.97,5.958,5.9447,5.9427,5.95,5.954,5.9712,5.9839,5.9957,6.0029,6.0029,6.0048,6.0016,5.9766,5.954,5.9164,5.8347,5.7342,5.6253,5.5558,5.4854,5.4209,5.3869,5.3723,5.3621,5.3621,5.3621,5.3621,5.397,5.5309,5.7029,5.7728,5.901,6.0845,6.1193,6.1223,6.1223,6.1223,6.1223,6.1223,6.1223,6.1223,6.1223,6.1223,6.1223,6.1223,6.1223,6.1223,6.1223,6.1223,6.1223,6.1223,6.1223,6.1223,6.1223,6.1223,6.1223,6.1223,6.1223,6.16,6.1775,6.163,6.1804,6.3053,6.4071,6.4536,6.5059,6.5147,6.535,6.567,6.5932,6.6194,6.6281,6.6339,6.6339,6.6397,6.5787,6.5787,6.6631,6.7213,6.7473,6.7851,6.791,6.82,6.8666,6.8375,6.7822,6.8375,6.8988,6.9398,6.9867,7.1175,7.2416,7.3421,7.4372,7.5372,5.1685,5.1948,5.3291,5.4713,5.5895,5.6132,5.7375,5.8944,5.8887,5.8494,5.8063,5.8535,5.8837,5.9042,5.9338,5.948,5.9407,5.9294,5.9181,5.903,5.8889,5.8775,5.8775,5.8795,5.8816,5.9132,5.9254,5.9314,5.9439,5.952,5.9407,5.9225,5.8919,5.8473,5.7914,5.7189,5.6358,5.5636,5.4996,5.4412,5.4093,5.3772,5.3621,5.3621,5.3621,5.3621,5.3621,5.3766,5.5047,5.6535,5.7786,5.8894,6.0262,6.1223,6.1223,6.1223,6.1223,6.1223,6.1223,6.1223,6.1223,6.1223,6.1223,6.1223,6.1223,6.1223,6.1223,6.1223,6.1223,6.1223,6.1223,6.1223,6.1223,6.1223,6.1223,6.1223,6.1223,6.1571,6.1891,6.2298,6.2763,6.3111,6.4187,6.4914,6.5757,6.6921,6.7008,6.7124,6.7124,6.7095,6.7241,6.7212,6.727,6.7502,6.7735,6.7444,6.7299,6.8026,6.8113,6.8608,6.8695,6.8753,6.8898,6.8986,6.8986,6.8986,6.9017,6.9049,6.9398,6.9928,7.1145,7.2445,7.3562,7.5054,7.6033,5.1366,5.1549,5.2174,5.3571,5.522,5.4976,5.6218,5.8051,5.7871,5.7398,5.7048,5.7441,5.7839,5.8168,5.8505,5.8598,5.8577,5.8441,5.8274,5.8115,5.7955,5.7827,5.7806,5.7806,5.7891,5.8084,5.8316,5.8462,5.8619,5.866,5.8598,5.8179,5.7698,5.7276,5.6947,5.6411,5.5713,5.5091,5.4527,5.4142,5.3923,5.3723,5.3621,5.3621,5.3621,5.3621,5.3621,5.3621,5.4901,5.6273,5.7204,5.8545,6.0028,6.0903,6.1164,6.1223,6.1223,6.1223,6.1223,6.1223,6.1223,6.1223,6.1223,6.1223,6.1223,6.1223,6.1223,6.1223,6.1223,6.1223,6.1223,6.1223,6.1223,6.1223,6.1223,6.1223,6.1455,6.2007,6.2414,6.2937,6.3518,6.442,6.5147,6.5846,6.727,6.8549,6.8811,6.8898,6.8637,6.852,6.8375,6.8317,6.8288,6.8433,6.8433,6.8666,6.8898,6.8898,6.884,6.8898,6.8869,6.8986,6.8986,6.8986,6.8986,6.8986,6.9017,6.908,6.9459,7.0051,7.1115,7.2472,7.4088,7.5697,7.6507,5.0873,5.0875,5.0415,5.189,5.4332,5.409,5.5242,5.7366,5.6738,5.6344,5.614,5.6366,5.6725,5.7123,5.7311,5.7419,5.7419,5.7376,5.7136,5.6947,5.6831,5.6719,5.6675,5.6719,5.68,5.6925,5.7158,5.7354,5.7484,5.758,5.7132,5.6607,5.6563,5.6329,5.6057,5.5759,5.5231,5.4575,5.4166,5.3869,5.3748,5.3645,5.3621,5.3621,5.3621,5.3621,5.3621,5.3621,5.4411,5.5724,5.6884,5.831,5.9592,6.0612,6.1193,6.1223,6.1223,6.1223,6.1223,6.1223,6.1223,6.1223,6.1223,6.1223,6.1223,6.1223,6.1223,6.1223,6.1223,6.1223,6.1223,6.1223,6.1223,6.1223,6.1223,6.1397,6.1949,6.2472,6.3024,6.3576,6.4536,6.5728,6.6631,6.7066,6.8288,6.8724,6.8986,6.8986,6.8986,6.8986,6.8986,6.8986,6.8986,6.8986,6.8986,6.8986,6.8986,6.8986,6.8986,6.8986,6.8986,6.8986,6.8986,6.8986,6.8986,6.8986,6.9017,6.9428,6.9834,7.0297,7.1265,7.276,7.4336,7.5829,7.6771,4.9502,4.9069,4.915,5.0847,5.3463,5.3069,5.425,5.6311,5.5835,5.5402,5.5231,5.5255,5.5505,5.5836,5.6102,5.6291,5.6237,5.6011,5.5859,5.5752,5.5674,5.5611,5.5611,5.5611,5.572,5.582,5.6163,5.6321,5.6299,5.6148,5.5904,5.5542,5.5588,5.5425,5.5238,5.5044,5.4837,5.4171,5.3869,5.3723,5.3674,5.3621,5.3621,5.3621,5.3621,5.3621,5.3621,5.3621,5.4236,5.5491,5.6768,5.8019,5.9156,6.0408,6.1164,6.1223,6.1223,6.1223,6.1223,6.1223,6.1223,6.1223,6.1223,6.1223,6.1223,6.1223,6.1223,6.1223,6.1223,6.1223,6.1223,6.1223,6.1223,6.1223,6.1252,6.1891,6.2501,6.3024,6.3576,6.4681,6.6049,6.7213,6.7706,6.823,6.8579,6.8898,6.8986,6.8986,6.8986,6.8986,6.8986,6.8986,6.8986,6.8986,6.8986,6.8986,6.8986,6.8986,6.8986,6.8986,6.8986,6.8986,6.9017,6.9017,6.8986,6.9143,6.9459,6.9865,7.0297,7.1145,7.2123,7.3359,7.4587,7.5861,7.6905,4.807,4.7776,4.81,4.9826,5.2149,5.2028,5.3307,5.5143,5.4955,5.4628,5.4479,5.4479,5.4593,5.4872,5.5195,5.5358,5.5335,5.5242,5.5108,5.4996,5.4961,5.489,5.4843,5.4867,5.489,5.5097,5.5231,5.5442,5.5208,5.4979,5.4896,5.4867,5.4873,5.4694,5.4527,5.4449,5.4238,5.3972,5.3723,5.3621,5.3621,5.3621,5.3621,5.3621,5.3621,5.3621,5.3621,5.365,5.4115,5.4789,5.668,5.79,5.8719,6.0118,6.1223,6.1223,6.1223,6.1223,6.1223,6.1223,6.1223,6.1223,6.1223,6.1223,6.1223,6.1223,6.1223,6.1223,6.1223,6.1223,6.1223,6.1223,6.1223,6.1223,6.1223,6.192,6.2733,6.3402,6.4565,6.6106,6.7533,6.7997,6.852,6.8724,6.8811,6.8986,6.8986,6.8986,6.8986,6.8986,6.8986,6.8986,6.8986,6.8986,6.8986,6.8986,6.8986,6.8986,6.8986,6.8986,6.8986,6.9049,6.9114,6.9114,6.924,6.9584,6.9956,7.057,7.1384,7.221,7.3048,7.4198,7.5367,7.6481,7.7184,4.6784,4.6854,4.734,4.8878,5.0914,5.1057,5.2391,5.4516,5.4262,5.4025,5.402,5.405,5.402,5.4136,5.4521,5.467,5.467,5.4617,5.4521,5.4383,5.4364,5.4335,5.434,5.4316,5.4335,5.4407,5.4646,5.4431,5.4257,5.4335,5.4316,5.4316,5.4316,5.4214,5.404,5.404,5.3869,5.3699,5.3621,5.3621,5.3621,5.3621,5.3621,5.3621,5.3621,5.3621,5.3621,5.365,5.3708,5.4062,5.6182,5.7408,5.7931,5.9855,6.0961,6.1223,6.1223,6.1223,6.1223,6.1223,6.1223,6.1223,6.1223,6.1223,6.1223,6.1223,6.1223,6.1223,6.1223,6.1223,6.1223,6.1223,6.1223,6.1223,6.1281,6.1949,6.3285,6.4332,6.5554,6.7039,6.8084,6.8695,6.8925,6.8986,6.8986,6.8986,6.8986,6.8986,6.8986,6.8986,6.8986,6.8986,6.8986,6.8986,6.8986,6.8986,6.8986,6.8986,6.8986,6.8986,6.8986,6.9017,6.9114,6.9367,6.9649,6.9928,7.0723,7.1623,7.2503,7.3362,7.4254,7.5233,7.6158,7.6782,7.7511,4.6373,4.6394,4.6691,4.8334,5.038,5.0445,5.1833,5.3789,5.3869,5.3748,5.3723,5.3752,5.3752,5.3748,5.3845,5.3918,5.3894,5.3918,5.3918,5.3845,5.3845,5.3821,5.3826,5.3826,5.3845,5.3918,5.4088,5.4045,5.3796,5.3821,5.3821,5.3899,5.3821,5.3748,5.3772,5.3748,5.3723,5.365,5.3621,5.3621,5.3621,5.3621,5.3621,5.3621,5.3621,5.3621,5.3621,5.3621,5.3621,5.4319,5.5895,5.7553,5.7931,5.9855,6.1136,6.1223,6.1223,6.1223,6.1223,6.1223,6.1223,6.1223,6.1223,6.1223,6.1223,6.1223,6.1223,6.1223,6.1223,6.1223,6.1223,6.1223,6.1223,6.1223,6.1368,6.2007,6.3809,6.5059,6.6136,6.7561,6.852,6.8986,6.8986,6.8986,6.8986,6.8986,6.8986,6.8986,6.8986,6.8986,6.8986,6.8986,6.8986,6.8986,6.8986,6.8986,6.8986,6.8986,6.8986,6.8986,6.8986,6.8986,6.9242,6.9494,6.9867,7.0784,7.1771,7.265,7.37,7.4669,7.5505,7.6164,7.6655,7.7245,7.7677,4.6061,4.6103,4.6186,4.7773,4.986,5.0018,5.1461,5.3646,5.3723,5.3621,5.3621,5.3621,5.3621,5.3621,5.3621,5.3621,5.3645,5.3621,5.3621,5.3621,5.3621,5.3621,5.3674,5.365,5.3621,5.3674,5.3748,5.3801,5.3674,5.3621,5.3645,5.3621,5.3621,5.3621,5.3621,5.3621,5.365,5.365,5.3621,5.3621,5.3621,5.3621,5.3621,5.3621,5.3621,5.3621,5.3621,5.3621,5.3621,5.4115,5.6124,5.7233,5.8252,5.9623,6.1223,6.1223,6.1223,6.1223,6.1223,6.1223,6.1223,6.1223,6.1223,6.1223,6.1223,6.1223,6.1223,6.1223,6.1223,6.1223,6.1223,6.1223,6.1223,6.1223,6.1252,6.2501,6.4274,6.4943,6.6572,6.8433,6.8869,6.8986,6.8986,6.8986,6.8986,6.8986,6.8986,6.8986,6.8986,6.8986,6.8986,6.8986,6.8986,6.8986,6.8986,6.8986,6.8986,6.8986,6.8986,6.8986,6.8986,6.8986,6.9208,6.9711,7.0693,7.1592,7.2588,7.3731,7.4914,7.6039,7.6455,7.684,7.7253,7.7528,7.7719,4.5759,4.5809,4.578,4.7268,4.9444,4.9625,5.1098,5.3266,5.3502,5.3498,5.3498,5.3498,5.3502,5.361,5.3581,5.3552,5.3576,5.3625,5.3621,5.3621,5.3552,5.3601,5.3601,5.3576,5.3482,5.3531,5.3581,5.3605,5.3576,5.3625,5.3621,5.3621,5.3621,5.3621,5.3621,5.3621,5.3621,5.3621,5.3621,5.3621,5.3621,5.3621,5.3621,5.3621,5.3621,5.3621,5.3621,5.3621,5.3621,5.3883,5.6157,5.7291,5.8019,5.9592,6.0787,6.1135,6.1223,6.1223,6.1223,6.1223,6.1223,6.1223,6.1223,6.1223,6.1223,6.1223,6.1223,6.1223,6.1223,6.1223,6.1223,6.1223,6.1223,6.1223,6.1426,6.2298,6.4391,6.5293,6.6137,6.8026,6.8695,6.8986,6.8986,6.8986,6.8986,6.8986,6.8986,6.8986,6.8986,6.8986,6.8986,6.8986,6.8986,6.8986,6.8986,6.8986,6.8986,6.8986,6.8986,6.8986,6.8986,6.8986,6.9459,7.0144,7.1055,7.2151,7.3415,7.4728,7.5802,7.6789,7.7195,7.7578,7.7652,7.7702,7.7891,4.5364,4.5372,4.5364,4.6808,4.8912,4.9141,5.0577,5.2781,5.2982,5.3028,5.3099,5.3032,5.3189,5.3425,5.3193,5.3136,5.3309,5.3482,5.3502,5.3478,5.3359,5.3305,5.3355,5.3206,5.299,5.2743,5.304,5.3285,5.3359,5.3531,5.3601,5.3621,5.3621,5.3621,5.3621,5.3621,5.3621,5.3621,5.3621,5.3621,5.3621,5.3621,5.3621,5.3621,5.3621,5.3621,5.3621,5.3621,5.365,5.3766,5.6098,5.7291,5.7873,5.8894,5.9971,6.1135,6.1165,6.1223,6.1223,6.1223,6.1223,6.1223,6.1223,6.1223,6.1223,6.1223,6.1223,6.1223,6.1223,6.1223,6.1223,6.1223,6.1223,6.1223,6.1223,6.2443,6.4391,6.5147,6.5671,6.7155,6.7997,6.8491,6.8695,6.8928,6.8986,6.8986,6.8986,6.8986,6.8986,6.8986,6.8986,6.8986,6.8986,6.8986,6.8986,6.8986,6.8986,6.8986,6.8986,6.8986,6.8986,6.9208,6.971,7.0511,7.1503,7.2587,7.3784,7.5189,7.6378,7.7421,7.7842,7.7801,7.785,7.7924,7.7948,4.4646,4.4646,4.4668,4.6118,4.8161,4.8586,4.9997,5.2039,5.2354,5.2506,5.2632,5.2455,5.2613,5.2951,5.2588,5.256,5.284,5.299,5.304,5.2986,5.2915,5.2786,5.2679,5.2202,5.2027,5.2049,5.238,5.2786,5.3061,5.3309,5.3502,5.3621,5.3621,5.3625,5.3621,5.3621,5.3621,5.3621,5.3621,5.3621,5.3621,5.3621,5.3621,5.3621,5.3621,5.3621,5.3621,5.3621,5.3621,5.4086,5.54,5.648,5.6713,5.8254,5.9419,6.0235,6.0729,6.1223,6.1223,6.1223,6.1223,6.1223,6.1223,6.1223,6.1223,6.1223,6.1223,6.1223,6.1223,6.1223,6.1223,6.1223,6.1223,6.1223,6.1223,6.2036,6.3547,6.41,6.4565,6.5845,6.7153,6.7735,6.8288,6.8695,6.8811,6.8811,6.8811,6.8986,6.8986,6.8986,6.8986,6.8986,6.8986,6.8986,6.8986,6.8986,6.8986,6.8986,6.8986,6.8986,6.9049,6.949,6.9959,7.0995,7.2035,7.3108,7.423,7.5617,7.6931,7.7578,7.7915,7.7915,7.7973,7.7948,7.7948,4.3715,4.3737,4.3715,4.5158,4.7234,4.7657,4.9117,5.1427,5.1454,5.1665,5.195,5.1716,5.177,5.2109,5.1716,5.1768,5.2001,5.2157,5.2182,5.2154,5.2131,5.1822,5.112,5.0675,5.0622,5.0986,5.1403,5.1945,5.2531,5.2861,5.321,5.3453,5.3453,5.3552,5.3552,5.3601,5.3621,5.3621,5.3621,5.3621,5.3621,5.3621,5.3621,5.3621,5.3621,5.3621,5.3621,5.3621,5.3621,5.3883,5.4614,5.54,5.5927,5.7381,5.8428,5.8983,6.003,6.0729,6.0845,6.099,6.1223,6.1223,6.1223,6.1223,6.1223,6.1223,6.1223,6.1223,6.1223,6.1223,6.1223,6.1223,6.1223,6.1223,6.1252,6.1658,6.2559,6.2995,6.3663,6.4652,6.5817,6.6631,6.669,6.7677,6.8346,6.8579,6.8724,6.8957,6.8986,6.8986,6.8986,6.8986,6.8986,6.8986,6.8986,6.8986,6.8986,6.8986,6.8986,6.8986,6.9143,6.949,7.0235,7.1295,7.2474,7.3644,7.4692,7.6039,7.7109,7.7528,7.7973,7.7973,7.7973,7.7973,7.7973,4.2574,4.2574,4.2574,4.3946,4.5861,4.6183,4.7656,4.982,5.0145,5.0438,5.0755,5.0596,5.0676,5.0887,5.0596,5.065,5.0912,5.1093,5.1196,5.117,5.0937,5.0253,4.9261,4.9098,4.9315,4.9692,5.049,5.1095,5.1611,5.223,5.2664,5.2858,5.3136,5.3264,5.3285,5.3531,5.3625,5.3601,5.3625,5.3621,5.3621,5.3621,5.3621,5.3621,5.3621,5.3621,5.3621,5.3621,5.3621,5.3621,5.3791,5.4494,5.5433,5.5666,5.6538,5.7643,5.8777,5.9563,5.9652,6.0554,6.1135,6.1223,6.1223,6.1223,6.1223,6.1223,6.1223,6.1223,6.1223,6.1223,6.1223,6.1223,6.1223,6.1223,6.1194,6.1253,6.1629,6.2472,6.3227,6.3489,6.4536,6.5176,6.5642,6.634,6.7271,6.733,6.8055,6.8317,6.852,6.8811,6.8986,6.8986,6.8986,6.8986,6.8986,6.8986,6.8986,6.8986,6.8986,6.9017,6.9175,6.9677,7.0479,7.1503,7.2819,7.4004,7.5099,7.6112,7.7119,7.7702,7.7924,7.7973,7.7973,7.7973,7.7973,4.1237,4.126,4.1237,4.2277,4.3845,4.4681,4.6099,4.7819,4.8643,4.9233,4.9585,4.945,4.9504,4.9692,4.945,4.9477,4.9719,4.9826,4.9959,5.0039,4.9799,4.8881,4.7891,4.7666,4.7946,4.8417,4.9152,4.988,5.0596,5.1199,5.1693,5.2021,5.2354,5.2582,5.2764,5.3185,5.3433,5.3433,5.3576,5.3621,5.3621,5.3621,5.3621,5.3621,5.3621,5.3621,5.3621,5.3621,5.3621,5.365,5.365,5.3883,5.4469,5.5167,5.584,5.6334,5.7585,5.8603,5.9214,5.9739,6.0409,6.1019,6.1223,6.1223,6.1223,6.1223,6.1223,6.1194,6.1223,6.1223,6.1223,6.1223,6.1223,6.1195,6.097,6.0828,6.1026,6.1518,6.1836,6.2298,6.3111,6.3983,6.4012,6.5147,6.5758,6.6166,6.7068,6.765,6.8055,6.8666,6.8986,6.8986,6.8986,6.8986,6.8986,6.8986,6.8986,6.8986,6.8986,6.8986,6.9269,6.971,7.0662,7.1829,7.3132,7.4336,7.5372,7.6352,7.7195,7.7694,7.7842,7.7973,7.7973,7.7973,7.7973,4.0135,4.0085,4.0111,4.0846,4.2118,4.3321,4.4686,4.6037,4.7228,4.7998,4.833,4.8194,4.8275,4.8387,4.8221,4.8248,4.8387,4.8497,4.8608,4.8636,4.8387,4.7498,4.6766,4.6621,4.6851,4.7332,4.8,4.8662,4.9477,5.0013,5.049,5.096,5.1301,5.1665,5.2052,5.256,5.2936,5.3061,5.3359,5.3527,5.3527,5.3601,5.3621,5.3621,5.3621,5.3621,5.3621,5.3621,5.3576,5.3408,5.333,5.3408,5.3677,5.4377,5.4921,5.5258,5.6273,5.7411,5.8138,5.8603,5.9417,6.0496,6.05,6.0733,6.108,6.1083,6.1026,6.1054,6.1111,6.1111,6.1054,6.1083,6.1054,6.0998,6.0372,6.0114,6.0372,6.0572,6.0828,6.1169,6.2037,6.2559,6.2908,6.3722,6.4594,6.4798,6.5671,6.6691,6.7301,6.7941,6.852,6.8637,6.8986,6.8986,6.8986,6.8986,6.8986,6.8986,6.8986,6.8986,6.9269,6.9648,7.0693,7.2095,7.3276,7.4583,7.5638,7.6539,7.7145,7.7817,7.7915,7.7973,7.7973,7.7973,7.7973,3.9329,3.9329,3.9329,3.9977,4.1102,4.2251,4.3516,4.4866,4.6081,4.6788,4.6964,4.7049,4.702,4.6992,4.7023,4.7049,4.702,4.7274,4.7276,4.6936,4.651,4.6217,4.5962,4.5934,4.6135,4.656,4.7049,4.7638,4.8303,4.8771,4.9207,4.9504,5.0066,5.0571,5.0912,5.1611,5.2126,5.2512,5.299,5.3235,5.3285,5.3478,5.3625,5.3572,5.3576,5.3576,5.3522,5.3424,5.3181,5.2667,5.2538,5.2739,5.3193,5.3346,5.3619,5.3925,5.4997,5.5644,5.6076,5.6925,5.8055,5.9107,5.9234,5.9471,6.0482,6.0486,6.0486,6.0486,6.0686,6.0771,6.0572,6.0686,6.06,6.0401,5.9419,5.9097,5.9477,5.9941,6.04,6.0771,6.1083,6.1368,6.16,6.2559,6.314,6.3518,6.4391,6.5525,6.634,6.7068,6.7737,6.8317,6.884,6.8928,6.8986,6.8986,6.8986,6.8986,6.8986,6.8986,6.9112,6.9461,7.0206,7.1858,7.3333,7.4724,7.5849,7.661,7.727,7.7743,7.7915,7.7915,7.7973,7.7973,7.7973,3.8559,3.8534,3.8509,3.8879,3.9597,4.1368,4.2488,4.3355,4.5019,4.5987,4.6221,4.625,4.6221,4.625,4.625,4.6221,4.6224,4.6335,4.6135,4.5645,4.5326,4.5268,4.5268,4.5268,4.5442,4.5868,4.6192,4.6621,4.7125,4.747,4.7752,4.8086,4.8689,4.9206,4.9692,5.0491,5.1249,5.1842,5.2228,5.261,5.2936,5.3136,5.3132,5.3185,5.3156,5.3156,5.3107,5.2603,5.2098,5.1714,5.1639,5.1868,5.2354,5.2639,5.289,5.3197,5.3651,5.4256,5.5031,5.5547,5.6355,5.7431,5.8105,5.8626,5.9028,5.9685,5.9825,5.9854,6.0056,6.0142,5.994,6.0113,5.9564,5.8418,5.773,5.7609,5.7943,5.8746,5.9594,6.0315,6.0799,6.1054,6.1195,6.1804,6.192,6.2152,6.3082,6.4245,6.471,6.602,6.6864,6.7621,6.8317,6.8753,6.8928,6.8986,6.8986,6.8986,6.8986,6.8986,6.9049,6.9367,6.9866,7.1533,7.3108,7.4423,7.5955,7.6713,7.7295,7.7595,7.794,7.7973,7.7973,7.7973,7.7973,3.7929,3.7855,3.7955,3.8082,3.8525,4.0198,4.1354,4.2138,4.3853,4.5031,4.5505,4.5583,4.5583,4.5587,4.5558,4.5558,4.5558,4.5558,4.5355,4.5005,4.4947,4.4923,4.4947,4.4893,4.5005,4.5293,4.5612,4.5901,4.6185,4.6421,4.6649,4.6879,4.741,4.7941,4.8442,4.926,5.0039,5.0803,5.1301,5.1791,5.2278,5.2481,5.2556,5.2556,5.2582,5.2329,5.1973,5.1198,5.0646,5.0463,5.0463,5.0752,5.1353,5.1745,5.2049,5.2376,5.2531,5.301,5.3777,5.392,5.4434,5.5469,5.6137,5.6765,5.7472,5.7886,5.8211,5.8657,5.8979,5.9067,5.8949,5.9038,5.8269,5.6391,5.6015,5.5984,5.6241,5.7127,5.8389,5.9537,6.0315,6.077,6.1025,6.1253,6.1368,6.1455,6.2007,6.2849,6.3315,6.474,6.5904,6.6951,6.7708,6.8317,6.8724,6.8986,6.8986,6.8986,6.8986,6.8986,6.9112,6.9396,6.9957,7.1085,7.2619,7.415,7.5718,7.6738,7.7295,7.7727,7.7924,7.7973,7.7973,7.7973,7.7973,3.7523,3.7346,3.7599,3.7674,3.7892,3.8942,4.0134,4.1371,4.2583,4.3766,4.4732,4.4976,4.5035,4.4952,4.5035,4.4923,4.4947,4.4947,4.4913,4.483,4.4859,4.4859,4.4859,4.483,4.4884,4.4889,4.5239,4.5438,4.555,4.5757,4.5876,4.5987,4.6328,4.6817,4.7223,4.7944,4.8662,4.9477,5.0279,5.0832,5.117,5.1611,5.1817,5.184,5.174,5.1172,5.0013,4.9396,4.9044,4.9016,4.8989,4.9423,5.012,5.0544,5.0965,5.1429,5.1737,5.1868,5.1978,5.1983,5.2548,5.345,5.3412,5.4089,5.5325,5.5463,5.5737,5.6665,5.7206,5.7551,5.7518,5.74,5.6607,5.4885,5.4504,5.4472,5.4637,5.5196,5.6471,5.8359,5.9652,6.0343,6.077,6.1025,6.1194,6.1194,6.1397,6.1804,6.2791,6.3402,6.4536,6.6077,6.7126,6.7735,6.8404,6.8957,6.8928,6.8986,6.8957,6.8986,6.9112,6.9303,6.9835,7.0541,7.2064,7.339,7.4932,7.6455,7.7101,7.7677,7.785,7.7973,7.7973,7.7973,7.7973,3.6367,3.652,3.6623,3.6853,3.728,3.8321,3.9121,3.9891,4.1809,4.3021,4.3685,4.4543,4.4893,4.4893,4.4893,4.4713,4.4408,4.4383,4.4354,4.4408,4.4354,4.4383,4.4383,4.4354,4.4378,4.4437,4.4702,4.4942,4.5093,4.5181,4.5239,4.5268,4.5612,4.5959,4.6364,4.6958,4.772,4.8497,4.9043,4.9638,5.0279,5.0517,5.0649,5.0675,4.9879,4.8963,4.8168,4.7918,4.7724,4.7582,4.7526,4.7778,4.8223,4.8908,4.9611,5.0332,5.0516,5.0649,5.078,5.0675,5.0761,5.1173,5.1398,5.1605,5.2101,5.2609,5.3358,5.429,5.4852,5.5431,5.5771,5.5143,5.4248,5.3663,5.3266,5.3201,5.3526,5.4146,5.5138,5.6572,5.8152,5.9508,6.0286,6.0743,6.1025,6.1223,6.1223,6.1339,6.1891,6.2559,6.3663,6.4361,6.5787,6.6951,6.7301,6.7532,6.7619,6.8462,6.8724,6.8928,6.908,6.9244,6.9682,7.0359,7.1414,7.2671,7.4139,7.5802,7.6796,7.7478,7.7751,7.7899,7.7973,7.7973,7.7973,3.5214,3.5531,3.5636,3.5921,3.6355,3.7002,3.778,3.8597,4.0292,4.16,4.2729,4.3637,4.4286,4.4595,4.3862,4.3505,4.3558,4.3558,4.3528,4.3581,4.3725,4.3725,4.3611,4.3725,4.3725,4.3641,4.3945,4.4354,4.4737,4.4859,4.4893,4.4976,4.5176,4.5409,4.5781,4.6131,4.6731,4.7522,4.7831,4.8358,4.9017,4.9287,4.926,4.9017,4.8109,4.7384,4.6989,4.6822,4.6652,4.6535,4.651,4.6567,4.6769,4.744,4.8192,4.8908,4.9179,4.9423,4.9531,4.9423,4.9288,4.9341,4.9458,4.9508,4.9691,5.0105,5.0841,5.1936,5.2581,5.2857,5.3099,5.2338,5.1606,5.1585,5.1626,5.1793,5.216,5.2949,5.3888,5.5064,5.6537,5.8272,5.939,6.0429,6.0884,6.1054,6.1195,6.1223,6.1397,6.1862,6.2646,6.3315,6.4565,6.5641,6.5671,6.5961,6.6717,6.7706,6.8375,6.8404,6.8928,6.9148,6.9463,7.0113,7.0814,7.2005,7.3189,7.4774,7.6144,7.6891,7.7603,7.7776,7.7973,7.7973,7.7973,3.4068,3.4293,3.4577,3.4812,3.51,3.5144,3.6036,3.7453,3.7953,3.9517,4.1682,4.2324,4.2954,4.3487,4.1699,4.1427,4.2251,4.2297,4.2313,4.2428,4.277,4.2807,4.2519,4.2807,4.28,4.2519,4.3025,4.3731,4.433,4.4683,4.4913,4.4864,4.4918,4.5118,4.5433,4.555,4.5839,4.6468,4.6734,4.7105,4.7584,4.7917,4.7664,4.6964,4.6557,4.6439,4.6353,4.6016,4.5818,4.5818,4.5818,4.5843,4.5847,4.6214,4.67,4.719,4.7804,4.8135,4.8165,4.8137,4.8135,4.808,4.7686,4.7508,4.8115,4.8109,4.8521,4.955,5.0488,5.0453,4.9578,4.9467,4.9336,4.9143,4.9764,5.0201,5.0275,5.1362,5.2671,5.3774,5.4834,5.6384,5.848,5.9941,6.0628,6.0884,6.1082,6.1223,6.1252,6.1252,6.1833,6.2675,6.3169,6.3227,6.3344,6.4303,6.5525,6.6602,6.7271,6.7533,6.8317,6.9049,6.9396,6.9865,7.054,7.1385,7.2443,7.3697,7.5099,7.6248,7.6968,7.7677,7.7891,7.7915,7.7973,3.2348,3.2513,3.3006,3.3489,3.3901,3.3949,3.4456,3.5405,3.6593,3.7755,3.9031,4.0222,4.035,3.9616,3.9043,3.9104,3.9683,3.9771,4.0065,4.0699,4.0858,4.0827,4.0743,4.0858,4.0982,4.1237,4.1812,4.2458,4.3122,4.4064,4.4624,4.4654,4.4801,4.4976,4.5064,4.5375,4.5608,4.5781,4.6016,4.6361,4.6674,4.6418,4.6106,4.5872,4.581,4.5637,4.5326,4.521,4.5181,4.5181,4.5181,4.5181,4.5181,4.5554,4.581,4.6016,4.6586,4.7015,4.7215,4.7043,4.6927,4.6899,4.6507,4.6231,4.6274,4.6232,4.6675,4.7648,4.7851,4.7871,4.7448,4.8006,4.8417,4.8372,4.8567,4.8756,4.8844,4.9307,5.0438,5.1876,5.2949,5.4509,5.6845,5.8805,6.0257,6.0685,6.1025,6.1223,6.1223,6.1252,6.131,6.1716,6.2588,6.3053,6.3198,6.3518,6.4187,6.5292,6.6428,6.6951,6.7446,6.852,6.9177,6.9204,7.0054,7.0874,7.1771,7.2792,7.4095,7.5377,7.661,7.7578,7.7817,7.7915,7.7973,3.1362,3.1398,3.1898,3.2341,3.2677,3.2705,3.3108,3.3749,3.4787,3.5875,3.6929,3.6954,3.6786,3.6342,3.6198,3.6561,3.7128,3.717,3.7489,3.7969,3.8496,3.8636,3.8606,3.8988,3.938,3.961,4.0246,4.0968,4.182,4.2784,4.3677,4.4295,4.4619,4.4801,4.4893,4.5147,4.5234,4.5263,4.5409,4.5558,4.5781,4.5438,4.5263,4.5239,4.5234,4.5147,4.4923,4.4893,4.4893,4.4893,4.4893,4.4893,4.4893,4.5147,4.5263,4.5263,4.5583,4.5959,4.6253,4.6156,4.6066,4.607,4.5724,4.5409,4.5239,4.5263,4.5455,4.6049,4.6018,4.5923,4.6001,4.6453,4.6843,4.6947,4.7313,4.7557,4.7612,4.814,4.895,5.0084,5.1045,5.2531,5.4882,5.678,5.842,6.0171,6.0828,6.1082,6.1194,6.1223,6.1223,6.1339,6.1833,6.2355,6.2356,6.2385,6.2966,6.4042,6.5001,6.5817,6.6224,6.7328,6.8296,6.852,6.933,7.0176,7.0935,7.2065,7.302,7.4285,7.5691,7.6949,7.7652,7.7875,7.7915,3.0822,3.083,3.1119,3.135,3.1573,3.1621,3.1982,3.2533,3.2835,3.3956,3.5178,3.343,3.3111,3.3674,3.3577,3.3932,3.4758,3.4739,3.4851,3.5085,3.5983,3.6343,3.6229,3.7225,3.7804,3.79,3.8578,3.9442,4.0424,4.1114,4.2292,4.376,4.4265,4.456,4.483,4.4859,4.4889,4.4918,4.4889,4.4889,4.4918,4.4893,4.4893,4.4893,4.4893,4.4893,4.4893,4.4893,4.4893,4.4893,4.4893,4.4893,4.4893,4.4893,4.4893,4.4923,4.4947,4.5035,4.538,4.5438,4.5463,4.5433,4.5122,4.4947,4.4947,4.4893,4.4893,4.4996,4.4971,4.4991,4.4918,4.4962,4.5137,4.5259,4.5947,4.6514,4.6587,4.7337,4.8071,4.8555,4.9228,5.0508,5.2804,5.4315,5.6091,5.8794,6.0,6.0884,6.1082,6.1195,6.1223,6.1194,6.1223,6.131,6.1339,6.1281,6.1833,6.2733,6.314,6.3838,6.4856,6.5962,6.6956,6.7227,6.8114,6.9127,7.0094,7.1084,7.1847,7.3176,7.4501,7.5749,7.7,7.7628,7.7875,3.0191,3.0172,3.053,3.0746,3.0802,3.0971,3.1259,3.1621,3.1878,3.2138,3.226,3.184,3.1701,3.1909,3.1873,3.221,3.2801,3.288,3.3257,3.3901,3.42,3.428,3.4349,3.5126,3.5689,3.607,3.7071,3.8048,3.8937,3.9724,4.0805,4.2147,4.3228,4.4058,4.4595,4.4619,4.4683,4.4889,4.4707,4.4707,4.4864,4.4893,4.4893,4.4893,4.4918,4.4893,4.4893,4.4893,4.4893,4.4893,4.4893,4.4893,4.4893,4.4893,4.4893,4.4893,4.4893,4.4947,4.5005,4.5059,4.5035,4.5005,4.4947,4.4893,4.4893,4.4893,4.4893,4.4893,4.4893,4.4893,4.4893,4.4893,4.4893,4.4918,4.5161,4.5386,4.5337,4.5478,4.6066,4.7237,4.7807,4.8894,5.1018,5.2924,5.4679,5.6595,5.8884,6.0429,6.0884,6.1139,6.1194,6.1223,6.1223,6.1223,6.1223,6.1223,6.1368,6.1571,6.2472,6.3111,6.3605,6.4681,6.5468,6.5703,6.6234,6.709,6.8065,6.8992,7.0327,7.2107,7.3401,7.4657,7.5955,7.6891,7.7578,2.9974,2.9974,3.0163,3.0247,3.0276,3.0408,3.0642,3.0923,3.0903,3.08,3.0679,3.066,3.0679,3.0707,3.066,3.0875,3.1187,3.1215,3.1496,3.196,3.2397,3.2571,3.2648,3.3385,3.3935,3.4343,3.4967,3.5686,3.6516,3.7584,3.8758,3.9949,4.1585,4.2988,4.3975,4.4058,4.4295,4.4713,4.4295,4.4206,4.4555,4.456,4.4531,4.4585,4.4678,4.4713,4.4737,4.483,4.4611,4.4062,4.3985,4.3738,4.3187,4.3229,4.331,4.3285,4.3314,4.3585,4.4162,4.4071,4.4266,4.4869,4.4893,4.4698,4.4264,4.4187,4.4406,4.4845,4.4893,4.4893,4.4893,4.4893,4.4893,4.4893,4.4893,4.4893,4.4893,4.4893,4.5225,4.5946,4.6419,4.7343,4.9079,5.0648,5.2183,5.3992,5.6462,5.8828,6.0343,6.0714,6.0827,6.1025,6.1167,6.1194,6.1223,6.1223,6.1223,6.1223,6.1833,6.221,6.2384,6.3373,6.41,6.4275,6.4946,6.5707,6.6472,6.7242,6.8542,7.0468,7.1837,7.3248,7.4815,7.5981,7.646,2.9501,2.9473,2.9501,2.9501,2.9557,2.9557,2.9848,3.0263,2.9754,2.9557,2.9557,2.9566,2.9585,2.9566,2.969,2.9784,2.9756,2.9898,2.9974,2.9993,3.0743,3.1115,3.1153,3.1943,3.2446,3.2785,3.2903,3.3296,3.396,3.531,3.6486,3.765,3.9476,4.1288,4.2778,4.3211,4.3581,4.3975,4.3498,4.3468,4.3903,4.3957,4.4016,4.4076,4.426,4.4413,4.4472,4.4509,4.4053,4.2953,4.276,4.2193,4.113,4.1303,4.134,4.134,4.134,4.1861,4.2905,4.2805,4.3187,4.4184,4.4397,4.4032,4.3131,4.3062,4.3427,4.4304,4.4528,4.4698,4.4698,4.482,4.4845,4.4669,4.4645,4.4577,4.4357,4.4333,4.443,4.4703,4.4984,4.5752,4.7184,4.8298,4.9716,5.1542,5.3835,5.629,5.8572,5.9543,5.9686,6.034,6.0853,6.1195,6.1223,6.1223,6.1223,6.1223,6.1281,6.1397,6.1397,6.2239,6.2849,6.2878,6.3663,6.4596,6.5298,6.5621,6.6766,6.8775,6.9729,7.0901,7.291,7.3953,7.4305,2.7387,2.7387,2.736,2.7501,2.7731,2.7705,2.8215,2.9039,2.8094,0.0,0.0,2.7871,2.7826,2.7909,2.8645,2.8976,2.9006,2.9651,2.9974,2.9974,3.0126,3.0183,3.023,3.1071,3.1544,3.1633,3.2295,3.2793,3.3233,3.3796,3.4584,3.5579,3.7158,3.8541,3.9749,4.1517,4.2155,4.1697,4.185,4.2246,4.2821,4.3138,4.3425,4.3641,4.3671,4.3874,4.4171,4.342,4.2892,4.2643,4.1805,4.1254,4.1031,4.1062,4.109,4.109,4.1114,4.1161,4.1409,4.1381,4.1449,4.1673,4.1895,4.185,4.1484,4.163,4.184,4.2009,4.3002,4.363,4.3602,4.4382,4.4552,4.3703,4.3606,4.3292,4.2487,4.2341,4.2756,4.3459,4.3736,4.4245,4.5673,4.701,4.8307,4.9532,5.1411,5.3721,5.5812,5.5802,5.6121,5.8373,5.9793,6.0881,6.1137,6.1135,6.1223,6.1135,6.1193,6.1223,6.1252,6.1426,6.1571,6.1687,6.1745,6.2559,6.378,6.4129,6.5061,6.7476,6.8022,6.8417,6.9519,6.9931,7.0437,2.6644,2.66,2.6468,2.6592,0.0,2.6809,2.6783,2.6649,2.6288,2.6498,2.7123,2.7253,2.7305,2.7324,2.7826,2.8068,2.8106,2.8485,2.8648,2.8667,2.9111,2.9347,2.9366,3.0217,3.0639,3.0591,3.1013,3.1291,3.1521,3.227,3.294,3.3651,3.5197,3.6593,3.7921,3.9306,3.9519,3.845,3.8841,3.9409,4.018,4.0409,4.0631,4.0872,4.1193,0.0,0.0,0.0,0.0,0.0,0.0,0.0,0.0,3.8661,0.0,3.8557,3.8581,3.8792,3.9284,3.9327,3.9644,4.0252,4.0715,4.031,3.8655,3.9513,4.0232,4.0497,4.1532,4.2408,4.2964,4.3062,4.2977,4.2606,4.2585,4.2389,4.1877,4.1755,4.1999,4.2511,4.3024,4.3565,4.4347,4.5648,4.6736,4.7397,4.9216,5.1119,5.261,5.2517,5.3138,5.5786,5.7609,5.8783,5.9116,5.9686,6.0206,6.0322,6.0787,6.1164,6.1223,6.1223,6.1223,6.1223,6.1223,6.1455,6.2298,6.2498,6.325,6.5383,6.593,6.5842,6.5618,6.6559,6.7749,2.5719,2.5641,2.5415,2.5467,2.5675,2.5441,2.4912,2.4175,2.4426,2.5181,2.614,2.6391,2.6538,2.6615,2.6849,2.706,2.7112,2.7308,2.7338,2.7402,2.811,2.8485,2.8523,2.9121,2.9425,2.9499,2.9623,2.9699,2.9718,3.0812,3.1554,3.198,3.3355,3.4745,3.6075,0.0,0.0,0.0,3.5971,3.6626,3.7411,3.7527,3.77,3.8039,3.8531,0.0,3.8991,3.9225,3.8902,3.7899,3.7665,0.0,0.0,0.0,0.0,0.0,0.0,0.0,0.0,0.0,0.0,0.0,3.8754,3.791,3.5634,3.6896,3.822,3.8976,3.9914,4.1031,4.2163,4.1659,4.1271,4.1322,4.1327,4.1254,4.1035,4.1038,4.1213,4.1411,4.2191,4.2878,4.3341,4.4347,4.5274,4.5893,4.7322,4.8644,4.9441,4.9696,5.063,5.2889,5.4726,5.6009,5.6882,5.8127,5.8871,5.9068,5.9884,6.038,6.0408,6.0409,6.0467,6.0409,6.0553,6.0467,6.0496,6.0756,6.1536,6.3482,6.3825,6.3342,6.2055,6.3413,6.5228,2.3099,2.2902,2.2828,2.2853,2.2828,2.1928,2.1813,2.2323,2.2593,2.3061,2.3588,2.3874,2.4142,2.4366,2.5072,2.5628,2.6093,2.6907,2.722,2.722,2.7385,2.7441,2.7441,2.7509,2.7645,2.7731,2.855,2.89,2.8957,2.9783,3.0344,3.077,3.1641,3.243,3.3165,3.2705,3.296,3.3921,3.4543,3.5171,3.5845,3.6068,3.6509,3.7056,3.7194,3.7498,3.8051,3.7278,3.6848,3.6874,3.6014,3.5472,3.5312,3.4562,3.4066,0.0,3.302,0.0,0.0,0.0,0.0,0.0,0.0,0.0,0.0,3.3635,3.511,3.666,3.8016,3.9263,4.0455,4.0679,4.0436,3.9715,3.9571,3.9239,3.8353,3.8414,3.8956,4.0,4.0405,4.1367,4.3,4.3463,4.4147,4.5274,4.6001,4.6418,4.6562,4.7219,4.8454,5.0492,5.1995,5.3724,5.5866,5.6968,5.7516,5.773,5.8021,5.799,5.8138,5.8135,5.8077,5.8106,5.8222,5.8077,5.8019,5.8836,5.9999,6.1509,6.1936,6.1308,5.9533,6.0274,6.1715,2.1943,2.1698,2.155,2.1107,2.0471,2.0032,2.0182,2.0794,2.1041,2.1583,2.2286,2.2408,2.2773,2.3275,2.3799,2.4268,2.4793,2.5211,2.5451,2.5619,2.604,2.6245,2.6263,2.6761,2.7045,2.7115,2.7471,2.7765,2.7935,2.8709,2.9235,2.955,3.0325,3.086,3.1128,3.0841,3.0985,3.1602,3.2078,3.26,3.3184,3.3279,3.3593,3.4012,3.3737,3.3797,3.4215,3.353,3.3244,3.3479,3.306,3.2817,3.2817,3.2403,3.2035,0.0,0.0,0.0,0.0,0.0,0.0,0.0,0.0,0.0,0.0,0.0,3.2614,3.3683,3.5042,3.6597,3.8247,3.806,3.7756,3.7577,3.7661,3.7576,3.713,3.7421,3.7917,3.86,3.9463,4.0429,4.1487,4.2661,4.3589,4.4196,4.4412,4.4777,4.5521,4.6131,4.6975,4.84,4.9651,5.1181,5.2993,5.4835,5.6189,5.6483,5.7059,5.7553,5.7553,5.7553,5.7553,5.7553,5.7553,5.7117,5.5746,5.6913,5.8981,6.0437,6.0313,5.9189,5.8148,5.8822,5.9878,2.1156,2.0884,2.0487,1.9697,1.8781,1.8671,1.8863,1.9299,1.9557,2.0099,2.0801,2.1076,2.1485,2.2074,2.2505,2.2973,2.3522,2.3594,2.3762,2.4038,2.4548,2.482,2.4882,2.5558,2.5902,2.5971,2.6206,2.6435,2.6724,2.7738,2.8359,2.8669,2.9333,2.9643,2.9747,2.9747,2.9681,2.9464,2.9801,3.0143,3.0324,3.0434,3.0645,3.0871,3.0506,3.0433,3.0688,3.0318,3.0221,3.0517,3.0542,3.0563,3.0542,3.0306,0.0,0.0,0.0,0.0,0.0,0.0,0.0,0.0,0.0,2.6883,2.7746,0.0,3.0159,0.0,3.2172,3.3878,3.5637,3.5219,0.0,0.0,3.5784,3.6048,3.6149,3.6574,3.7062,3.7393,3.8519,3.9484,4.009,4.1554,4.2526,4.2609,4.3048,4.3715,4.4777,4.5439,4.6077,4.6987,4.7998,4.9098,5.0522,5.2741,5.45,5.5037,5.5924,5.6619,5.6593,5.6622,5.6622,5.6619,5.6622,5.5891,5.4057,5.5487,5.7614,5.8867,5.7701,5.6204,5.6434,5.7285,5.8282,2.0368,2.0053,1.9166,1.8486,1.7927,1.7454,1.7414,1.768,1.7969,1.8258,1.8575,1.9551,1.9998,2.0122,2.0958,0.0,2.2481,2.2724,2.2991,2.3209,2.3043,2.2964,2.2939,2.305,2.319,2.3469,2.4408,2.4975,2.53,2.6863,2.7904,2.8386,2.8602,2.8863,2.9186,2.9215,2.8863,2.8143,2.8417,2.8213,2.7577,2.8022,2.8367,2.8658,2.8586,2.872,2.8977,2.8923,2.9106,2.9441,2.9467,2.9467,2.9446,0.0,0.0,0.0,0.0,0.0,0.0,0.0,0.0,0.0,0.0,0.0,0.0,0.0,0.0,0.0,2.9807,0.0,3.2555,3.2791,0.0,0.0,0.0,3.4661,3.4918,3.5399,3.595,3.6566,0.0,0.0,3.9705,4.0022,4.0226,4.0439,4.2145,4.3414,4.3488,4.4629,4.5753,4.6339,4.7218,4.8252,4.9773,5.11,5.2429,5.3615,5.3853,5.4086,5.4115,5.4086,5.3999,5.414,5.397,5.3853,5.3732,5.4644,5.5433,5.4498,5.3189,5.2258,5.2509,5.4386,5.63,1.8697,1.7655,1.7079,1.6782,1.6577,1.6184,1.6209,1.6453,1.6533,1.6813,1.7246,1.7653,1.8152,1.8685,1.9356,0.0,0.0,0.0,2.2188,2.2432,2.2318,2.2213,2.2041,2.2,2.2017,2.1968,2.2524,2.3032,2.3487,2.5227,2.6209,2.6407,0.0,2.7634,2.8511,2.8095,2.7725,2.7418,2.728,2.7124,2.6985,2.7343,2.7636,2.776,2.7324,2.7181,2.7451,2.7013,2.689,2.7117,2.7141,2.6907,0.0,0.0,0.0,0.0,0.0,0.0,0.0,0.0,0.0,0.0,0.0,2.1059,2.1704,0.0,0.0,0.0,2.5397,2.652,2.8679,2.9959,0.0,0.0,0.0,0.0,0.0,0.0,0.0,3.5658,3.639,3.7301,3.8375,3.8423,3.874,3.9859,4.0848,4.1682,4.2316,0.0,4.4424,4.5071,4.6418,4.7835,4.9152,5.0437,5.1663,5.2786,5.3334,5.3625,5.3621,5.3621,5.3621,5.3562,5.3009,5.2694,5.3529,5.2723,5.1885,5.139,5.0867,5.0524,5.0547,5.2185,5.3779,1.7031,0.0,0.0,0.0,0.0,1.5277,1.5222,1.5412,1.539,1.5616,1.5963,1.6187,0.0,0.0,0.0,0.0,0.0,0.0,2.0689,2.0953,2.1093,2.1029,2.0867,2.0921,2.0859,2.071,2.0958,2.1378,2.1969,2.3184,2.3969,2.4294,0.0,0.0,0.0,0.0,2.6263,2.6019,2.5756,2.5649,2.5766,2.6175,2.6455,2.6589,2.6166,2.5985,2.618,2.5672,2.542,2.5479,2.5247,0.0,0.0,0.0,0.0,0.0,0.0,0.0,0.0,0.0,0.0,0.0,0.0,0.0,0.0,0.0,0.0,0.0,0.0,0.0,2.5494,2.7317,2.8367,0.0,0.0,0.0,0.0,0.0,0.0,0.0,0.0,0.0,3.6712,3.7051,3.7733,0.0,0.0,4.0514,4.1272,4.2246,4.3094,4.362,4.5045,0.0,4.7577,4.8903,5.0118,5.1058,5.1796,5.2308,5.238,5.2351,5.2375,5.2394,5.1668,5.1035,5.1185,4.9809,4.875,4.8692,4.8961,4.9216,4.9274,5.0371,5.1507,0.0,0.0,0.0,0.0,1.5286,0.0,0.0,0.0,1.4604,1.4591,0.0,1.5391,0.0,0.0,0.0,0.0,1.7435,1.797,0.0,0.0,1.8977,1.9151,1.9149,1.9373,1.9497,1.9487,1.9748,2.0182,2.0776,2.0744,0.0,0.0,0.0,0.0,0.0,0.0,2.452,2.3678,2.3628,2.3518,2.3308,2.4015,2.4519,2.4819,2.5,2.5119,2.5124,2.5124,2.5109,2.509,2.426,0.0,0.0,0.0,0.0,0.0,0.0,0.0,0.0,0.0,0.0,0.0,0.0,0.0,0.0,0.0,0.0,0.0,0.0,0.0,0.0,2.4929,0.0,0.0,0.0,0.0,0.0,0.0,0.0,0.0,0.0,3.4752,3.4571,3.5893,3.7265,3.8077,0.0,0.0,0.0,0.0,4.1939,4.2237,4.2851,4.3698,4.4716,4.5866,4.699,4.7985,0.0,0.0,4.9296,4.9342,4.947,4.9517,4.954,4.8657,4.6147,4.5995,4.6105,4.6126,4.7123,4.7805,4.7973,4.8947,4.9934,0.0,0.0,0.0,0.0,0.0,0.0,0.0,0.0,0.0,1.2938,1.2926,1.3213,0.0,0.0,0.0,0.0,0.0,0.0,0.0,0.0,1.7641,1.7559,1.7412,1.7511,1.7697,1.7934,1.8178,1.8085,0.0,0.0,0.0,0.0,0.0,0.0,0.0,0.0,2.2218,2.1915,2.1786,2.1945,2.2383,2.3136,2.3714,2.4188,2.4616,2.492,2.5105,2.5105,2.5105,0.0,0.0,0.0,0.0,0.0,0.0,0.0,0.0,0.0,0.0,0.0,0.0,0.0,0.0,0.0,0.0,0.0,0.0,0.0,0.0,0.0,0.0,0.0,2.3042,0.0,0.0,0.0,0.0,0.0,0.0,0.0,0.0,0.0,3.3247,3.4459,3.5856,3.7378,3.8344,3.8917,3.9071,0.0,0.0,0.0,0.0,0.0,0.0,0.0,4.6183,4.6897,4.7432,4.7841,4.8132,4.8444,4.875,4.8932,0.0,0.0,4.5666,4.5521,4.5796,4.5873,4.6221,4.6541,4.6562,4.7588,4.8489,0.0,0.0,0.0,0.0,0.0,0.0,0.0,0.0,0.0,1.2044,1.2044,0.0,0.0,0.0,0.0,0.0,0.0,0.0,0.0,0.0,0.0,0.0,1.5832,1.6122,0.0,0.0,0.0,0.0,0.0,0.0,0.0,0.0,0.0,0.0,0.0,0.0,2.0419,2.0415,2.0281,2.0595,2.1362,2.2171,2.2943,2.366,2.4068,2.4521,2.4944,0.0,0.0,0.0,0.0,0.0,0.0,0.0,0.0,0.0,0.0,0.0,0.0,0.0,0.0,0.0,0.0,0.0,0.0,0.0,0.0,0.0,0.0,0.0,0.0,0.0,2.071,0.0,0.0,0.0,0.0,0.0,0.0,0.0,0.0,0.0,0.0,3.2723,3.4241,3.586,3.6576,3.7044,3.7289,3.8362,3.9172,0.0,0.0,0.0,0.0,0.0,0.0,0.0,0.0,0.0,0.0,0.0,0.0,0.0,0.0,4.5407,4.3903,4.4032,4.4678,4.5698,0.0,0.0,0.0,0.0,0.0,0.0,0.0,0.0,0.0,0.0,0.0,0.0,0.0,0.0,0.0,1.2027,0.0,0.0,1.201,0.0,0.0,0.0,0.0,0.0,0.0,0.0,0.0,0.0,0.0,0.0,0.0,0.0,0.0,0.0,0.0,0.0,0.0,0.0,0.0,0.0,0.0,1.9201,1.9188,1.9089,1.9417,2.0182,2.1066,2.2041,2.3064,2.3353,2.3858,2.4635,0.0,0.0,0.0,0.0,0.0,0.0,0.0,0.0,0.0,0.0,0.0,0.0,0.0,0.0,0.0,0.0,0.0,0.0,0.0,0.0,0.0,0.0,0.0,0.0,0.0,0.0,1.9875,2.1453,2.2484,0.0,0.0,0.0,0.0,0.0,0.0,0.0,0.0,0.0,3.3512,3.4175,3.4714,3.5016,3.6123,3.6972,3.6948,3.8022,3.9008,3.9525,4.0254,4.1023,0.0,0.0,0.0,0.0,0.0,0.0,0.0,0.0,0.0,0.0,0.0,0.0,0.0,0.0,0.0,0.0,0.0,0.0,0.0,0.0,0.0,0.0,0.0,0.0,0.0,0.0,0.0,0.0,0.0,0.0,0.0,0.0,0.0,0.0,0.0,0.0,0.0,0.0,0.0,0.0,0.0,0.0,0.0,0.0,0.0,0.0,0.0,0.0,0.0,0.0,0.0,0.0,0.0,0.0,1.7668,1.7996,1.8154,1.8612,1.9392,2.0047,2.0794,2.1723,2.2383,2.3015,0.0,0.0,0.0,0.0,0.0,0.0,0.0,0.0,0.0,0.0,0.0,0.0,0.0,0.0,0.0,0.0,0.0,0.0,0.0,0.0,0.0,0.0,0.0,0.0,0.0,0.0,0.0,0.0,1.9174,2.0293,2.147,0.0,0.0,0.0,0.0,0.0,0.0,0.0,0.0,0.0,0.0,3.4503,3.4922,3.549,3.585,3.585,3.6493,3.7019,3.7181,3.7941,3.8881,3.991,0.0,0.0,0.0,0.0,0.0,0.0,0.0,0.0,0.0,0.0,0.0,0.0,0.0,0.0,0.0,0.0,0.0,0.0,0.0,0.0,0.0,0.0,0.0,0.0,0.0,0.0,0.0,0.0,0.0,0.0,0.0,0.0,0.0,0.0,0.0,0.0,0.0,0.0,0.0,0.0,0.0,0.0,0.0,0.0,0.0,0.0,0.0,0.0,0.0,0.0,0.0,0.0,0.0,1.6828,1.7332,1.7613,1.8007,1.8587,1.9105,1.9783,2.0636,2.1353,2.2098,0.0,0.0,0.0,0.0,0.0,0.0,0.0,0.0,0.0,0.0,0.0,0.0,0.0,0.0,0.0,0.0,0.0,0.0,0.0,0.0,0.0,0.0,0.0,0.0,0.0,0.0,0.0,0.0,1.7751,1.8607,1.9666,0.0,0.0,0.0,0.0,0.0,0.0,0.0,0.0,0.0,0.0,3.2925,3.3581,3.4305,0.0,0.0,3.5458,3.605,3.6118,3.6836,3.7667,3.845,3.8737,0.0,0.0,0.0,0.0,0.0,0.0,0.0,0.0,0.0,0.0,0.0,0.0,0.0,0.0,0.0,0.0,0.0,0.0,0.0,0.0,0.0,0.0,0.0,0.0,0.0,0.0,0.0,0.0,0.0,0.0,0.0,0.0,0.0,0.0,0.0,0.0,0.0,0.0,0.0,0.0,0.0,0.0,0.0,0.0,0.0,0.0,0.0,0.0,0.0,0.0,0.0,0.0,1.6542,1.7101,1.7345,1.7613,1.7854,1.8323,1.898,1.9722,2.0402,2.1189,0.0,0.0,0.0,0.0,0.0,0.0,0.0,0.0,0.0,0.0,0.0,0.0,0.0,0.0,0.0,0.0,0.0,0.0,0.0,0.0,0.0,0.0,0.0,0.0,0.0,0.0,0.0,0.0,0.0,0.0,0.0,0.0,0.0,0.0,0.0,0.0,0.0,0.0,0.0,0.0,0.0,3.0653,3.1382,3.2739,3.3699,0.0,3.4753,3.5666,3.5917,3.6496,3.703,3.7367,0.0,0.0,0.0,0.0,0.0,0.0,0.0,0.0,0.0,0.0,0.0,0.0,0.0,0.0,0.0,0.0,0.0,0.0,0.0,0.0,0.0,0.0,0.0,0.0,0.0,0.0,0.0,0.0,0.0,0.0,0.0,0.0,0.0,0.0,0.0,0.0,0.0,0.0,0.0,0.0,0.0,0.0,0.0,0.0,0.0,0.0,0.0,0.0,0.0,0.0,0.0,0.0,0.0,0.0,1.7088,1.7166,1.7345,1.7562,1.7715,1.8185,1.8915,1.9512,0.0,0.0,0.0,0.0,0.0,0.0,0.0,0.0,0.0,0.0,0.0,0.0,0.0,0.0,0.0,0.0,0.0,0.0,0.0,0.0,0.0,0.0,0.0,0.0,0.0,0.0,0.0,1.5309,0.0,0.0,0.0,0.0,0.0,0.0,0.0,0.0,0.0,0.0,0.0,0.0,0.0,0.0,3.0826,3.1427,3.2109,3.2594,0.0,0.0,3.3689,3.4045,3.4498,3.5173,0.0,0.0,0.0,0.0,0.0,0.0,0.0,0.0,0.0,0.0,0.0,0.0,0.0,0.0,0.0,0.0,0.0,0.0,0.0,0.0,0.0,0.0,0.0,0.0,0.0,0.0,0.0,0.0,0.0,0.0,0.0,0.0,0.0,0.0,0.0,0.0,0.0,0.0,0.0,0.0,0.0,0.0,0.0,0.0,0.0,0.0,0.0,0.0,0.0,0.0,0.0,0.0,0.0,0.0,1.5699,1.6725,1.6997,1.7191,1.7319,1.7434,1.7752,1.8323,1.8944,1.9788,0.0,0.0,0.0,0.0,0.0,0.0,0.0,0.0,0.0,0.0,0.0,0.0,0.0,0.0,0.0,0.0,0.0,0.0,0.0,0.0,0.0,0.0,0.0,0.0,0.0,0.0,0.0,0.0,0.0,0.0,0.0,0.0,0.0,0.0,0.0,0.0,0.0,0.0,0.0,0.0,0.0,0.0,3.1355,3.1846,0.0,0.0,0.0,3.3025,3.3391,0.0,0.0,0.0,0.0,0.0,0.0,0.0,0.0,0.0,0.0,0.0,0.0,0.0,0.0,0.0,0.0,0.0,0.0,0.0,0.0,0.0,0.0,0.0,0.0,0.0,0.0,0.0,0.0,0.0,0.0,0.0,0.0,0.0,0.0,0.0,0.0,0.0,0.0,0.0,0.0,0.0,0.0,0.0,0.0,0.0,0.0,0.0,0.0,0.0,0.0,0.0,0.0,0.0,0.0,0.0,0.0,0.0,1.627,1.6803,1.7089,1.7127,1.7319,1.7613,1.788,1.8615,1.9432,0.0,0.0,0.0,0.0,0.0,0.0,0.0,0.0,0.0,0.0,0.0,0.0,0.0,0.0,0.0,0.0,0.0,0.0,0.0,0.0,0.0,0.0,0.0,0.0,0.0,0.0,0.0,0.0,0.0,0.0,0.0,0.0,0.0,0.0,0.0,0.0,0.0,0.0,0.0,0.0,0.0,2.9586,3.1093,3.175,3.2178,0.0,0.0,3.3172,3.3513,3.3937,0.0,0.0,0.0,0.0,0.0,0.0,0.0,0.0,0.0,0.0,0.0,0.0,0.0,0.0,0.0,0.0,0.0,0.0,0.0,0.0,0.0,0.0,0.0,0.0,0.0,0.0,0.0,0.0,0.0,0.0,0.0,0.0,0.0,0.0,0.0,0.0,0.0,0.0,0.0,0.0,0.0,0.0,0.0,0.0,0.0,0.0,0.0,0.0,0.0,0.0,0.0,0.0,0.0,0.0,0.0,0.0,1.5988,1.6728,1.7089,1.7089,1.714,1.7396,1.788,1.8424,1.9082,0.0,0.0,0.0,0.0,0.0,0.0,0.0,0.0,0.0,0.0,0.0,0.0,0.0,0.0,0.0,0.0,0.0,0.0,0.0,0.0,0.0,0.0,0.0,0.0,0.0,0.0,0.0,0.0,0.0,0.0,0.0,0.0,0.0,0.0,0.0,0.0,0.0,0.0,0.0,0.0,0.0,2.9471,3.0159,3.129,0.0,0.0,0.0,0.0,3.4086,3.3634,0.0,0.0,0.0,0.0,0.0,0.0,0.0,0.0,0.0,0.0,0.0,0.0,0.0,0.0,0.0,0.0,0.0,0.0,0.0,0.0,0.0,0.0,0.0,0.0,0.0,0.0,0.0,0.0,0.0,0.0,0.0,0.0,0.0,0.0,0.0,0.0,0.0,0.0,0.0,0.0,0.0,0.0,0.0,0.0,0.0,0.0,0.0,0.0,0.0,0.0,0.0,0.0,0.0,0.0,0.0,0.0,1.5485,1.6561,1.7089,1.7089,1.7089,1.737,1.7854,1.8385,1.8934,0.0,0.0,0.0,0.0,0.0,0.0,0.0,0.0,0.0,0.0,0.0,0.0,0.0,0.0,0.0,0.0,0.0,0.0,0.0,0.0,0.0,0.0,0.0,0.0,0.0,0.0,0.0,0.0,0.0,0.0,0.0,0.0,0.0,0.0,0.0,0.0,0.0,0.0,0.0,0.0,2.6611,2.8189,2.9062,0.0,0.0,0.0,0.0,0.0,0.0,3.2783,3.2249,0.0,0.0,0.0,0.0,0.0,0.0,0.0,0.0,0.0,0.0,0.0,0.0,0.0,0.0,0.0,0.0,0.0,0.0,0.0,0.0,0.0,0.0,0.0,0.0,0.0,0.0,0.0,0.0,0.0,0.0,0.0,0.0,0.0,0.0,0.0,0.0,0.0,0.0,0.0,0.0,0.0,0.0,0.0,0.0,0.0,0.0,0.0,0.0,0.0,0.0,0.0,0.0,0.0,0.0,0.0,1.4889,1.6294,1.7089,1.7089,1.7089,1.7345,1.788,1.8237,1.8591,1.8883,0.0,0.0,0.0,0.0,0.0,0.0,0.0,0.0,0.0,0.0,0.0,0.0,0.0,0.0,0.0,0.0,0.0,0.0,0.0,0.0,0.0,0.0,0.0,0.0,0.0,0.0,0.0,0.0,0.0,0.0,0.0,0.0,0.0,0.0,0.0,0.0,0.0,0.0,0.0,2.5435,2.6704,0.0,0.0,0.0,0.0,0.0,0.0,0.0,0.0,3.1202,0.0,0.0,0.0,0.0,0.0,0.0,0.0,0.0,0.0,0.0,0.0,0.0,0.0,0.0,0.0,0.0,0.0,0.0,0.0,0.0,0.0,0.0,0.0,0.0,0.0,0.0,0.0,0.0,0.0,0.0,0.0,0.0,0.0,0.0,0.0,0.0,0.0,0.0,0.0,0.0,0.0,0.0,0.0,0.0,0.0,0.0,0.0,0.0,0.0,0.0,0.0,0.0,0.0,0.0,0.0,0.0,1.5996,1.6883,1.7089,1.7089,1.7345,1.7841,1.7624,1.7607,1.775,0.0,0.0,0.0,0.0,0.0,0.0,0.0,0.0,0.0,0.0,0.0,0.0,0.0,0.0,0.0,0.0,0.0,0.0,0.0,0.0,0.0,0.0,0.0,0.0,0.0,0.0,0.0,0.0,0.0,0.0,0.0,0.0,0.0,0.0,0.0,0.0,0.0,0.0,2.123,2.4244,0.0,0.0,0.0,0.0,0.0,0.0,0.0,0.0,3.0968,0.0,0.0,0.0,0.0,0.0,0.0,0.0,0.0,0.0,0.0,0.0,0.0,0.0,0.0,0.0,0.0,0.0,0.0,0.0,0.0,0.0,0.0,0.0,0.0,0.0,0.0,0.0,0.0,0.0,0.0,0.0,0.0,0.0,0.0,0.0,0.0,0.0,0.0,0.0,0.0,0.0,0.0,0.0,0.0,0.0,0.0,0.0,0.0,0.0,0.0,0.0,0.0,0.0,0.0,0.0,0.0,0.0,0.0,1.6563,1.7076,1.7089,1.7294,1.7649,1.7031,1.686,0.0,0.0,0.0,0.0,0.0,0.0,0.0,0.0,0.0,0.0,0.0,0.0,0.0,0.0,0.0,0.0,0.0,0.0,0.0,0.0,0.0,0.0,0.0,0.0,0.0,0.0,0.0,0.0,0.0,0.0,0.0,0.0,0.0,0.0,0.0,0.0,0.0,0.0,0.0,0.0,0.0,0.0,0.0,0.0,0.0,0.0,0.0,0.0,0.0,0.0,0.0,0.0,0.0,0.0,0.0,0.0,0.0,0.0,0.0,0.0,0.0,0.0,0.0,0.0,0.0,0.0,0.0,0.0,0.0,0.0,0.0,0.0,0.0,0.0,0.0,0.0,0.0,0.0,0.0,0.0,0.0,0.0,0.0,0.0,0.0,0.0,0.0,0.0,0.0,0.0,0.0,0.0,0.0,0.0,0.0,0.0,0.0,0.0,0.0,0.0,0.0,0.0,0.0,0.0,0.0,0.0,0.0,0.0,1.6282,1.7076,1.7089,1.7242,1.7511,1.6606,1.6397,0.0,0.0,0.0,0.0,0.0,0.0,0.0,0.0,0.0,0.0,0.0,0.0,0.0,0.0,0.0,0.0,0.0,0.0,0.0,0.0,0.0,0.0,0.0,0.0,0.0,0.0,0.0,0.0,0.0,0.0,0.0,0.0,0.0,0.0,0.0,0.0,0.0,0.0,0.0,0.0,0.0,0.0,0.0,0.0,0.0,0.0,0.0,0.0,2.8915,0.0,0.0,0.0,0.0,0.0,0.0,0.0,0.0,0.0,0.0,0.0,0.0,0.0,0.0,0.0,0.0,0.0,0.0,0.0,0.0,0.0,0.0,0.0,0.0,0.0,0.0,0.0,0.0,0.0,0.0,0.0,0.0,0.0,0.0,0.0,0.0,0.0,0.0,0.0,0.0,0.0,0.0,0.0,0.0,0.0,0.0,0.0,0.0,0.0,0.0,0.0,0.0,0.0,0.0,0.0,0.0,0.0,0.0,0.0,1.6182,1.7076,1.7089,1.7242,1.7484,1.6606,1.6214,0.0,0.0,0.0,0.0,0.0,0.0,0.0,0.0,0.0,0.0,0.0,0.0,0.0,0.0,0.0,0.0,0.0,0.0,0.0,0.0,0.0,0.0,0.0,0.0,0.0,0.0,0.0,0.0,0.0,0.0,0.0,0.0,0.0,0.0,0.0,0.0,0.0,0.0,0.0,0.0,0.0,0.0,0.0,0.0,0.0,0.0,0.0,0.0,0.0,0.0,0.0,0.0,0.0,0.0,0.0,0.0,0.0,0.0,0.0,0.0,0.0,0.0,0.0,0.0,0.0,0.0,0.0,0.0,0.0,0.0,0.0,0.0,0.0,0.0,0.0,0.0,0.0,0.0,0.0,0.0,0.0,0.0,0.0,0.0,0.0,0.0,0.0,0.0,0.0,0.0,0.0,0.0,0.0,0.0,0.0,0.0,0.0,0.0,0.0,0.0,0.0,0.0,0.0,0.0,0.0,0.0,0.0,0.0,1.5735,1.6621,1.6945,1.7009,1.6795,1.6255,1.572,0.0,0.0,0.0,0.0,0.0,0.0,0.0,0.0,0.0,0.0,0.0,0.0,0.0,0.0,0.0,0.0,0.0,0.0,0.0,0.0,0.0,0.0,0.0,0.0,0.0,0.0,0.0,0.0,0.0,0.0,0.0,0.0,0.0,0.0,0.0,0.0,0.0,0.0,0.0,0.0,0.0,0.0,0.0,0.0,0.0,0.0,0.0,0.0,0.0,0.0,0.0,0.0,0.0,0.0,0.0,0.0,0.0,0.0,0.0,0.0,0.0,0.0,0.0,0.0,0.0,0.0,0.0,0.0,0.0,0.0,0.0,0.0,0.0,0.0,0.0,0.0,0.0,0.0,0.0,0.0,0.0,0.0,0.0,0.0,0.0,0.0,0.0,0.0,0.0,0.0,0.0,0.0,0.0,0.0,0.0,0.0,0.0,0.0,0.0,0.0,0.0,0.0,0.0,0.0,0.0,0.0,0.0,0.0,0.0,1.6269,1.653,1.6478,1.6087,1.571,1.5174,0.0,0.0,0.0,0.0,0.0,0.0,0.0,0.0,0.0,0.0,0.0,0.0,0.0,0.0,0.0,0.0,0.0,0.0,0.0,0.0,0.0,0.0,0.0,0.0,0.0,0.0,0.0,0.0,0.0,0.0,0.0,0.0,0.0,0.0,0.0,0.0,0.0,0.0,0.0,0.0,0.0,0.0,0.0,0.0,0.0,0.0,0.0,0.0,0.0,0.0,0.0,0.0,0.0,0.0,0.0,0.0,0.0,0.0,0.0,0.0,0.0,0.0,0.0,0.0,0.0,0.0,0.0,0.0,0.0,0.0,0.0,0.0,0.0,0.0,0.0,0.0,0.0,0.0,0.0,0.0,0.0,0.0,0.0,0.0,0.0,0.0,0.0,0.0,0.0,0.0,0.0,0.0,0.0,0.0,0.0,0.0,0.0,0.0,0.0,0.0,0.0,0.0,0.0,0.0,0.0,0.0,0.0,0.0,0.0,1.6295,1.5753,1.5421,1.5406,1.505,1.4553,0.0,0.0,0.0,0.0,0.0,0.0,0.0,0.0,0.0,0.0,0.0,0.0,0.0,0.0,0.0,0.0,0.0,0.0,0.0,0.0,0.0,0.0,0.0,0.0,0.0,0.0,0.0,0.0,0.0,0.0,0.0,0.0,0.0,0.0,0.0,0.0,0.0,0.0,0.0,0.0,0.0,0.0,0.0,0.0,0.0,0.0,0.0,0.0,0.0,0.0,0.0,0.0,0.0,0.0,0.0,0.0,0.0,0.0,0.0,0.0,0.0,0.0,0.0,0.0,0.0,0.0,0.0,0.0,0.0,0.0,0.0,0.0,0.0,0.0,0.0,0.0,0.0,0.0,0.0,0.0,0.0,0.0,0.0,0.0,0.0,0.0,0.0,0.0,0.0,0.0,0.0,0.0,0.0,0.0,0.0,0.0,0.0,0.0,0.0,0.0,0.0,0.0,0.0,0.0,0.0,0.0,0.0,0.0,0.0,1.4586,1.4786,1.4877,1.4877,1.4326,1.3678,1.2926,0.0,0.0,0.0,0.0,0.0,0.0,0.0,0.0,0.0,0.0,0.0,0.0,0.0,0.0,0.0,0.0,0.0,0.0,0.0,0.0,0.0,0.0,0.0,0.0,0.0,0.0,0.0,0.0,0.0,0.0,0.0,0.0,0.0,0.0,0.0,0.0,0.0,0.0,0.0,0.0,0.0,0.0,0.0,0.0,0.0,0.0,0.0,0.0,0.0,0.0,0.0,0.0,0.0,0.0,0.0,0.0,0.0,0.0,0.0,0.0,0.0,0.0,0.0,0.0,0.0,0.0,0.0,0.0,0.0,0.0,0.0,0.0,0.0,0.0,0.0,0.0,0.0,0.0,0.0,0.0,0.0,0.0,0.0,0.0,0.0,0.0,0.0,0.0,0.0,0.0,0.0,0.0,0.0,0.0,0.0,0.0,0.0,0.0,0.0,0.0,0.0,0.0,0.0,0.0,0.0,0.0,0.0,0.0,1.297,1.3517,1.3807,1.3774,1.3356,1.2743,0.0,0.0,0.0,0.0,0.0,0.0,0.0,0.0,0.0,0.0,0.0,0.0,0.0,0.0,0.0,0.0,0.0,0.0,0.0,0.0,0.0,0.0,0.0,0.0,0.0,0.0,0.0,0.0,0.0,0.0,0.0,0.0,0.0,0.0,0.0,0.0,0.0,0.0,0.0,0.0,0.0,0.0,0.0,0.0,0.0,0.0,0.0,0.0,0.0,0.0,0.0,0.0,0.0,0.0,0.0,0.0,0.0,0.0,0.0,0.0,0.0,0.0,0.0,0.0,0.0,0.0,0.0,0.0,0.0,0.0,0.0,0.0,0.0,0.0,0.0,0.0,0.0,0.0,0.0,0.0,0.0,0.0,0.0,0.0,0.0,0.0,0.0,0.0,0.0,0.0,0.0,0.0,0.0,0.0,0.0,0.0,0.0,0.0,0.0,0.0,0.0,0.0,0.0,0.0,0.0,0.0,0.0,0.0,1.0284,1.1643,1.2001,1.2175,1.2083,1.2114,1.1778,0.0,0.0,0.0,0.0,0.0,0.0,0.0,0.0,0.0,0.0,0.0,0.0,0.0,0.0,0.0,0.0,0.0,0.0,0.0,0.0,0.0,0.0,0.0,0.0,0.0,0.0,0.0,0.0,0.0,0.0,0.0,0.0,0.0,0.0,0.0,0.0,0.0,0.0,0.0,0.0,0.0,0.0,0.0,0.0,0.0,0.0,0.0,0.0,0.0,0.0,0.0,0.0,0.0,0.0,0.0,0.0,0.0,0.0,0.0,0.0,0.0,0.0,0.0,0.0,0.0,0.0,0.0,0.0,0.0,0.0,0.0,0.0,0.0,0.0,0.0,0.0,0.0,0.0,0.0,0.0,0.0,0.0,0.0,0.0,0.0,0.0,0.0,0.0,0.0,0.0,0.0,0.0,0.0,0.0,0.0,0.0,0.0,0.0,0.0,0.0,0.0,0.0,0.0,0.0,0.0,0.0,0.0,0.0,0.0,1.073,0.0,1.2044,0.0,1.1613,1.1314,0.0,0.0,0.0,0.0,0.0,0.0,0.0,0.0,0.0,0.0,0.0,0.0,0.0,0.0,0.0,0.0,0.0,0.0,0.0,0.0,0.0,0.0,0.0,0.0,0.0,0.0,0.0,0.0,0.0,0.0,0.0,0.0,0.0,0.0,0.0,0.0,0.0,0.0,0.0,0.0,0.0,0.0,0.0,0.0,0.0,0.0,0.0,0.0,0.0,0.0,0.0,0.0,0.0,0.0,0.0,0.0,0.0,0.0,0.0,0.0,0.0,0.0,0.0,0.0,0.0,0.0,0.0,0.0,0.0,0.0,0.0,0.0,0.0,0.0,0.0,0.0,0.0,0.0,0.0,0.0,0.0,0.0,0.0,0.0,0.0,0.0,0.0,0.0,0.0,0.0,0.0,0.0,0.0,0.0,0.0,0.0,0.0,0.0,0.0,0.0,0.0,0.0,0.0,0.0,0.0,0.0,0.0,0.0,0.0,0.9999,1.0802,1.1294,1.1404,1.1015,1.0804,0.0,0.0,0.0,0.0,0.0,0.0,0.0,0.0,0.0,0.0,0.0,0.0,0.0,0.0,0.0,0.0,0.0,0.0,0.0,0.0,0.0,0.0,0.0,0.0,0.0,0.0,0.0,0.0,0.0,0.0,0.0,0.0,0.0,0.0,0.0,0.0,0.0,0.0,0.0,0.0,0.0,0.0,0.0,0.0,0.0,0.0,0.0,0.0,0.0,0.0,0.0,0.0,0.0,0.0,0.0,0.0,0.0,0.0,0.0,0.0,0.0,0.0,0.0,0.0,0.0,0.0,0.0,0.0,0.0,0.0,0.0,0.0,0.0,0.0,0.0,0.0,0.0,0.0,0.0,0.0,0.0,0.0,0.0,0.0,0.0,0.0,0.0,0.0,0.0,0.0,0.0,0.0,0.0,0.0,0.0,0.0,0.0,0.0,0.0,0.0,0.0,0.0,0.0,0.0,0.0,0.0,0.0,0.0,0.0,0.0,0.9669,0.9947,1.0343,1.0333,1.0333,0.0,0.0,0.0,0.0,0.0,0.0,0.0,0.0,0.0,0.0,0.0,0.0,0.0,0.0,0.0,0.0,0.0,0.0,0.0,0.0,0.0,0.0,0.0,0.0,0.0,0.0,0.0,0.0,0.0,0.0,0.0,0.0,0.0,0.0,0.0,0.0,0.0,0.0,0.0,0.0,0.0,0.0,0.0,0.0,0.0,0.0,0.0,0.0,0.0,0.0,0.0,0.0,0.0,0.0,0.0,0.0,0.0,0.0,0.0,0.0,0.0,0.0,0.0,0.0,0.0,0.0,0.0,0.0,0.0,0.0,0.0,0.0,0.0,0.0,0.0,0.0,0.0,0.0,0.0,0.0,0.0,0.0,0.0,0.0,0.0,0.0,0.0,0.0,0.0,0.0,0.0,0.0,0.0,0.0,0.0,0.0,0.0,0.0,0.0,0.0,0.0,0.0,0.0,0.0,0.0,0.0,0.0,0.0,0.0,0.0,0.966,0.0,1.0289,1.032,1.0348,1.0453,0.0,0.0,0.0,0.0,0.0,0.0,0.0,0.0,0.0,0.0,0.0,0.0,0.0,0.0,0.0,0.0,0.0,0.0,0.0,0.0,0.0,0.0,0.0,0.0,0.0,0.0,0.0,0.0,0.0,0.0,0.0,0.0,0.0,0.0,0.0,0.0,0.0,0.0,0.0,0.0,0.0,0.0,0.0,0.0,0.0,0.0,0.0,0.0,0.0,0.0,0.0,0.0,0.0,0.0,0.0,0.0,0.0,0.0,0.0,0.0,0.0,0.0,0.0,0.0,0.0,0.0,0.0,0.0,0.0,0.0,0.0,0.0,0.0,0.0,0.0,0.0,0.0,0.0,0.0,0.0,0.0,0.0,0.0,0.0,0.0,0.0,0.0,0.0,0.0,0.0,0.0,0.0,0.0,0.0,0.0,0.0,0.0,0.0,0.0,0.0,0.0,0.0,0.0,0.0,0.0,0.0,0.0,0.0,0.0,0.0,1.0043,1.0379,1.0379,1.05,0.0,0.0,0.0,0.0,0.0,0.0,0.0,0.0,0.0,0.0,0.0,0.0,0.0,0.0,0.0,0.0,0.0,0.0,0.0,0.0,0.0,0.0,0.0,0.0,0.0,0.0,0.0,0.0,0.0,0.0,0.0,0.0,0.0,0.0,0.0,0.0,0.0,0.0,0.0,0.0,0.0,0.0,0.0,0.0,0.0,0.0,0.0,0.0,0.0,0.0,0.0,0.0,0.0,0.0,0.0,0.0,0.0,0.0,0.0,0.0,0.0,0.0,0.0,0.0,0.0,0.0,0.0,0.0,0.0,0.0,0.0,0.0,0.0,0.0,0.0,0.0,0.0,0.0,0.0,0.0,0.0,0.0,0.0,0.0,0.0,0.0,0.0,0.0,0.0,0.0,0.0,0.0,0.0,0.0,0.0,0.0,0.0,0.0,0.0,0.0,0.0,0.0,0.0,0.0,0.0,0.0,0.0,0.0,0.0,0.0,0.0,1.0243,1.0484,1.05,0.0,1.1038,0.0,0.0,0.0,0.0,0.0,0.0,0.0,0.0,0.0,0.0,0.0,0.0,0.0,0.0,0.0,0.0,0.0,0.0,0.0,0.0,0.0,0.0,0.0,0.0,0.0,0.0,0.0,0.0,0.0,0.0,0.0,0.0,0.0,0.0,0.0,0.0,0.0,0.0,0.0,0.0,0.0,0.0,0.0,0.0,0.0,0.0,0.0,0.0,0.0,0.0,0.0,0.0,0.0,0.0,0.0,0.0,0.0,0.0,0.0,0.0,0.0,0.0,0.0,0.0,0.0,0.0,0.0,0.0,0.0,0.0,0.0,0.0,0.0,0.0,0.0,0.0,0.0,0.0,0.0,0.0,0.0,0.0,0.0,0.0,0.0,0.0,0.0,0.0,0.0,0.0,0.0,0.0,0.0,0.0,0.0,0.0,0.0,0.0,0.0,0.0,0.0,0.0,0.0,0.0,0.0,0.0,0.0,0.0,0.0,0.0,0.0,0.0,1.0609,1.0825,1.1176,0.0,0.0,0.0,0.0,0.0,0.0,0.0,0.0,0.0,0.0,0.0,0.0,0.0,0.0,0.0,0.0,0.0,0.0,0.0,0.0,0.0,0.0,0.0,0.0,0.0,0.0,0.0,0.0,0.0,0.0,0.0,0.0,0.0,0.0,0.0,0.0,0.0,0.0,0.0,0.0,0.0,0.0,0.0,0.0,0.0,0.0,0.0,0.0,0.0,0.0,0.0,0.0,0.0,0.0,0.0,0.0,0.0,0.0,0.0,0.0,0.0,0.0,0.0,0.0,0.0,0.0,0.0,0.0,0.0,0.0,0.0,0.0,0.0,0.0,0.0,0.0,0.0,0.0,0.0,0.0,0.0,0.0,0.0,0.0,0.0,0.0,0.0,0.0,0.0,0.0,0.0,0.0,0.0,0.0,0.0,0.0,0.0,0.0,0.0,0.0,0.0,0.0,0.0,0.0,0.0,0.0,0.0,0.0,0.0,0.0,1.0258,1.0563,1.084,1.113,1.1539,0.0,0.0,0.0,0.0,0.0,0.0,0.0,0.0,0.0,0.0,0.0,0.0,0.0,0.0,0.0,0.0,0.0,0.0,0.0,0.0,0.0,0.0,0.0,0.0,0.0,0.0,0.0,0.0,0.0,0.0,0.0,0.0,0.0,0.0,0.0,0.0,0.0,0.0,0.0,0.0,0.0,0.0,0.0,0.0,0.0,0.0,0.0,0.0,0.0,0.0,0.0,0.0,0.0,0.0,0.0,0.0,0.0,0.0,0.0,0.0,0.0,0.0,0.0,0.0,0.0,0.0,0.0,0.0,0.0,0.0,0.0,0.0,0.0,0.0,0.0,0.0,0.0,0.0,0.0,0.0,0.0,0.0,0.0,0.0,0.0,0.0,0.0,0.0,0.0,0.0,0.0,0.0,0.0,0.0,0.0,0.0,0.0,0.0,0.0,0.0,0.0,0.0,0.0,0.0,0.0,0.0,0.0,0.0,0.0,0.0,0.0,0.0,0.0,0.0,1.1914,0.0,0.0,0.0,0.0,0.0,0.0,0.0,0.0,0.0,0.0,0.0,0.0,0.0,0.0,0.0,0.0,0.0,0.0,0.0,0.0,0.0,0.0,0.0,0.0,0.0,0.0,0.0,0.0,0.0,0.0,0.0,0.0,0.0,0.0,0.0,0.0,0.0,0.0,0.0,0.0,0.0,0.0,0.0,0.0,0.0,0.0,0.0,0.0,0.0,0.0,0.0,0.0,0.0,0.0,0.0,0.0,0.0,0.0,0.0,0.0,0.0,0.0,0.0,0.0,0.0,0.0,0.0,0.0,0.0,0.0,0.0,0.0,0.0,0.0,0.0,0.0,0.0,0.0,0.0,0.0,0.0,0.0,0.0,0.0,0.0,0.0,0.0,0.0,0.0,0.0,0.0,0.0,0.0,0.0,0.0,0.0,0.0,0.0,0.0,0.0,0.0,0.0,0.0,0.0,0.0,0.0,0.0,0.0,0.0,0.0,0.0,0.0,0.0,0.0,0.0,0.0,0.0,0.0,0.0,0.0,0.0,0.0,0.0,0.0,0.0,0.0,0.0,0.0,0.0,0.0,0.0,0.0,0.0,0.0,0.0,0.0,0.0,0.0,0.0,0.0,0.0,0.0,0.0,0.0,0.0,0.0,0.0,0.0,0.0,0.0,0.0,0.0,0.0,0.0,0.0,0.0,0.0,0.0,0.0,0.0,0.0,0.0,0.0,0.0,0.0,0.0,0.0,0.0,0.0,0.0,0.0,0.0,0.0,0.0,0.0,0.0,0.0,0.0,0.0,0.0,0.0,0.0,0.0,0.0,0.0,0.0,0.0,0.0,0.0,0.0,0.0,0.0,0.0,0.0,0.0,0.0,0.0,0.0,0.0,0.0,0.0,0.0,0.0,0.0,0.0,0.0,0.0,0.0,0.0,0.0,0.0,0.0,0.0,0.0,0.0,0.0,0.0,0.0,0.0,0.0,0.0,0.0,0.0,0.0,0.0,0.0,0.0,0.0,0.0,0.0,0.0,0.0,0.0,0.0,0.0,0.0,0.0,0.0,0.0,0.0,0.0,0.0,0.0,0.0,0.0,0.0,0.0,0.0,0.0,0.0,0.0,0.0,0.0,0.0,0.0,0.0,0.0,0.0,0.0,0.0,0.0,0.0,0.0,0.0,0.0,0.0,0.0,0.0,0.0,0.0,0.0,0.0,0.0,0.0,0.0,0.0,0.0,0.0,0.0,0.0,0.0,0.0,0.0,0.0,0.0,0.0,0.0,0.0,0.0,0.0,0.0,0.0,0.0,0.0,0.0,0.0,0.0,0.0,0.0,0.0,0.0,0.0,0.0,0.0,0.0,0.0,0.0,0.0,0.0,0.0,0.0,0.0,0.0,0.0,0.0,0.0,0.0,0.0,0.0,0.0,0.0,0.0,0.0,0.0,0.0,0.0,0.0,0.0,0.0,0.0,0.0,0.0,0.0,0.0,0.0,0.0,0.0,0.0,0.0,0.0,0.0,0.0,0.0,0.0,0.0,0.0,0.0,0.0,0.0,0.0,0.0,0.0,0.0,0.0,0.0,0.0,0.0,0.0,0.0,0.0,0.0,0.0,0.0,0.0,0.0,0.0,0.0,0.0,0.0,0.0,0.0,0.0,0.0,0.0,0.0,0.0,0.0,0.0,0.0,0.0,0.0,0.0,0.0,0.0,0.0,0.0,0.0,0.0,0.0,0.0,0.0,0.0,0.0,0.0,0.0,0.0,0.0,0.0,0.0,0.0,0.0,0.0,0.0,0.0,0.0,0.0,0.0,0.0,0.0,0.0,0.0,0.0,0.0,0.0,0.0,0.0,0.0,0.0,0.0,0.0,0.0,0.0,0.0,0.0,0.0,0.0,0.0,0.0,0.0,0.0,0.0,0.0,0.0,0.0,0.0,0.0,0.0,0.0,0.0,0.0,0.0,0.0,0.0,0.0,0.0,0.0,0.0,0.0,0.0,0.0,0.0,0.0,0.0,0.0,0.0,0.0,0.0,0.0,0.0,0.0,0.0,0.0,0.0,0.0,0.0,0.0,0.0,0.0,0.0,0.0,0.0,0.0,0.0,0.0,0.0,0.0,0.0,0.0,0.0,0.0,0.0,0.0,0.0,0.0,0.0,0.0,0.0,0.0,0.0,0.0,0.0,0.0,0.0,0.0,0.0,0.0,0.0,0.0,0.0,0.0,0.0,0.0,0.0,0.0,0.0,0.0,0.0,0.0,0.0,0.0,0.0,0.0,0.0,0.0,0.0,0.0,0.0,0.0,0.0,0.0,0.0,0.0,0.0,0.0,0.0,0.0,0.0,0.0,0.0,0.0,0.0,0.0,0.0,0.0,0.0,0.0,0.0,0.0,0.0,0.0,0.0,0.0,0.0,0.0,0.0,0.0,0.0,0.0,0.0,0.0,0.0,0.0,0.0,0.0,0.0,0.0,0.0,0.0,0.0,0.0,0.0,0.0,0.0,0.0,0.0,0.0,0.0,0.0,0.0,0.0,0.0,0.0,0.0,0.0,0.0,0.0,0.0,0.0,0.0,0.0,0.0,0.0,0.0,0.0,0.0,0.0,0.0,0.0,0.0,0.0,0.0,0.0,0.0,0.0,0.0,0.0,0.0,0.0,0.0,0.0,0.0,0.0,0.0,0.0,0.0,0.0,0.0,0.0,0.0,0.0,0.0,0.0,0.0,0.0,0.0,0.0,0.0,0.0,0.0,0.0,0.0,0.0,0.0,0.0,0.0,0.0,0.0,0.0,0.0,0.0,0.0,0.0,0.0,0.0,0.0,0.0,0.0,0.0,0.0,0.0,0.0,0.0,0.0,0.0,0.0,0.0,0.0,0.0,0.0,0.0,0.0,0.0,0.0,0.0,0.0,0.0,0.0,0.0,0.0,0.0,0.0,0.0,0.0,0.0,0.0,0.0,0.0,0.0,0.0,0.0,0.0,0.0,0.0,0.0,0.0,0.0,0.0,0.0,0.0,0.0,0.0,0.0,0.0,0.0,0.0,0.0,0.0,0.0,0.0,0.0,0.0,0.0,0.0,0.0,0.0,0.0,0.0,0.0,0.0,0.0,0.0,0.0,0.0,0.0,0.0,0.0,0.0,0.0,0.0,0.0,0.0,0.0,0.0,0.0,0.0,0.0,0.0,0.0,0.0,0.0,0.0,0.0,0.0,0.0,0.0,0.0,0.0,0.0,0.0,0.0,0.0,0.0,0.0,0.0,0.0,0.0,0.0,0.0,0.0,0.0,0.0,0.0,0.0,0.0,0.0,0.0,0.0,0.0,0.0,0.0,0.0,0.0,0.0,0.0,0.0,0.0,0.0,0.0,0.0,0.0,0.0,0.0,0.0,0.0,0.0,0.0,0.0,0.0,0.0,0.0,0.0,0.0,0.0,0.0,0.0,0.0,0.0,0.0,0.0,0.0,0.0,0.0,0.0,0.0,0.0,0.0,0.0,0.0,0.0,0.0,0.0,0.0,0.0,0.0,0.0,0.0,0.0,0.0,0.0,0.0,0.0,0.0,0.0,0.0,0.0,0.0,0.0,0.0,0.0,0.0,0.0,0.0,0.0,0.0,0.0,0.0,0.0,0.0,0.0,0.0,0.0,0.0,0.0,0.0,0.0,0.0,0.0,0.0,0.0,0.0,0.0,0.0,0.0,0.0,0.0,0.0,0.0,0.0,0.0,0.0,0.0,0.0,0.0,0.0,0.0,0.0,0.0,0.0,0.0,0.0,0.0,0.0,0.0,0.0,0.0,0.0,0.0,0.0,0.0,0.0,0.0,0.0,0.0,0.0,0.0,0.0,0.0,0.0,0.0,0.0,0.0,0.0,0.0,0.0,0.0,0.0,0.0,0.0,0.0,0.0,0.0,0.0,0.0,0.0,0.0,0.0,0.0,0.0,0.0,0.0,0.0,0.0,0.0,0.0,0.0,0.0,0.0,0.0,0.0,0.0,0.0,0.0,0.0,0.0,0.0,0.0,0.0,0.0,0.0,0.0,0.0,0.0,0.0,0.0,0.0,0.0,0.0,0.0,0.0,0.0,0.0,0.0,0.0,0.0,0.0,0.0,0.0,0.0,0.0,0.0,0.0,0.0,0.0,0.0,0.0,0.0,0.0,0.0,0.0,0.0,0.0,0.0,0.0,0.0,0.0,0.0,0.0,0.0,0.0,0.0,0.0,0.0,0.0,0.0,0.0,0.0,0.0,0.0,0.0,0.0,0.0,0.0,0.0,0.0,0.0,0.0,0.0,0.0,0.0,0.0,0.0,0.0,0.0,0.0,0.0,0.0,0.0,0.0,0.0,0.0,0.0,0.0,0.0,0.0,0.0,0.0,0.0,0.0]}]]]